[[{"header":{"parameterUnit":"m.s-1","parameterCategory":1,"la1":30.6,"la2":28.766,"lo1":-90.7593,"lo2":-88.6598,"dx":0.0162,"dy":0.0183,"nx":116,"ny":114,"refTime":"2022-12-27T06:00:00:Z","depth":0,"parameterNumber":2,"parameterNumberName":"U-component_of_WINDS"},"data":[0.0,0.0,0.0,0.0,0.0,0.0,0.0,0.0,0.0,0.0,0.0,0.0,0.0,0.0,0.0,0.0,0.0,0.0,0.0,0.0,0.0,0.0,0.0,0.0,0.0,0.0,0.0,0.0,0.0,0.0,0.0,0.0,0.0,0.0,0.0,0.0,0.0,0.0,0.0,0.0,0.0,0.0,0.0,0.0,0.0,0.0,0.0,0.0,0.0,0.0,0.0,0.0,0.0,0.0,0.0,0.0,0.0,0.0,0.0,0.0,0.0,0.0,0.0,0.0,0.0,0.0,0.0,0.0,0.0,0.0,0.0,0.0,0.0,0.0,0.0,0.0,0.0,0.0,0.0,0.0,0.0,0.0,0.0,0.0,0.0,0.0,0.0,0.0,0.0,0.0,0.0,0.0,0.0,0.0,0.0,0.0,0.0,0.0,0.0,0.0,0.0,0.0,0.0,0.0,0.0,0.0,0.0,0.0,0.0,0.0,0.0,0.0,0.0,0.0,0.0,0.0,0.0,0.0,0.0,0.0,0.0,0.0,0.0,0.0,0.0,0.0,0.0,0.0,0.0,0.0,0.0,0.0,0.0,0.0,0.0,0.0,0.0,0.0,0.0,0.0,0.0,0.0,0.0,0.0,0.0,0.0,0.0,0.0,0.0,0.0,0.0,0.0,0.0,0.0,0.0,0.0,0.0,0.0,0.0,0.0,0.0,0.0,0.0,0.0,0.0,0.0,0.0,0.0,0.0,0.0,0.0,0.0,0.0,0.0,0.0,0.0,0.0,0.0,0.0,0.0,0.0,0.0,0.0,0.0,0.0,0.0,0.0,0.0,0.0,0.0,0.0,0.0,0.0,0.0,0.0,0.0,0.0,0.0,0.0,0.0,0.0,0.0,0.0,0.0,0.0,0.0,0.0,0.0,0.0,0.0,0.0,0.0,0.0,0.0,0.0,0.0,0.0,0.0,0.0,0.0,0.0,0.0,0.0,0.0,0.0,0.0,0.0,0.0,0.0,0.0,0.0,0.0,0.0,0.0,0.0,0.0,0.0,0.0,0.0,0.0,0.0,0.0,0.0,0.0,0.0,0.0,0.0,0.0,0.0,0.0,0.0,0.0,0.0,0.0,0.0,0.0,0.0,0.0,0.0,0.0,0.0,0.0,0.0,0.0,0.0,0.0,0.0,0.0,0.0,0.0,0.0,0.0,0.0,0.0,0.0,0.0,0.0,0.0,0.0,0.0,0.0,0.0,0.0,0.0,0.0,0.0,0.0,0.0,0.0,0.0,0.0,0.0,0.0,0.0,0.0,0.0,0.0,0.0,0.0,0.0,0.0,0.0,0.0,0.0,0.0,0.0,0.0,0.0,0.0,0.0,0.0,0.0,0.0,0.0,0.0,0.0,0.0,0.0,0.0,0.0,0.0,0.0,0.0,0.0,0.0,0.0,0.0,0.0,0.0,0.0,0.0,0.0,0.0,0.0,0.0,0.0,0.0,0.0,0.0,0.0,0.0,0.0,0.0,0.0,0.0,0.0,0.0,0.0,0.0,0.0,0.0,0.0,0.0,0.0,0.0,0.0,0.0,0.0,0.0,0.0,0.0,0.0,0.0,0.0,0.0,0.0,0.0,0.0,0.0,0.0,0.0,0.0,0.0,0.0,0.0,0.0,0.0,0.0,0.0,0.0,0.0,0.0,0.0,0.0,0.0,0.0,0.0,0.0,0.0,0.0,0.0,0.0,0.0,0.0,0.0,0.0,0.0,0.0,0.0,0.0,0.0,0.0,0.0,0.0,0.0,0.0,0.0,0.0,0.0,0.0,0.0,0.0,0.0,0.0,0.0,0.0,0.0,0.0,0.0,0.0,0.0,0.0,0.0,0.0,0.0,0.0,0.0,0.0,0.0,0.0,0.0,0.0,0.0,0.0,0.0,0.0,0.0,0.0,0.0,0.0,0.0,0.0,0.0,0.0,0.0,0.0,0.0,0.0,0.0,0.0,0.0,0.0,0.0,0.0,0.0,0.0,0.0,0.0,0.0,0.0,0.0,0.0,0.0,0.0,0.0,0.0,0.0,0.0,0.0,0.0,0.0,0.0,0.0,0.0,0.0,0.0,0.0,0.0,0.0,0.0,0.0,0.0,0.0,0.0,0.0,0.0,0.0,0.0,0.0,0.0,0.0,0.0,0.0,0.0,0.0,0.0,0.0,0.0,0.0,0.0,0.0,0.0,0.0,0.0,0.0,0.0,0.0,0.0,0.0,0.0,0.0,0.0,0.0,0.0,0.0,0.0,0.0,0.0,0.0,0.0,0.0,0.0,0.0,0.0,0.0,0.0,0.0,0.0,0.0,0.0,0.0,0.0,0.0,0.0,0.0,0.0,0.0,0.0,0.0,0.0,0.0,0.0,0.0,0.0,0.0,0.0,0.0,0.0,0.0,0.0,0.0,0.0,0.0,0.0,0.0,0.0,0.0,0.0,0.0,0.0,0.0,0.0,0.0,0.0,0.0,0.0,0.0,0.0,0.0,0.0,0.0,0.0,0.0,0.0,0.0,0.0,0.0,0.0,0.0,0.0,0.0,0.0,0.0,0.0,0.0,0.0,0.0,0.0,0.0,0.0,0.0,0.0,0.0,0.0,0.0,0.0,0.0,0.0,0.0,0.0,0.0,0.0,0.0,0.0,0.0,0.0,0.0,0.0,0.0,0.0,0.0,0.0,0.0,0.0,0.0,0.0,0.0,0.0,0.0,0.0,0.0,0.0,0.0,0.0,0.0,0.0,0.0,0.0,0.0,0.0,0.0,0.0,0.0,0.0,0.0,0.0,0.0,0.0,0.0,0.0,0.0,0.0,0.0,0.0,0.0,0.0,0.0,0.0,0.0,0.0,0.0,0.0,0.0,0.0,0.0,0.0,0.0,0.0,0.0,0.0,0.0,0.0,0.0,0.0,0.0,0.0,0.0,0.0,0.0,0.0,0.0,0.0,0.0,0.0,0.0,0.0,0.0,0.0,0.0,0.0,0.0,0.0,0.0,0.0,0.0,0.0,0.0,0.0,0.0,0.0,0.0,0.0,0.0,0.0,0.0,0.0,0.0,0.0,0.0,0.0,0.0,0.0,0.0,0.0,0.0,0.0,0.0,0.0,0.0,0.0,0.0,0.0,0.0,0.0,0.0,0.0,0.0,0.0,0.0,0.0,0.0,0.0,0.0,0.0,0.0,0.0,0.0,0.0,0.0,0.0,0.0,0.0,0.0,0.0,0.0,0.0,0.0,0.0,0.0,0.0,0.0,0.0,0.0,0.0,0.0,0.0,0.0,0.0,0.0,0.0,0.0,0.0,0.0,0.0,0.0,0.0,0.0,0.0,0.0,0.0,0.0,0.0,0.0,0.0,0.0,0.0,0.0,0.0,0.0,0.0,0.0,0.0,0.0,0.0,0.0,0.0,0.0,0.0,0.0,0.0,0.0,0.0,0.0,0.0,0.0,0.0,0.0,0.0,0.0,0.0,0.0,0.0,0.0,0.0,0.0,0.0,0.0,0.0,0.0,0.0,0.0,0.0,0.0,0.0,0.0,0.0,0.0,0.0,0.0,0.0,0.0,0.0,0.0,0.0,0.0,0.0,0.0,0.0,0.0,0.0,0.0,0.0,0.0,0.0,0.0,0.0,0.0,0.0,0.0,0.0,0.0,0.0,0.0,0.0,0.0,0.0,0.0,0.0,0.0,0.0,0.0,0.0,0.0,0.0,0.0,0.0,0.0,0.0,0.0,0.0,0.0,0.0,0.0,0.0,0.0,0.0,0.0,0.0,0.0,0.0,0.0,0.0,0.0,0.0,0.0,0.0,0.0,0.0,0.0,0.0,0.0,0.0,0.0,0.0,0.0,0.0,0.0,0.0,0.0,0.0,0.0,0.0,0.0,0.0,0.0,0.0,0.0,0.0,0.0,0.0,0.0,0.0,0.0,0.0,0.0,0.0,0.0,0.0,0.0,0.0,0.0,0.0,0.0,0.0,0.0,0.0,0.0,0.0,0.0,0.0,0.0,0.0,0.0,0.0,0.0,0.0,0.0,0.0,0.0,0.0,0.0,0.0,0.0,0.0,0.0,0.0,0.0,0.0,0.0,0.0,0.0,0.0,0.0,0.0,0.0,0.0,0.0,0.0,0.0,0.0,0.0,0.0,0.0,0.0,0.0,0.0,0.0,0.0,0.0,0.0,0.0,0.0,0.0,0.0,0.0,0.0,0.0,0.0,0.0,0.0,0.0,0.0,0.0,0.0,0.0,0.0,0.0,0.0,0.0,0.0,0.0,0.0,0.0,0.0,0.0,0.0,0.0,0.0,0.0,0.0,0.0,0.0,0.0,0.0,0.0,0.0,0.0,0.0,0.0,0.0,0.0,0.0,0.0,0.0,0.0,0.0,0.0,0.0,0.0,0.0,0.0,0.0,0.0,0.0,0.0,0.0,0.0,0.0,0.0,0.0,0.0,0.0,0.0,0.0,0.0,0.0,0.0,0.0,0.0,0.0,0.0,0.0,0.0,0.0,0.0,0.0,0.0,0.0,0.0,0.0,0.0,0.0,0.0,0.0,0.0,0.0,0.0,0.0,0.0,0.0,0.0,0.0,0.0,0.0,0.0,0.0,0.0,0.0,0.0,0.0,0.0,0.0,0.0,0.0,0.0,0.0,0.0,0.0,0.0,0.0,0.0,0.0,0.0,0.0,0.0,0.0,0.0,0.0,0.0,0.0,0.0,0.0,0.0,0.0,0.0,0.0,0.0,0.0,0.0,0.0,0.0,0.0,0.0,0.0,0.0,0.0,0.0,0.0,0.0,0.0,0.0,0.0,0.0,0.0,0.0,0.0,0.0,0.0,0.0,0.0,0.0,0.0,0.0,0.0,0.0,0.0,0.0,0.0,0.0,0.0,0.0,0.0,0.0,0.0,0.0,0.0,0.0,0.0,0.0,0.0,0.0,0.0,0.0,0.0,0.0,0.0,0.0,0.0,0.0,0.0,0.0,0.0,0.0,0.0,0.0,0.0,0.0,0.0,0.0,0.0,0.0,0.0,0.0,0.0,0.0,0.0,0.0,0.0,0.0,0.0,0.0,0.0,0.0,0.0,0.0,0.0,0.0,0.0,0.0,0.0,0.0,0.0,0.0,0.0,0.0,0.0,0.0,0.0,0.0,0.0,0.0,0.0,0.0,0.0,0.0,0.0,0.0,0.0,0.0,0.0,0.0,0.0,0.0,0.0,0.0,0.0,0.0,0.0,0.0,0.0,0.0,0.0,0.0,0.0,0.0,0.0,0.0,0.0,0.0,0.0,0.0,0.0,0.0,0.0,0.0,0.0,0.0,0.0,0.0,0.0,0.0,0.0,0.0,0.0,0.0,0.0,0.0,0.0,0.0,0.0,0.0,0.0,0.0,0.0,0.0,0.0,0.0,0.0,0.0,0.0,0.0,0.0,0.0,0.0,0.0,0.0,0.0,0.0,0.0,0.0,0.0,0.0,0.0,0.0,0.0,0.0,0.0,0.0,0.0,0.0,0.0,0.0,0.0,0.0,0.0,0.0,0.0,0.0,0.0,0.0,0.0,0.0,0.0,0.0,0.0,0.0,0.0,0.0,0.0,0.0,0.0,0.0,0.0,0.0,0.0,0.0,0.0,0.0,0.0,0.0,0.0,0.0,0.0,0.0,0.0,0.0,0.0,0.0,0.0,0.0,0.0,0.0,0.0,0.0,0.0,0.0,0.0,0.0,0.0,0.0,0.0,0.0,0.0,0.0,0.0,0.0,0.0,0.0,0.0,0.0,0.0,0.0,0.0,0.0,0.0,0.0,0.0,0.0,0.0,0.0,0.0,0.0,0.0,0.0,0.0,0.0,0.0,0.0,0.0,0.0,0.0,0.0,0.0,0.0,0.0,0.0,0.0,0.0,0.0,0.0,0.0,0.0,0.0,0.0,0.0,0.0,0.0,0.0,0.0,0.0,0.0,0.0,0.0,0.0,0.0,0.0,0.0,0.0,0.0,0.0,0.0,0.0,0.0,0.0,0.0,0.0,0.0,0.0,0.0,0.0,0.0,0.0,0.0,0.0,0.0,0.0,0.0,0.0,0.0,0.0,-4.4562,-4.4305,0.0,0.0,0.0,0.0,0.0,0.0,0.0,0.0,0.0,0.0,0.0,0.0,0.0,0.0,0.0,0.0,0.0,0.0,0.0,0.0,0.0,0.0,0.0,-2.1934,-2.2233,-2.2562,-2.2622,0.0,0.0,0.0,0.0,0.0,0.0,0.0,0.0,0.0,-2.4238,-2.4567,-2.5555,-2.6393,-2.7021,-2.6004,-2.5495,-2.5495,0.0,0.0,0.0,0.0,0.0,0.0,0.0,0.0,0.0,0.0,0.0,0.0,0.0,0.0,0.0,0.0,0.0,0.0,0.0,0.0,0.0,0.0,0.0,0.0,0.0,0.0,0.0,0.0,0.0,0.0,0.0,0.0,0.0,0.0,0.0,0.0,0.0,0.0,0.0,0.0,0.0,0.0,0.0,0.0,0.0,0.0,0.0,0.0,0.0,0.0,0.0,0.0,0.0,0.0,0.0,0.0,0.0,0.0,0.0,0.0,0.0,0.0,0.0,0.0,0.0,0.0,0.0,0.0,0.0,0.0,-4.581,-4.5736,0.0,0.0,0.0,0.0,0.0,0.0,0.0,0.0,0.0,0.0,0.0,0.0,0.0,0.0,0.0,0.0,0.0,0.0,0.0,0.0,0.0,-2.2772,-2.2981,-2.346,-2.3819,-2.3939,-2.3939,-2.3939,-2.3939,-2.3939,0.0,0.0,0.0,0.0,0.0,0.0,-2.6093,-2.6752,-2.7649,-2.8308,-2.8757,-2.8308,-2.8098,-2.809,-2.7171,0.0,0.0,0.0,0.0,0.0,0.0,0.0,0.0,0.0,0.0,0.0,0.0,0.0,0.0,0.0,0.0,0.0,0.0,0.0,0.0,0.0,0.0,0.0,0.0,0.0,0.0,0.0,0.0,0.0,0.0,0.0,0.0,0.0,0.0,0.0,0.0,0.0,0.0,0.0,0.0,0.0,0.0,0.0,0.0,0.0,0.0,0.0,0.0,0.0,0.0,0.0,0.0,0.0,0.0,0.0,0.0,0.0,0.0,0.0,0.0,0.0,0.0,0.0,-4.603,-4.6177,-4.6324,-4.6471,-4.6985,-4.7719,-4.7058,-4.7058,-4.7572,-4.7719,0.0,0.0,0.0,0.0,0.0,0.0,0.0,0.0,0.0,0.0,0.0,0.0,0.0,0.0,0.0,0.0,0.0,0.0,0.0,-2.3101,-2.4238,-2.4403,-2.4717,-2.5285,-2.5345,-2.5345,-2.5345,-2.5345,0.0,0.0,0.0,0.0,0.0,-2.6123,-2.6782,-2.749,-2.9235,-2.9894,-2.9475,-2.9894,-3.0133,-3.0043,-2.8248,-2.741,-2.737,0.0,0.0,0.0,0.0,0.0,0.0,0.0,0.0,0.0,0.0,0.0,0.0,0.0,0.0,0.0,0.0,0.0,0.0,0.0,0.0,0.0,0.0,0.0,0.0,0.0,0.0,0.0,0.0,0.0,0.0,0.0,0.0,0.0,0.0,0.0,0.0,0.0,0.0,0.0,0.0,0.0,-3.6163,-3.6445,0.0,0.0,0.0,0.0,0.0,0.0,0.0,0.0,0.0,0.0,0.0,0.0,0.0,-4.4819,-4.5736,-4.5736,-4.581,-4.592,-4.6617,-4.7315,-4.8012,-4.8746,-4.9554,-5.0325,-5.0215,0.0,-4.9297,-5.0031,0.0,0.0,0.0,0.0,0.0,0.0,0.0,0.0,0.0,0.0,0.0,0.0,0.0,0.0,0.0,0.0,0.0,0.0,0.0,0.0,0.0,-2.6063,-2.6393,-2.6692,-2.7081,-2.7141,-2.6752,-2.7081,0.0,0.0,0.0,0.0,0.0,-2.717,-2.8168,-2.9205,-2.975,-3.0013,-3.0103,-3.0013,-2.9983,-2.9953,-2.9086,-2.8487,-2.8188,-2.8547,0.0,0.0,0.0,0.0,0.0,0.0,0.0,0.0,0.0,0.0,0.0,0.0,0.0,0.0,0.0,0.0,0.0,0.0,0.0,0.0,0.0,0.0,0.0,0.0,0.0,0.0,0.0,0.0,0.0,0.0,0.0,0.0,0.0,0.0,0.0,0.0,0.0,0.0,0.0,-3.6343,-3.6999,-3.7648,-3.8178,-3.8914,0.0,0.0,0.0,0.0,0.0,0.0,0.0,0.0,0.0,-4.5369,-4.5369,-4.5773,-4.6581,-4.7021,-4.7498,-4.7976,-4.8783,-4.937,-4.9738,-5.0105,-5.0472,-5.0802,-5.0802,-5.1096,-5.1646,-5.2013,-5.2417,-5.2894,0.0,0.0,0.0,0.0,-5.3995,-5.4069,0.0,0.0,0.0,0.0,0.0,0.0,0.0,0.0,0.0,0.0,0.0,0.0,-2.6811,-2.729,-2.761,-2.761,-2.8038,-2.8128,-2.764,-2.8068,0.0,0.0,0.0,0.0,0.0,-2.8484,-2.9327,-3.0001,-3.0256,-3.0462,-3.0761,-3.0642,-3.0582,-3.0582,-3.0582,-3.0013,-2.9116,-2.9445,-2.9086,-2.8338,0.0,0.0,0.0,0.0,0.0,0.0,0.0,0.0,0.0,0.0,0.0,0.0,0.0,0.0,0.0,0.0,0.0,0.0,0.0,0.0,0.0,0.0,0.0,0.0,0.0,0.0,0.0,0.0,0.0,0.0,0.0,0.0,0.0,0.0,0.0,0.0,0.0,-3.7026,-3.7445,-3.8427,-3.9124,-3.9747,0.0,0.0,0.0,0.0,0.0,0.0,-4.3685,-4.4348,-4.5111,-4.5953,-4.6174,-4.6724,-4.7755,-4.8563,-4.926,-4.9884,-5.0508,-5.0912,-5.1096,-5.1096,-5.1206,-5.1426,-5.1646,-5.2417,-5.3482,-5.3298,-5.3812,-5.4766,-5.5354,-5.5574,-5.5611,-5.5831,-5.5904,-5.5941,0.0,0.0,0.0,0.0,0.0,0.0,0.0,0.0,0.0,0.0,0.0,-2.6811,-2.749,-2.761,-2.761,-2.761,-2.764,-2.767,-2.761,-2.764,-2.7889,-2.8457,-2.8517,0.0,0.0,0.0,-2.9858,-2.8689,-3.115,-3.2048,-3.1452,-3.2736,-3.3305,-3.3305,-3.3305,-3.2228,-3.0372,-2.9804,-2.9894,-3.0253,-2.9086,0.0,0.0,0.0,0.0,0.0,0.0,0.0,0.0,0.0,0.0,0.0,0.0,0.0,0.0,0.0,0.0,0.0,0.0,0.0,0.0,0.0,0.0,0.0,0.0,0.0,0.0,0.0,0.0,0.0,0.0,0.0,0.0,0.0,0.0,0.0,0.0,0.0,0.0,-3.8251,-3.8549,0.0,0.0,0.0,0.0,-4.1016,-4.2328,-4.3172,-4.3221,-4.3746,-4.4689,-4.6122,-4.6922,-4.8047,-4.9444,-5.0251,-5.0692,-5.0729,-5.0765,-5.1206,-5.194,-5.194,-5.2344,-5.3115,-5.3885,-5.4252,-5.4289,-5.3518,-5.4106,-5.5537,-5.5574,-5.5574,-5.5684,-5.6455,-5.6748,-5.6859,0.0,0.0,0.0,-2.2024,-2.1994,-2.2203,-2.2832,-2.4059,-2.5226,-2.6123,-2.6811,-2.747,-2.8158,-2.8218,-2.8397,-2.8816,-2.8876,-2.8697,-2.8248,-2.8637,-2.8577,-2.7949,-2.8368,0.0,0.0,0.0,-3.0081,-3.0418,-3.1829,-3.2407,-3.2168,-3.3066,-3.3484,-3.3484,-3.3484,-3.3095,-3.2377,-3.1749,-3.0881,-2.9899,-2.9664,-2.8484,0.0,0.0,0.0,0.0,0.0,0.0,0.0,0.0,0.0,0.0,0.0,0.0,0.0,0.0,0.0,0.0,0.0,0.0,0.0,0.0,0.0,0.0,0.0,0.0,0.0,0.0,0.0,0.0,0.0,0.0,0.0,0.0,0.0,0.0,0.0,0.0,0.0,-3.9533,-3.9864,0.0,-4.0735,-4.1383,-4.1981,-4.2523,-4.3017,-4.3546,-4.3969,-4.5515,-4.6799,-4.7746,-4.8961,-4.983,-5.0362,-5.1169,-5.1573,-5.1573,-5.2123,-5.2491,-5.2784,-5.3298,-5.3702,-5.4032,-5.4803,-5.5464,-5.5941,-5.5647,-5.5868,-5.6418,-5.6932,-5.7152,-5.7189,-5.7483,-5.7556,-5.7593,0.0,0.0,0.0,-2.2353,-2.2532,-2.2951,-2.3819,-2.5076,-2.6183,-2.6841,-2.75,-2.8098,-2.8547,-2.8786,-2.9116,-2.9535,-2.9594,-2.9385,-2.8966,-2.9535,-2.9594,-2.8936,-2.9564,0.0,0.0,-3.0081,-3.0624,-3.1457,-3.2402,-3.2946,-3.3185,-3.3873,-3.4173,-3.4173,-3.4173,-3.4053,-3.3784,-3.3028,-3.1722,-3.01,-2.9898,-2.8524,-2.6516,0.0,0.0,0.0,0.0,0.0,0.0,0.0,0.0,0.0,0.0,0.0,0.0,0.0,0.0,0.0,0.0,0.0,0.0,0.0,0.0,0.0,0.0,0.0,0.0,0.0,0.0,0.0,0.0,0.0,0.0,0.0,0.0,0.0,0.0,-3.8555,-3.9089,-4.0875,-4.08,-4.0924,-4.1841,-4.2267,-4.2807,-4.3662,-4.4013,-4.4504,-4.5161,-4.6604,-4.7694,-4.8295,-4.9767,-5.0635,-5.0842,-5.1894,-5.2417,-5.2417,-5.2968,-5.3335,-5.3628,-5.4179,-5.4546,-5.484,-5.5647,-5.6308,-5.6822,-5.7079,-5.7189,-5.7262,-5.7776,-5.7997,-5.7997,-5.7997,-5.7997,-5.8033,0.0,0.0,-2.1754,-2.1754,-2.2323,-2.3191,-2.4433,-2.5764,-2.6841,-2.752,-2.8158,-2.8607,-2.8637,-2.9205,-2.9624,-2.9654,-2.9624,-2.9624,-2.9654,-3.0193,-3.0821,-3.1452,0.0,0.0,-3.0522,-3.115,-3.1452,-3.1511,-3.2856,-3.3814,-3.4472,-3.519,-3.5519,-3.5519,-3.5424,-3.5066,-3.4439,-3.3478,-3.2335,-3.1042,-2.9834,-2.8358,-2.6839,0.0,0.0,0.0,0.0,0.0,0.0,0.0,0.0,0.0,0.0,0.0,0.0,0.0,0.0,0.0,0.0,0.0,0.0,0.0,0.0,0.0,0.0,0.0,0.0,0.0,0.0,0.0,0.0,0.0,0.0,0.0,0.0,0.0,-3.9727,-3.8778,-3.9084,-4.2049,-4.1235,-4.0794,-4.1705,-4.2568,-4.3396,-4.4377,-4.5261,-4.6041,-4.6752,-4.6878,-4.7158,-4.7761,-4.9257,-5.0339,-5.0994,-5.2448,-5.3225,-5.3261,-5.3261,-5.3665,-5.4436,-5.4473,-5.4913,-5.5684,-5.6492,-5.6859,-5.6895,-5.7666,-5.7997,-5.7997,-5.7997,-5.7997,-5.7997,-5.7997,-5.8033,-5.8143,-2.337,-2.3191,-2.3071,-2.3071,-2.4029,-2.4926,-2.5285,-2.6452,-2.74,-2.761,-2.8158,-2.8786,-2.9265,-2.9864,-3.0462,-3.0941,-3.0522,-3.0462,-3.0971,-3.115,-3.133,-3.1452,0.0,0.0,-3.0522,-3.0702,-3.127,-3.2258,-3.3095,-3.3814,-3.4472,-3.519,-3.5519,-3.5424,-3.4773,-3.4292,-3.4022,-3.2591,-3.1447,-3.0539,-2.9713,-2.8638,-2.7407,0.0,0.0,0.0,0.0,0.0,0.0,0.0,0.0,0.0,0.0,0.0,0.0,0.0,0.0,0.0,0.0,0.0,0.0,0.0,0.0,0.0,0.0,0.0,0.0,0.0,0.0,0.0,0.0,0.0,0.0,0.0,-3.8542,-3.9077,-4.033,-3.9858,-4.0294,-4.2793,-4.2342,-4.2271,-4.3327,-4.3671,-4.4497,-4.5999,-4.6364,-4.6583,-4.6786,-4.7809,-4.8633,-4.9327,-5.078,-5.187,-5.2565,-5.2993,-5.3482,-5.4069,-5.4069,-5.4473,-5.528,-5.5868,-5.6271,-5.6528,-5.7336,-5.7666,-5.7703,-5.7923,-5.7997,-5.7997,-5.7997,-5.7997,-5.7997,-5.7997,-5.8364,-5.8914,-2.361,-2.34,-2.3281,-2.355,-2.4477,-2.5285,-2.5585,-2.6722,-2.773,-2.7949,-2.8338,-2.8936,-2.9864,-3.0283,-3.0791,-3.1422,-3.115,-3.121,-3.1898,-3.2198,-3.2228,0.0,0.0,-3.148,-3.1749,-3.1749,-3.2557,-3.4173,-3.4562,-3.4951,-3.534,-3.5729,-3.5759,-3.5424,-3.4476,-3.4013,-3.3848,-3.2164,-3.1173,-3.0639,-2.958,-2.866,-2.7816,-2.7354,-2.6892,-2.659,-2.6892,-2.6763,-2.6433,-2.5355,0.0,0.0,0.0,0.0,0.0,0.0,0.0,0.0,0.0,0.0,0.0,0.0,0.0,0.0,0.0,0.0,0.0,0.0,0.0,0.0,0.0,0.0,0.0,0.0,-3.922,-3.9822,-4.1644,-4.0962,-4.1225,-4.3864,-4.3329,-4.332,-4.4814,-4.4665,-4.5277,-4.714,-4.7259,-4.7394,-4.7699,-4.8514,-4.9126,-4.9542,-5.0941,-5.2018,-5.2832,-5.3405,-5.4106,-5.4913,-5.4913,-5.5317,-5.6124,-5.6602,-5.6969,-5.7336,-5.7813,-5.7997,-5.8033,-5.8364,-5.851,-5.8474,0.0,0.0,0.0,0.0,-5.9024,-5.9795,-2.361,-2.3161,-2.2951,-2.352,-2.4238,-2.4881,-2.5431,-2.6673,-2.7829,-2.8383,-2.8554,-2.9086,-3.0372,-3.0492,-3.0791,-3.1422,-3.1482,-3.175,-3.2467,-3.3125,0.0,-3.2527,-3.2587,-3.2886,-3.3484,-3.3574,-3.4562,-3.6477,-3.6477,-3.6477,-3.6477,-3.6477,-3.6118,-3.5424,-3.4312,-3.3808,-3.3739,-3.1829,-3.1044,-3.0917,-2.9579,-2.8699,-2.8197,-2.8197,-2.8499,-2.895,-2.9076,-2.8631,-2.7951,-2.7431,0.0,0.0,0.0,0.0,0.0,0.0,0.0,0.0,0.0,0.0,0.0,0.0,0.0,0.0,0.0,0.0,0.0,0.0,0.0,0.0,0.0,0.0,0.0,0.0,-3.9948,-4.0772,-4.3423,-4.2288,-4.2213,-4.5084,-4.4377,-4.4356,-4.6144,-4.5719,-4.6088,-4.8017,-4.8071,-4.8308,-4.8984,-4.9018,0.0,0.0,0.0,-5.1669,-5.2555,-5.3899,-5.495,-5.5721,-5.5721,-5.6161,-5.6932,-5.7042,-5.7483,-5.8143,-5.8217,-5.8253,-5.8327,-5.9061,-5.9391,-5.9428,-5.8694,-5.84,-5.851,-5.9318,-6.0126,-6.1006,-2.361,-2.352,-2.346,-2.358,-2.4597,-2.5248,-2.4762,-2.6347,-2.7646,-2.7715,-2.8261,-2.9086,-3.0372,-3.0492,-3.0791,-3.1422,-3.1482,-3.175,-3.2467,-3.3125,-3.3215,-3.2527,-3.3036,-3.3365,-3.3484,-3.4023,-3.5011,-3.6477,-3.6477,-3.6477,-3.6477,-3.6477,-3.6118,-3.5424,-3.3671,-3.2876,-3.2735,-3.0846,-3.0062,-3.0062,-2.9731,-2.9277,-2.8775,-2.8775,-2.8825,-2.9051,-2.9955,-2.9591,-2.8622,-2.8336,-2.7561,-2.6599,-2.6567,-2.6758,0.0,0.0,0.0,0.0,0.0,0.0,0.0,0.0,0.0,0.0,0.0,0.0,0.0,0.0,0.0,0.0,0.0,0.0,0.0,-4.2233,-4.1605,-4.2057,-4.5103,-4.4428,-4.4237,-4.5862,-4.5903,-4.6275,-4.7712,-4.7189,-4.755,-4.9535,-4.912,-4.8849,-4.8984,-4.9018,-4.9562,-5.0769,-5.161,-5.2695,-5.4029,-5.4921,-5.5757,-5.6565,-5.6565,0.0,-5.7776,-5.8437,-5.8841,-5.9024,-5.9648,-5.9942,-5.9942,-6.0126,-6.0566,-6.1117,-6.097,-6.0896,-6.1006,-6.1814,-6.2658,-6.3429,-2.361,-2.361,-2.361,-2.361,-2.4448,-2.5086,-2.5051,-2.6228,-2.7339,-2.7954,-2.807,-2.8577,-2.9894,-2.9744,-3.0103,-3.1362,-3.2138,-3.2527,0.0,-3.2826,-3.2856,-3.2527,-3.3155,-3.3963,-3.4981,-3.5609,-3.6596,-3.7943,-3.7943,-3.7793,-3.7434,-3.7105,-3.6596,-3.5902,-3.3605,-3.2593,-3.2451,-3.057,-2.9804,-2.9804,-2.9804,-2.9779,-2.9779,-2.9779,-3.0105,-3.0658,-3.121,-3.0519,-2.9347,-2.933,-2.8497,-2.7462,-2.7648,-2.7793,-2.7466,0.0,0.0,0.0,0.0,0.0,0.0,0.0,0.0,0.0,0.0,0.0,0.0,0.0,0.0,-3.7126,-3.7219,0.0,-4.2333,-4.2886,-4.2283,-4.2751,-4.5649,-4.531,-4.5391,-4.7138,-4.6741,-4.6945,-4.8636,-4.8189,-4.8562,-5.0514,-5.0304,-5.0101,-5.0101,-5.0101,-5.0459,-5.1172,-5.2306,-5.3371,-5.4561,-5.5665,-5.6822,-5.7997,-5.7997,-5.8437,-5.9208,-5.9612,-5.9795,-5.9832,-6.0236,-6.0419,-6.0419,-6.0823,-6.1741,-6.2879,-6.3282,-6.3209,-6.2879,-6.3282,-6.398,-6.4751,-2.361,-2.361,-2.361,-2.361,-2.4178,-2.4716,-2.5129,-2.5968,-2.6971,-2.8062,-2.7867,-2.812,-2.9445,-2.8996,-2.9325,-3.118,-3.2407,-3.2886,0.0,-3.2317,-3.2377,-3.2497,-3.3275,-3.4562,-3.6447,-3.7225,-3.8182,-3.9409,-3.9409,-3.8979,-3.808,-3.7426,-3.6704,-3.5781,-3.3395,-3.2307,-3.2263,-3.0495,-2.9804,-2.9804,-2.9905,-3.0281,-3.0783,-3.0884,-3.1461,-3.224,-3.234,-3.1376,-3.0041,-3.0153,-2.9337,-2.834,-2.8594,-2.8668,-2.8314,-2.6236,-2.527,0.0,0.0,0.0,0.0,0.0,0.0,0.0,0.0,0.0,-2.9733,-3.2306,-3.5328,-3.7643,-3.7686,-4.0307,-4.265,-4.3112,-4.276,-4.3367,-4.5997,-4.5851,-4.6276,-4.8417,-4.7519,-4.7402,-4.9337,-4.8925,-4.931,-5.129,-5.1285,-5.1217,-5.1217,-5.1217,-5.1285,-5.142,-5.2846,-5.4115,-5.5036,-5.6539,-5.7997,-5.9428,-5.9428,-5.9795,-6.0419,-6.0713,-6.086,-6.086,-6.086,-6.086,-6.0933,-6.1557,-6.2645,-6.392,-6.4725,-6.4725,-6.4375,-6.4662,-6.5191,-6.5852,-2.361,-2.361,-2.361,-2.361,-2.4178,-2.44,-2.3826,-2.5383,-2.6644,-2.6736,-2.7233,-2.812,-2.9445,-2.8996,-2.9146,-3.0492,-3.13,0.0,-3.1659,-3.1571,-3.1898,-3.2497,-3.3694,-3.504,-3.6447,-3.7674,-3.8661,-3.9409,-3.9409,-3.8588,-3.6982,-3.6418,-3.5282,-3.3695,-3.2071,-3.1389,-3.1315,-3.0216,-2.9804,-2.9829,-3.0331,-3.0834,-3.1361,-3.1838,-3.2114,-3.229,-3.2792,-3.1687,-3.0086,-3.0437,-2.961,-2.8496,-2.9629,-2.907,-2.7804,-2.7092,-2.5771,-2.4198,-2.2791,-2.2766,-2.3126,-2.2913,-2.4271,-2.6073,0.0,0.0,-3.0974,-3.2498,-3.4126,-3.5926,-3.7926,-3.9709,-4.145,-4.3387,-4.3664,-4.4395,-4.6654,-4.6385,-4.6968,-4.9634,-4.8865,-4.8621,-5.0101,-4.9629,-5.0026,-5.2032,-5.1589,-5.1217,-5.1217,-5.1217,-5.1522,-5.2164,-5.3707,-5.5178,-5.6631,-5.8173,-5.9391,-6.0272,-6.0272,-6.0309,-6.0456,-6.1887,-6.2548,-6.2548,-6.2548,-6.2548,-6.2548,-6.2658,-6.2777,-6.3016,-6.3832,-6.452,-6.5286,-6.6738,-6.7357,-6.743,-2.361,-2.361,-2.3493,-2.3143,-2.3288,-2.3518,-2.3587,-2.4324,-2.5128,-2.5914,-2.6213,-2.6857,-2.8286,-2.8876,-2.9385,-2.9924,-3.127,-3.1928,-3.1511,-3.1898,-3.2407,-3.3066,-3.3963,-3.528,-3.6985,-3.7913,-3.8721,-3.9409,-3.9409,-3.9043,-3.8252,-3.6765,-3.5597,-3.4808,-3.2307,-3.1167,-3.1119,-3.0216,-2.9804,-2.9854,-3.0382,-3.0934,-3.1461,-3.2014,-3.2215,-3.2206,-3.2043,-3.1293,0.0,-3.0067,-2.9621,-2.9219,-3.0273,-2.9385,-2.7878,-2.7327,-2.5675,-2.3866,-2.2685,-2.2726,-2.3073,-2.3113,-2.4701,-2.6527,-2.8174,-3.0183,-3.2111,-3.2961,-3.5396,-3.7473,-3.8223,-4.0597,-4.2905,-4.4077,-4.4016,-4.4652,-4.7257,-4.7094,-4.7503,-4.9872,-4.9763,-4.9961,-5.1518,-5.0973,-5.1424,-5.3483,-5.2976,-5.2536,-5.2536,-5.2942,-5.3315,-5.3619,-5.507,-5.642,-5.7565,-5.87,-6.0063,-6.1814,-6.1251,-6.1313,-6.1822,-6.2476,-6.2761,-6.2805,-6.2805,-6.2515,-6.2112,-6.2585,-6.2759,-6.2806,-6.3555,-6.4341,-6.5144,-6.5953,-6.6847,-6.7687,-2.361,-2.348,-2.3187,-2.2785,-2.242,-2.247,-2.3299,-2.3371,-2.3789,-2.5121,-2.5089,-2.5374,-2.6623,-2.793,-2.8723,-2.8723,-3.0334,-3.1338,-3.1219,-3.1841,-3.2706,-3.3724,-3.4412,-3.5519,-3.7135,-3.7793,-3.8362,-3.8871,-3.8555,-3.8309,-3.7989,-3.5955,-3.4759,-3.4409,-3.1915,-3.082,-3.0771,-3.0062,-2.9804,-2.9854,-3.0382,-3.0934,-3.1436,-3.1838,-3.2089,-3.2122,-3.1553,-3.0997,-3.0378,-2.9727,-2.9525,-2.9707,-3.0449,-2.963,-2.8371,-2.8032,-2.6296,-2.4203,-2.3052,-2.2953,0.0,-2.4066,-2.5331,-2.7015,-2.9443,-3.1318,-3.2808,-3.3444,-3.5789,-3.7863,-3.8313,-4.0646,-4.283,-4.4202,-4.4192,-4.4873,-4.719,-4.7553,-4.8274,-5.0199,-5.059,-5.1333,-5.2744,-5.222,-5.2442,-5.4313,-5.426,-5.4126,-5.4126,-5.46,-5.4905,-5.4905,-5.6159,-5.7416,-5.8733,-5.9486,-6.0972,-6.3085,-6.2259,-6.2047,-6.2413,-6.2413,-6.2413,-6.2457,-6.2238,-6.1806,-6.13,-6.209,-6.2256,-6.2164,-6.3084,-6.3823,-6.4344,-6.4429,-6.5671,-6.7258,-2.361,-2.3143,-2.2694,-2.2694,-2.169,-2.1286,-2.254,-2.2724,-2.3146,-2.4361,-2.4047,-2.3993,-2.4524,-2.5744,-2.6495,-2.6495,-2.7769,-2.9059,-3.0363,-3.1102,-3.2437,-3.4352,-3.51,-3.5789,-3.6507,-3.7135,-3.7434,-3.7464,-3.657,-3.5581,-3.4519,-3.3041,-3.1733,-3.0767,-3.0108,-2.9856,-2.9856,-2.9804,-2.9804,-2.9854,-3.0382,-3.0934,-3.1386,-3.1411,-3.1738,-3.2172,-3.1985,-3.1067,-2.984,-2.9621,-2.9525,-2.9648,-3.0078,-2.971,-2.9148,-2.9941,-2.8081,-2.5628,-2.42,-2.3741,-2.4154,-2.607,-2.6474,-2.757,-3.1155,-3.2421,-3.29,-3.383,-3.4505,-3.5537,-3.7802,-3.8747,-4.0167,-4.3333,-4.4267,-4.5145,-4.6514,-4.8002,-4.9392,-5.08,-5.1709,-5.2571,-5.374,-5.2997,-5.2921,-5.3922,-5.5013,-5.5649,-5.5649,-5.5683,-5.5683,-5.5683,-5.6368,-5.8002,-6.0387,-6.1157,-6.2326,-6.3877,-6.312,-6.2319,-6.153,-6.1592,-6.1654,-6.1583,-6.0777,-6.0458,-6.0468,-6.1246,-6.1055,-6.0565,-6.2057,-6.2647,-6.2647,-6.2717,-6.4182,-6.6026,-2.4268,-2.3421,-2.2558,-2.2086,-2.1355,-2.0944,-2.1382,-2.1372,-2.1667,-2.2573,-2.3592,0.0,0.0,0.0,0.0,0.0,-2.6945,-2.7708,-2.7736,-3.0071,-3.1775,-3.242,-3.3951,-3.534,-3.6477,-3.6084,-3.6003,-3.6512,-3.5552,-3.4892,-3.4491,-3.2509,-3.1408,-3.1005,-2.9352,-2.8674,-2.8674,-2.8674,-2.8875,-2.9277,-2.9854,-3.0382,-3.0909,-3.126,-3.1286,-3.1091,0.0,-2.9827,-2.9427,-2.9133,-2.908,-2.9258,-2.9961,-2.9761,-2.935,-2.9223,-2.8675,-2.7995,-2.757,-2.7324,-2.7601,-2.8138,-2.9556,-3.0977,-3.2241,-3.3811,-3.4854,-3.4537,-3.6588,-3.8503,-3.8653,-4.0927,-4.3105,-4.4111,-4.4192,-4.4738,-4.6514,-4.7703,-4.9001,-5.0829,-5.2151,-5.3038,-5.3391,-5.3271,-5.3584,-5.4602,-5.5347,-5.5716,-5.5716,-5.663,-5.7171,-5.7171,-5.8341,-5.9699,-6.1078,-6.0849,-6.1545,-6.3101,-6.1793,-6.1055,-6.066,-6.0167,-6.0282,-6.0786,-6.0538,-6.0403,-6.0346,-6.1113,-6.1223,-6.104,-6.207,-6.248,-6.2412,-6.1934,-6.2836,-6.4387,0.0,-2.3565,-2.2498,-2.18,-2.1,0.0,0.0,0.0,0.0,0.0,0.0,0.0,0.0,0.0,0.0,0.0,0.0,-2.6253,-2.6308,-2.8609,-3.0225,-3.0911,-3.2391,-3.3725,-3.4806,-3.4393,-3.437,-3.4797,-3.3854,-3.341,-3.3336,-3.1611,-3.0771,-3.0719,-2.9073,-2.8398,-2.8373,-2.8197,-2.8549,-2.9227,-2.9202,-2.988,-3.0859,-3.0608,-3.0294,0.0,0.0,-2.8634,-2.8077,-2.8131,-2.8461,-2.9023,-2.957,-3.0214,-3.0516,-2.9709,-2.9798,-3.0038,-2.9207,-2.9137,-2.9373,-3.0055,-3.1454,-3.2884,-3.3731,-3.4967,-3.5762,-3.4883,-3.7182,-3.9374,-3.902,-4.1401,-4.3721,-4.4753,-4.4468,-4.4611,-4.6036,-4.762,-4.9042,-5.0077,-5.1795,-5.2815,-5.2815,-5.309,-5.3975,-5.5523,-5.6249,-5.6801,-5.7273,-5.8152,-5.8558,-5.8287,-5.9201,-6.012,-6.1051,-6.0566,-6.1011,-6.2244,-6.0947,-6.0249,-6.0215,-5.9734,-5.9737,-6.0279,-6.0279,-6.0393,-6.0731,-6.1414,-6.1866,-6.2178,-6.2888,-6.3024,-6.2753,-6.2279,-6.2516,-6.3182,0.0,0.0,-2.2456,0.0,0.0,0.0,0.0,0.0,0.0,0.0,0.0,0.0,0.0,0.0,0.0,0.0,0.0,0.0,-2.5993,-2.6827,0.0,-2.985,-3.0609,-3.1249,-3.1764,-3.2206,-3.2439,-3.2439,-3.1556,-3.1066,-3.1066,-3.0165,-2.9729,-2.9679,-2.9101,-2.8825,-2.8775,-2.8247,-2.8649,-2.9578,-2.8499,-2.9352,-3.1085,-2.9528,0.0,0.0,0.0,0.0,-2.6285,-2.6824,-2.7793,-2.8906,-2.9043,-3.0781,-3.2459,-3.1176,-3.133,-3.1568,-2.9463,-2.9227,-2.9919,-3.1729,-3.2593,-3.3403,-3.5491,-3.5996,-3.5742,-3.4902,-3.6445,-3.8231,-3.8987,-4.0453,-4.2466,-4.506,-4.4945,-4.4744,-4.5321,-4.7894,-4.9417,-4.9,-5.0975,-5.2306,-5.2366,-5.2734,-5.409,-5.6527,-5.7604,-5.8681,-5.9827,-6.0013,-5.9708,-5.9032,-5.9099,-5.9507,-6.0427,-6.0427,-6.0774,-6.1397,-6.0495,-6.0114,-6.0114,-6.0114,-6.0114,-6.0114,-6.0114,-6.0588,-6.14,-6.211,-6.2854,-6.3632,-6.4343,-6.4174,-6.3565,-6.3565,-6.3125,-6.2482,0.0,0.0,0.0,0.0,0.0,0.0,0.0,0.0,0.0,0.0,0.0,0.0,0.0,0.0,0.0,0.0,0.0,0.0,-2.3866,-2.5493,0.0,0.0,0.0,0.0,0.0,0.0,0.0,0.0,-2.9766,-2.9478,-2.9478,-2.9202,-2.8925,-2.8524,-2.7946,-2.7469,-2.7067,-2.6942,-2.7293,-2.7896,0.0,-2.8323,-2.9503,0.0,0.0,0.0,0.0,0.0,0.0,-2.7045,-2.7623,-2.8789,-3.0723,-3.1797,-3.2338,-3.2681,-3.2791,-3.3001,-3.2803,-3.3012,-3.3539,-3.4299,-3.4835,-3.5316,-3.586,-3.5781,-3.5488,-3.5273,-3.744,-3.9516,-4.0486,-4.2018,-4.3681,-4.5296,-4.4317,-4.3589,-4.4166,-4.6671,-4.883,-4.9578,0.0,-5.3892,-5.4371,-5.4548,-5.5298,-5.6809,-5.6796,-5.6843,-5.7188,-5.8556,-5.9201,-5.9032,-6.0114,-6.0842,-6.1034,-6.1034,-6.083,-6.0421,-6.0231,-6.0114,-6.0114,-6.0114,-6.0114,-6.0114,-6.0114,-6.0858,-6.211,-6.2313,-6.3159,-6.4343,-6.4546,-6.4478,-6.4343,-6.4343,-6.4208,-6.3971,0.0,0.0,0.0,0.0,0.0,0.0,0.0,0.0,0.0,0.0,0.0,0.0,0.0,0.0,0.0,0.0,0.0,0.0,0.0,-2.4166,0.0,0.0,0.0,0.0,0.0,0.0,0.0,0.0,0.0,0.0,-2.9302,-2.9051,-2.8775,-2.8448,-2.7896,-2.7105,-2.6205,-2.5984,0.0,0.0,0.0,0.0,0.0,0.0,0.0,0.0,0.0,0.0,0.0,0.0,0.0,-3.0701,-3.2194,-3.3489,-3.4362,-3.3943,-3.4346,-3.4579,-3.4024,-3.4238,-3.4766,-3.5019,-3.543,-3.5742,-3.5742,-3.5566,-3.5658,-3.6395,-3.7992,-3.9809,-4.1788,-4.2782,-4.3949,0.0,0.0,0.0,-4.4493,-4.6461,-4.8192,0.0,-5.1477,-5.3166,-5.4251,-5.4311,-5.4578,-5.5267,-5.6606,-5.7543,-5.8115,-5.9644,-6.0351,-6.0047,-6.0858,-6.1129,-6.0791,-6.0757,-6.0723,-6.0622,-6.0622,-6.0791,-6.1095,-6.1095,-6.1095,-6.1129,-6.1467,-6.2279,-6.3396,-6.37,-6.4512,-6.5561,-6.5561,-6.5358,-6.5087,-6.5087,-6.4884,-6.4546,0.0,0.0,0.0,0.0,0.0,0.0,0.0,0.0,0.0,0.0,0.0,0.0,0.0,0.0,0.0,0.0,0.0,0.0,0.0,0.0,0.0,0.0,0.0,0.0,0.0,0.0,0.0,0.0,0.0,0.0,0.0,0.0,0.0,0.0,0.0,0.0,0.0,0.0,0.0,0.0,0.0,0.0,0.0,0.0,0.0,0.0,0.0,0.0,0.0,0.0,-3.2163,-3.3257,-3.3612,-3.525,-3.6889,-3.55,-3.5834,-3.6373,-3.4564,-3.4576,-3.508,-3.508,-3.5093,-3.5387,-3.5618,-3.5692,-3.603,-3.7707,-3.835,-3.9628,-4.2444,-4.2871,-4.3553,-4.596,0.0,-4.5372,-4.5372,-4.6553,-4.7681,-4.8653,-5.0199,-5.1759,-5.302,-5.3405,-5.3533,-5.3443,-5.6591,-5.8895,-5.9781,-6.1098,-6.1683,-6.1332,-6.1298,-6.1028,-6.0419,-6.0419,-6.0757,-6.1467,-6.1467,-6.1772,-6.2381,-6.2381,-6.2448,-6.2584,-6.3226,-6.3971,-6.4783,-6.5425,-6.6136,-6.6812,-6.6812,-6.6406,-6.5831,-6.5831,-6.5425,-6.4884,0.0,0.0,0.0,0.0,0.0,0.0,0.0,0.0,0.0,0.0,-2.3201,-2.31,0.0,0.0,0.0,0.0,0.0,0.0,0.0,0.0,0.0,0.0,0.0,0.0,0.0,0.0,0.0,0.0,0.0,0.0,0.0,0.0,0.0,0.0,0.0,0.0,0.0,0.0,0.0,0.0,0.0,0.0,0.0,0.0,0.0,0.0,0.0,0.0,0.0,0.0,-3.1476,-3.3429,-3.4958,-3.5847,-3.6498,-3.7501,-3.7896,-3.8043,-3.8011,-3.7399,-3.6829,-3.6701,-3.5509,-3.4863,-3.6979,-3.6933,-3.6853,-3.8241,-3.9066,-4.0056,-4.1836,-4.2172,-4.312,-4.5885,-4.5447,-4.4769,-4.4769,-4.5959,-4.7054,-4.7787,-5.0677,-5.2751,-5.2961,-5.4657,-5.5418,-5.488,-5.6419,-5.6871,-5.59,-5.791,-5.9685,-6.1298,-6.1298,-6.1535,-6.1975,-6.1975,-6.2076,-6.2212,-6.2212,-6.2279,-6.2381,-6.2381,-6.2719,-6.3328,-6.3463,-6.4275,-6.5493,-6.5628,-6.6136,-6.6812,-6.6812,-6.6745,-6.6609,-6.6609,-6.6542,-6.6339,0.0,0.0,0.0,0.0,0.0,0.0,0.0,-2.3376,-2.3803,-2.5485,-2.5209,-2.4757,-2.4456,-2.4406,-2.428,0.0,0.0,0.0,0.0,0.0,0.0,0.0,0.0,0.0,0.0,0.0,0.0,0.0,0.0,0.0,0.0,0.0,0.0,0.0,0.0,0.0,0.0,0.0,0.0,0.0,0.0,0.0,0.0,0.0,0.0,0.0,0.0,0.0,0.0,0.0,-3.3545,-3.5812,-3.6587,-3.7778,-3.888,-3.9195,-3.9616,-3.989,-3.9552,-3.9007,-3.8559,-3.8456,-3.7292,-3.6579,-3.801,-3.787,-3.8008,-4.036,-4.0397,-4.0876,-4.3671,-4.3493,-4.3746,-4.6334,-4.605,-4.5598,-4.5899,-4.6467,-4.7341,-4.839,-5.1068,-5.3015,-5.3834,-5.5571,-5.6526,-5.6196,-5.6718,-5.6708,-5.5998,-5.8226,-6.0421,-6.2336,-6.2448,-6.2821,-6.3531,-6.3531,-6.3531,-6.3531,-6.3159,-6.2956,-6.2956,-6.2956,-6.3362,-6.4106,-6.4478,-6.5493,-6.6846,-6.6846,-6.7286,-6.7963,-6.7557,-6.7387,-6.7387,-6.7387,-6.7151,-6.6812,0.0,0.0,0.0,0.0,0.0,0.0,0.0,-2.4456,-2.4933,-2.7017,-2.6791,-2.6214,-2.5586,-2.5034,-2.4732,0.0,0.0,0.0,0.0,0.0,0.0,0.0,0.0,0.0,0.0,0.0,0.0,0.0,0.0,0.0,0.0,0.0,0.0,0.0,0.0,0.0,0.0,0.0,0.0,0.0,0.0,0.0,0.0,0.0,0.0,0.0,0.0,0.0,0.0,0.0,-3.5624,-3.7967,-3.799,-3.9382,-4.1089,-4.0707,-4.1239,-4.1731,-4.1131,-4.0632,-4.0432,-4.0082,-3.9025,-3.8223,-3.919,-3.8971,-3.9231,-4.2225,-4.1816,-4.183,-4.5183,-4.462,-4.4443,0.0,-4.6928,-4.6853,-4.7405,-4.7481,-4.7897,-4.8875,-5.0954,-5.2761,-5.4144,-5.585,-5.6898,-5.7094,-5.7094,-5.7202,-5.7391,-5.9499,-6.1513,-6.3262,-6.3573,-6.4005,-6.458,-6.4613,-6.4613,-6.458,-6.4005,-6.3768,-6.3768,-6.3903,-6.4377,-6.5121,-6.5831,-6.6914,-6.8166,-6.8166,-6.8538,-6.9045,-6.8402,-6.8166,-6.8166,-6.8166,-6.7793,-6.7387,0.0,0.0,0.0,0.0,0.0,0.0,0.0,-2.4782,-2.536,-2.7067,-2.6791,-2.6791,-2.7695,-2.7318,-2.6389,0.0,0.0,0.0,0.0,0.0,0.0,0.0,0.0,0.0,0.0,0.0,0.0,0.0,0.0,0.0,0.0,0.0,0.0,0.0,0.0,0.0,0.0,0.0,0.0,0.0,0.0,0.0,0.0,0.0,0.0,0.0,0.0,0.0,0.0,0.0,0.0,-3.8115,-3.8642,-3.9594,-4.0902,-4.2323,0.0,0.0,-4.4095,-4.3503,-4.2539,-4.1448,-3.9474,-3.829,-4.0669,-4.05,-4.0358,-4.2518,-4.2824,-4.2966,-4.376,-4.3855,0.0,0.0,0.0,-4.7958,-4.8535,-4.8611,-4.8536,-4.8131,-4.9967,-5.1642,-5.2678,-5.4656,-5.6129,-5.7019,-5.7094,-5.7626,-5.8622,-6.0139,-6.1465,-6.2748,-6.3869,-6.4546,-6.4613,-6.4613,-6.4613,-6.4613,-6.4546,-6.4512,-6.4512,-6.5189,-6.5899,-6.6643,-6.7387,-6.8199,-6.8977,-6.8977,-6.9045,-6.9079,-6.9011,-6.8977,-6.8977,-6.8977,-6.8944,-6.891,0.0,0.0,0.0,0.0,0.0,0.0,-2.4707,-2.5385,-2.6289,-2.7595,-2.7871,-2.8122,-2.8549,-2.8398,-2.7745,-2.6414,0.0,0.0,0.0,0.0,0.0,0.0,0.0,0.0,0.0,0.0,0.0,0.0,0.0,0.0,0.0,0.0,0.0,0.0,0.0,0.0,0.0,0.0,0.0,0.0,0.0,0.0,0.0,0.0,0.0,0.0,0.0,0.0,-3.3217,0.0,0.0,0.0,-3.8592,-3.9396,0.0,0.0,-4.261,-4.3413,-4.3991,-4.4053,-4.3782,-4.302,-4.1776,-4.1112,-4.2119,-4.1766,-4.1755,-4.3167,-4.3462,-4.3733,-4.4618,-4.506,0.0,0.0,0.0,0.0,-4.964,-4.9766,-4.9665,-4.9439,-5.1353,-5.2819,-5.3171,-5.5771,-5.8143,-5.9976,-6.0475,-6.0907,-6.1395,-6.0338,-6.0771,-6.3298,-6.3856,-6.4723,-6.5933,-6.5933,-6.5933,-6.5933,-6.5459,-6.5493,-6.5933,-6.6237,-6.7049,-6.8199,-6.8504,-6.9316,-7.0398,-6.9958,-7.0026,-7.0398,-6.9925,-6.9755,-6.9755,-6.9755,-6.9485,-6.9147,0.0,0.0,0.0,0.0,0.0,-2.428,-2.5184,-2.6113,-2.7092,-2.8197,-2.8825,-2.9176,-2.9176,-2.9176,-2.88,-2.7846,-2.7469,0.0,0.0,0.0,0.0,0.0,0.0,0.0,0.0,0.0,-2.649,-2.7042,-2.6063,0.0,0.0,0.0,0.0,0.0,0.0,0.0,0.0,0.0,0.0,0.0,0.0,0.0,0.0,0.0,0.0,0.0,0.0,0.0,0.0,0.0,0.0,0.0,0.0,0.0,0.0,0.0,-4.1756,-4.2635,-4.3363,-4.3966,-4.4292,-4.389,-4.3388,-4.2986,-4.2986,-4.2559,-4.2459,-4.3564,-4.394,-4.4392,-4.5522,-4.6175,0.0,0.0,0.0,-4.9715,-5.0971,-5.1172,-5.1172,-5.1172,0.0,-5.3609,-5.4103,-5.7076,-6.0004,-6.2216,-6.281,-6.3079,-6.3079,-6.12,-6.1333,-6.3738,-6.424,-6.5049,-6.6191,-6.6698,-6.6872,-6.6872,-6.6745,-6.6981,-6.7489,-6.7726,-6.8402,-6.9451,-6.9654,-7.0364,-7.1278,-7.0737,-7.0838,-7.1278,-7.0737,-7.0288,-6.9894,-6.9894,-6.9419,-6.8944,0.0,0.0,0.0,0.0,0.0,0.0,-2.6257,-2.6917,-2.767,-2.8775,-2.9428,-2.9779,-2.9779,-2.9779,-2.9553,-2.8976,-2.7921,0.0,0.0,0.0,0.0,0.0,0.0,0.0,0.0,0.0,-2.5887,-2.6533,-2.5887,-2.6163,-2.7268,-2.7268,-2.7268,0.0,0.0,0.0,0.0,0.0,0.0,0.0,0.0,0.0,0.0,0.0,0.0,0.0,0.0,0.0,0.0,0.0,0.0,0.0,0.0,-3.7965,-3.9094,-4.0199,-4.0927,-4.1605,-4.2685,-4.3388,-4.3815,-4.379,-4.3388,-4.2986,-4.2986,-4.2559,-4.2459,-4.3564,-4.4242,-4.497,-4.61,-4.6753,-4.7832,-5.0042,0.0,0.0,-5.2678,-5.2904,-5.2904,0.0,-5.2904,-5.3538,-5.5075,-5.8355,-6.1139,-6.2933,-6.3079,-6.3079,-6.3079,-6.3049,-6.3313,-6.398,-6.5258,-6.5523,-6.4921,-6.6318,-6.7043,-6.7043,-6.8361,-6.9079,-6.9113,-6.9823,-7.0161,-7.0229,-7.0973,-7.1312,-7.1312,-7.1312,-7.1312,-7.1312,-7.1312,-7.0448,-6.9184,-6.9184,-6.8761,-6.8252,0.0,0.0,0.0,0.0,0.0,0.0,0.0,-2.6666,-2.7394,-2.777,-2.8624,-2.9202,-2.9202,-2.9553,-2.9553,-2.8976,-2.8273,0.0,0.0,0.0,0.0,0.0,0.0,0.0,0.0,0.0,-2.7017,-2.7595,-2.7394,-2.7494,-2.7846,-2.7846,-2.7482,-2.6771,0.0,0.0,0.0,0.0,0.0,0.0,0.0,0.0,0.0,0.0,0.0,0.0,0.0,0.0,0.0,0.0,0.0,0.0,0.0,0.0,0.0,-3.9295,-4.0049,-4.0852,-4.1204,-4.2233,-4.3162,-4.276,-4.3112,-4.3438,-4.3062,-4.2836,-4.2911,-4.3639,-4.394,-4.4518,-4.6024,-4.6753,-4.7857,-5.0067,-5.1071,0.0,0.0,0.0,0.0,-5.3457,-5.3457,-5.425,-5.6337,-5.9084,-6.1402,-6.3117,-6.484,-6.5742,-6.5742,-6.5742,-6.546,-6.4676,-6.5125,-6.5607,-6.6288,-6.6694,-6.7166,-6.7706,-6.8115,-6.8918,-6.9857,-7.0094,-7.0466,-7.0973,-7.121,-7.0791,-6.9822,-6.9822,-6.9313,-6.8503,-6.8503,-6.8206,-6.7838,-6.8355,-6.837,-6.8243,0.0,0.0,0.0,0.0,0.0,0.0,0.0,-2.6866,-2.7595,-2.7595,-2.8574,-2.9252,-2.9252,-2.9578,-2.9654,-2.9277,-2.875,0.0,0.0,0.0,0.0,0.0,0.0,0.0,0.0,-2.7293,-2.7544,-2.8097,-2.8097,-2.8222,-2.8423,-2.8423,-2.8027,-2.7403,-2.7403,-2.6771,0.0,0.0,0.0,0.0,0.0,0.0,-3.1255,0.0,0.0,0.0,0.0,0.0,0.0,0.0,0.0,0.0,0.0,0.0,0.0,0.0,-3.9346,-4.0249,-4.045,-4.1254,-4.2057,-4.2133,-4.266,-4.3137,-4.3011,-4.3137,-4.3388,-4.374,-4.4292,-4.5121,-4.6401,-4.7405,-4.8711,-5.072,-5.1825,-5.2804,0.0,0.0,0.0,-5.4612,-5.5013,-5.6081,-5.8202,-6.043,-6.2424,-6.3823,-6.6037,-6.7238,-6.6999,-6.6999,-6.6553,-6.5765,-6.546,-6.5637,-6.6184,-6.6695,-6.7218,-6.7733,-6.8204,-6.8961,-6.9765,-6.9765,-7.003,-7.0461,-7.0461,-6.9876,0.0,-6.8795,-6.8133,-6.7196,-6.7484,-6.7269,-6.687,-6.785,-6.7951,-6.7821,0.0,0.0,0.0,0.0,0.0,0.0,0.0,-2.7394,-2.8072,-2.8097,-2.9051,-2.9729,-2.9729,-2.9754,-2.9804,-2.9804,0.0,0.0,0.0,0.0,0.0,0.0,0.0,0.0,0.0,-2.7369,-2.767,-2.8222,-2.8273,-2.8574,-2.9101,-2.9101,-2.9025,-2.895,-2.89,-2.8292,0.0,0.0,0.0,0.0,-2.9148,-2.9784,0.0,0.0,0.0,0.0,0.0,0.0,0.0,0.0,0.0,0.0,0.0,0.0,0.0,0.0,0.0,0.0,0.0,-4.0475,-4.0777,-4.1831,-4.2133,-4.2308,-4.2861,-4.3413,0.0,-4.384,-4.5171,-4.6502,-4.7129,-4.856,-5.0218,-5.1875,-5.2653,-5.3406,0.0,-5.4587,0.0,0.0,-5.7198,-5.8574,-6.0315,-6.2188,-6.3855,-6.4925,-6.6951,-6.7777,-6.7178,-6.7089,-6.7059,-6.7059,-6.643,-6.5772,-6.5173,-6.646,-6.7167,-6.7218,-6.8482,-6.9095,-6.9138,-6.9138,-6.9138,-6.9138,-6.9138,-6.8681,-6.8138,-6.8138,-6.7724,-6.7078,-6.7778,-6.7211,-6.622,-6.7579,-6.76,-6.7148,0.0,0.0,0.0,0.0,0.0,0.0,0.0,0.0,0.0,0.0,-2.8699,-2.9126,-2.9126,-2.9528,-2.9804,0.0,0.0,0.0,0.0,0.0,0.0,0.0,0.0,0.0,-2.7921,-2.8323,-2.8825,-2.9402,-2.9829,-3.0306,-3.0809,-3.0809,-3.0381,-2.9542,-2.9108,-2.8539,0.0,0.0,0.0,0.0,-3.1283,-3.2117,0.0,0.0,0.0,0.0,-3.3341,-3.3083,0.0,0.0,0.0,0.0,0.0,0.0,0.0,0.0,-3.8165,-3.9195,-3.9747,0.0,-4.0676,-4.1354,-4.1856,-4.2308,0.0,-4.3413,-4.3915,0.0,0.0,0.0,-4.8134,-4.9389,-5.077,-5.2452,-5.3557,-5.426,-5.4536,-5.4938,0.0,-5.6721,-5.7072,-5.7724,-5.9008,-6.1747,-6.3474,-6.3747,-6.6925,-6.8704,-6.8525,-6.8016,-6.7747,-6.7747,-6.7089,-6.67,-6.652,-6.6854,-6.7269,-6.7848,-6.8158,-6.8627,-6.9138,-6.9138,-6.9138,-6.9138,-6.9138,-6.8432,-6.7354,-6.7354,-6.6622,-6.5535,-6.5687,-6.5849,-6.607,-6.6884,-6.7516,-6.7837,0.0,0.0,0.0,0.0,0.0,0.0,0.0,0.0,0.0,0.0,0.0,0.0,0.0,0.0,0.0,0.0,0.0,0.0,0.0,0.0,0.0,0.0,0.0,0.0,-2.8473,-2.9026,-2.9603,-3.0181,-3.0708,-3.111,-3.1386,-3.1386,-3.1141,-3.0514,-3.022,-2.9576,0.0,0.0,0.0,-2.9833,-3.1734,0.0,0.0,0.0,0.0,0.0,-3.4274,-3.3746,0.0,-3.3068,-3.3269,-3.352,0.0,0.0,0.0,0.0,-3.7965,-3.932,-3.9622,-3.9898,-4.0325,-4.1128,-4.1555,-4.2057,-4.3112,-4.379,-4.4418,0.0,-4.6476,0.0,0.0,-4.9711,-5.0703,-5.3268,-5.3428,0.0,0.0,0.0,-5.7148,-5.7725,-5.8227,-5.8679,-5.9031,-6.1501,-6.315,-6.3693,-6.6481,-6.8318,-6.9004,-6.8645,-6.8435,-6.8435,-6.8106,-6.7627,-6.6999,-6.6999,-6.7155,-6.757,-6.757,-6.7795,-6.8168,-6.8168,-6.8168,-6.8168,-6.8168,-6.7588,-6.6534,-6.6534,-6.5944,-6.5084,-6.5682,-6.6131,-6.661,-6.7897,-6.8585,-6.8974,0.0,0.0,0.0,0.0,0.0,0.0,0.0,0.0,0.0,0.0,0.0,0.0,0.0,0.0,0.0,0.0,0.0,0.0,0.0,0.0,0.0,0.0,0.0,-2.8624,-2.9176,-2.9679,-3.0231,-3.0859,-3.1311,-3.1562,-3.1637,-3.1637,-3.1587,-3.1512,-3.1347,-3.0695,0.0,0.0,-2.9526,-2.8562,-3.1754,0.0,0.0,0.0,0.0,0.0,0.0,0.0,0.0,-3.3068,-3.3144,-3.3194,-3.3194,0.0,0.0,0.0,0.0,0.0,-3.9772,-3.9747,-3.9948,-4.1078,-4.1455,-4.2007,-4.3564,0.0,0.0,0.0,0.0,0.0,0.0,-4.9438,0.0,0.0,0.0,0.0,-5.6054,-5.7775,-5.8679,-5.893,-5.9684,-6.0085,-5.9784,-6.1344,-6.2885,-6.4186,-6.6134,-6.7874,-6.9176,-6.9213,-6.9153,-6.9153,-6.9064,-6.8465,-6.7298,-6.7178,-6.7148,-6.7148,-6.7029,-6.6999,-6.6999,-6.6999,-6.6999,-6.6999,-6.6999,-6.667,-6.6161,-6.6161,-6.5892,-6.5592,-6.67,-6.7268,-6.7657,-6.9363,-7.0051,-7.0201,0.0,0.0,0.0,0.0,0.0,0.0,0.0,0.0,0.0,0.0,0.0,0.0,0.0,0.0,0.0,0.0,0.0,0.0,0.0,0.0,0.0,0.0,0.0,0.0,-3.0357,-3.0432,-3.0984,-3.1964,-3.2039,-3.234,-3.2817,-3.2817,-3.2566,-3.2006,-3.1138,-3.0252,-2.9569,-2.9857,-3.0162,-3.0856,-3.2941,0.0,0.0,0.0,0.0,0.0,0.0,0.0,0.0,-3.3068,-3.3395,-3.3771,-3.3771,0.0,0.0,0.0,0.0,0.0,-4.0149,-4.0049,-3.9948,-4.1078,-4.2032,-4.3037,-4.4217,0.0,0.0,0.0,0.0,0.0,0.0,-4.8534,-4.8824,0.0,0.0,-5.3599,0.0,0.0,-5.8529,-5.991,-5.9809,-5.996,-6.0839,-6.181,-6.3219,-6.4934,-6.6785,-6.8748,-7.049,-7.0111,-6.9842,-6.9842,-6.9303,-6.8914,-6.8704,-6.8106,-6.7837,-6.7807,-6.7268,-6.6999,-6.6999,-6.6999,-6.6999,-6.6999,-6.6999,-6.6939,-6.6849,-6.6849,-6.7119,-6.7537,-6.7747,-6.8525,-6.9572,-6.9871,-7.032,-7.0769,0.0,0.0,0.0,0.0,0.0,0.0,0.0,0.0,0.0,0.0,0.0,0.0,0.0,0.0,0.0,0.0,0.0,0.0,0.0,0.0,0.0,0.0,0.0,0.0,0.0,-3.1185,-3.1712,-3.2215,-3.2817,-3.3269,-3.352,-3.352,-3.3219,-3.2667,-3.2154,-3.138,-3.0509,-3.0509,-3.0584,-3.0858,0.0,0.0,0.0,0.0,0.0,0.0,0.0,0.0,0.0,0.0,-3.3445,-3.3897,-3.3897,0.0,0.0,0.0,0.0,0.0,-4.03,-4.0777,-4.0989,-4.0856,-4.095,-4.1501,-4.2574,0.0,0.0,0.0,0.0,0.0,0.0,0.0,-4.6936,-4.7669,0.0,-5.4574,-5.543,-5.7475,-5.9031,-5.9784,-5.991,-5.991,-5.9859,-6.0634,-6.2135,-6.3995,-6.555,-6.737,-6.922,-7.007,-7.047,-7.047,-7.0201,-7.0021,-7.0021,-6.9393,-6.8884,-6.8525,-6.8226,-6.8076,-6.8076,-6.7687,-6.7508,-6.7508,-6.7148,-6.6999,-6.7029,-6.7358,-6.7687,-6.8046,-6.8764,-6.9453,-7.0021,-7.035,-7.0889,-7.1398,0.0,0.0,0.0,0.0,0.0,0.0,0.0,0.0,0.0,0.0,0.0,0.0,0.0,0.0,0.0,0.0,0.0,0.0,0.0,0.0,0.0,0.0,0.0,0.0,0.0,-3.1738,-3.234,-3.2616,-3.347,-3.3972,-3.4098,-3.3947,-3.3496,-3.2897,-3.3032,-3.2239,-3.0866,-3.1543,-3.1427,-3.1018,0.0,0.0,0.0,0.0,0.0,0.0,0.0,0.0,0.0,0.0,0.0,0.0,0.0,0.0,0.0,-3.7387,-3.8567,-3.9998,-4.0551,-4.1155,-4.1569,-4.0922,-4.0692,-4.074,0.0,-4.1248,-4.1706,-4.3487,0.0,0.0,0.0,-4.5821,0.0,-4.6433,-5.081,-5.4405,-5.5436,-5.7727,-5.9131,-5.9131,-5.9382,-5.9433,-5.9131,-5.9608,-6.0787,-6.3107,-6.4554,-6.623,-6.7975,-6.9913,-7.0889,-7.0889,-7.0889,-7.0889,-7.0889,-7.044,-6.9871,-6.9243,-6.9064,-6.9004,-6.8974,-6.8465,-6.8196,-6.8196,-6.7687,-6.7537,-6.7717,-6.8226,-6.8615,-6.9004,-7.0021,-7.053,-7.0739,-7.1188,-7.1697,-7.2056,0.0,0.0,0.0,0.0,0.0,0.0,0.0,0.0,0.0,0.0,0.0,0.0,0.0,0.0,0.0,0.0,0.0,0.0,0.0,0.0,0.0,0.0,0.0,0.0,0.0,-3.1913,-3.2717,-3.3771,-3.3847,-3.4148,-3.465,-3.4148,-3.3316,-3.2232,-3.2835,-3.1777,-2.9715,-3.2487,-3.3318,-3.2885,-3.4582,0.0,0.0,0.0,0.0,0.0,0.0,0.0,0.0,0.0,0.0,0.0,0.0,0.0,-3.7939,-3.7939,-3.9145,-4.0576,-4.1128,-4.0794,-4.055,-4.1424,-4.2744,-4.3529,-4.2062,-4.1683,-4.2486,-4.4879,-4.3362,0.0,0.0,-4.5291,-4.515,-4.5621,-4.9507,-5.2187,-5.1827,0.0,-5.8027,-5.8027,-5.7575,-5.8052,-6.001,-5.9382,-5.9973,-6.3028,-6.4961,-6.6705,-6.7975,-6.9913,-7.0889,-7.0889,-7.0889,-7.0889,-7.0889,-7.0859,-7.053,-6.9901,-6.9303,-6.9004,-6.9004,-6.8944,-6.8944,-6.8914,-6.8884,-6.9213,-6.9782,-6.9812,-7.053,-7.1607,-7.1697,-7.2146,-7.2714,-7.2744,-7.2804,-7.2834,0.0,0.0,0.0,0.0,0.0,0.0,0.0,0.0,0.0,0.0,0.0,0.0,0.0,0.0,0.0,0.0,0.0,0.0,0.0,0.0,0.0,0.0,0.0,-3.1562,-3.1888,-3.2466,-3.3119,-3.3897,-3.46,-3.5027,-3.5228,-3.4675,-3.3572,-3.2098,-3.2772,-3.2152,-3.0711,-3.2916,-3.3931,-3.4114,-3.5119,-3.5881,0.0,0.0,0.0,0.0,0.0,0.0,0.0,0.0,-3.45,-3.5278,-3.5479,-3.6684,-3.8015,-3.8015,-3.9446,-4.0989,-4.0707,-4.1014,-4.1252,-4.06,-4.1328,0.0,0.0,-4.0158,-4.0605,-4.1789,-4.2015,-4.2621,0.0,0.0,-4.4433,-4.5156,-4.761,-4.986,-5.126,-5.374,-5.5922,-5.7199,-5.7474,-5.775,-5.8227,-5.9156,-6.0456,-6.258,-6.4771,-6.6761,-6.8004,-7.0297,-7.1338,-7.0919,-7.1308,-7.1308,-7.0889,-7.0889,-7.0799,-7.056,-7.029,-7.0171,-7.0171,-6.9782,-6.9602,-6.9602,-6.9602,-6.9722,-7.0021,-7.0829,-7.1457,-7.1936,-7.2355,-7.2684,-7.2924,-7.2924,-7.3163,-7.3462,0.0,0.0,0.0,0.0,0.0,0.0,0.0,0.0,0.0,0.0,0.0,0.0,0.0,0.0,0.0,0.0,0.0,0.0,0.0,0.0,0.0,0.0,0.0,-3.1637,-3.2215,-3.2792,-3.3345,-3.3897,-3.5002,-3.5629,-3.578,-3.5052,-3.3868,-3.2337,-3.2846,-3.2413,-3.1359,-3.3291,-3.4374,-3.4776,-3.5504,-3.6031,0.0,0.0,0.0,0.0,0.0,0.0,0.0,0.0,-3.4926,-3.5604,-3.5956,-3.696,-3.8065,-3.8442,-3.9536,-4.0526,-4.0307,-4.0731,-4.086,-4.0011,0.0,0.0,-3.9677,-3.9579,-3.998,-4.0566,-4.2266,-4.3984,-4.5078,0.0,0.0,0.0,-4.6511,-4.8294,-5.003,-5.2207,-5.4031,-5.5435,-5.6402,-5.7148,-5.7298,-5.883,-6.0378,-6.1651,-6.464,-6.6839,-6.769,-7.0443,-7.1787,-7.1547,-7.1757,-7.1667,-7.1218,-7.1009,-7.0889,-7.0889,-7.1098,-7.1098,-7.0889,-7.0679,-7.059,-7.059,-7.0799,-7.1009,-7.1248,-7.2146,-7.2654,-7.2864,-7.2608,-7.2649,-7.2483,-7.1903,-7.1889,-7.221,0.0,0.0,0.0,0.0,0.0,0.0,0.0,0.0,-2.9804,-2.9804,-3.0281,0.0,0.0,0.0,0.0,0.0,0.0,0.0,-3.3068,-3.2014,-3.1637,-3.219,-3.1687,-3.1662,-3.2215,-3.2792,-3.3345,-3.3897,-3.5002,-3.5805,-3.6332,-3.5228,-3.404,-3.2861,-3.3019,-3.2438,-3.1383,-3.3687,-3.4726,-3.4826,-3.5931,-3.6358,-3.6358,0.0,0.0,0.0,0.0,0.0,0.0,0.0,-3.5554,-3.5755,-3.6835,-3.7563,-3.8241,-3.9371,-3.934,-3.9149,-4.0077,-3.9766,-3.9125,-3.9604,0.0,0.0,-4.0449,-4.0879,-4.1426,-4.2266,-4.4492,-4.5898,-4.4629,-4.5781,0.0,-4.5801,-4.6715,-4.7396,-4.7375,-5.059,-5.291,-5.2387,-5.4156,-5.6043,-5.7725,-5.8353,-5.9131,-6.0211,-6.4337,-6.689,-6.7009,-7.0068,-7.2206,-7.2894,-7.2265,-7.1906,-7.1906,-7.1248,-7.0919,-7.0919,-7.1577,-7.1547,-7.0949,-7.1577,-7.1906,-7.1936,-7.2624,-7.3283,-7.3881,-7.3911,-7.427,-7.4564,-7.2599,-7.1856,-7.1568,-6.9635,-6.8888,-6.8888,0.0,0.0,0.0,0.0,0.0,0.0,0.0,0.0,-3.0357,-3.0357,-3.0507,0.0,0.0,0.0,0.0,0.0,0.0,0.0,-3.3068,-3.2014,-3.1813,-3.2767,-3.1888,-3.1838,-3.2792,-3.2993,-3.3345,-3.3897,-3.4625,-3.4569,-3.3926,-3.409,-3.2998,-3.1088,0.0,0.0,-3.1931,-3.3835,-3.4951,-3.5353,-3.6081,-3.6358,-3.6358,0.0,0.0,0.0,0.0,0.0,0.0,0.0,0.0,0.0,-3.7086,-3.7839,-3.8743,-3.9471,-4.0038,-4.0505,-4.0546,-4.004,0.0,-3.975,0.0,0.0,0.0,-4.1953,-4.2383,0.0,-4.4668,-4.5293,-4.4902,-4.5,0.0,-4.4824,-4.4758,-4.5209,-4.6295,-4.7834,-4.9763,-5.2585,-5.3336,-5.4597,-5.6498,-5.7575,-5.8983,-6.095,-6.2693,-6.4694,-6.6835,-6.7857,-6.9164,-7.0708,-7.1079,-7.1601,-7.2595,-7.2415,-7.2325,-7.2325,-7.2505,-7.2265,-7.1607,-7.2295,-7.2595,-7.2654,-7.3313,-7.3702,-7.3776,-7.2893,-7.1855,-7.0696,-7.0079,-6.9783,-6.9783,-6.9038,-6.8888,-6.8888,0.0,0.0,0.0,0.0,0.0,0.0,-3.0557,-3.0608,-3.0608,-3.0608,-3.0809,-3.126,0.0,0.0,0.0,-3.3043,-3.3068,-3.3068,-3.3068,-3.2014,-3.1788,-3.2692,-3.1863,-3.1913,-3.3043,-3.2612,-3.2498,-3.2818,-3.3359,-3.3363,-3.2885,-3.3137,-3.2515,-3.1367,0.0,-3.3344,-3.3235,-3.4438,-3.5228,-3.5579,-3.6132,-3.6358,-3.6358,0.0,0.0,0.0,0.0,0.0,0.0,0.0,0.0,0.0,-3.7789,-3.8467,-3.9193,-3.9173,-3.9443,-3.9739,-3.9117,-3.8849,0.0,-3.9082,-3.9629,-4.0317,-4.1352,0.0,0.0,0.0,-4.4414,-4.5371,-4.4863,-4.498,0.0,-4.4473,-4.4297,-4.462,-4.5617,-4.6596,-4.8136,-5.0613,-5.2317,-5.3792,-5.4819,-5.6751,-5.863,-6.0495,-6.1756,-6.3522,-6.6358,-6.6844,-6.7814,-6.939,-7.0421,-7.1324,-7.211,-7.2611,-7.2924,-7.2924,-7.3193,-7.2641,-7.152,-7.2805,-7.3313,-7.3343,-7.3093,-7.2636,-7.1792,-7.0962,-6.9931,-6.8737,-6.798,-6.7675,-6.7522,-6.6778,-6.6468,-6.6468,0.0,0.0,0.0,0.0,0.0,0.0,-3.0683,-3.0683,-3.0683,-3.0683,-3.1135,-3.1687,0.0,0.0,0.0,-3.3068,-3.3068,-3.3043,-3.2993,-3.1989,-3.1612,-3.2114,-3.158,-3.1697,-3.2807,-3.1592,-3.0974,-3.0974,-3.1608,-3.2014,-3.237,-3.2174,-3.2245,-3.2721,0.0,-3.4198,-3.4826,-3.5278,-3.5529,-3.5655,-3.6107,-3.6307,-3.6358,-3.6307,0.0,0.0,0.0,0.0,0.0,0.0,0.0,0.0,-3.8617,-3.9195,-3.9486,-3.8647,-3.8228,-3.7868,-3.7064,-3.7125,0.0,-3.8027,-3.9284,0.0,-3.9784,-4.2122,-4.3671,-4.1413,0.0,-4.5087,-4.3856,-4.4817,-4.5454,-4.4291,-4.4596,-4.5019,-4.5019,-4.6629,-4.7754,-4.7522,-5.1041,-5.3365,-5.3219,-5.5901,-5.8227,-5.9408,-6.1012,-6.3008,-6.5424,-6.6207,-6.7145,-6.8559,-6.9838,-7.0564,-7.0707,-7.1924,-7.2506,-7.2506,-7.31,-7.2511,-7.0849,-7.2788,-7.367,-7.3427,-7.2224,-7.0521,-6.8586,-6.8586,-6.8435,-6.8132,-6.6312,-6.5556,-6.524,-6.3423,-6.2822,-6.2822,0.0,0.0,0.0,0.0,0.0,0.0,-3.1235,-3.1235,-3.1235,-3.1235,-3.1687,-3.2265,-3.2817,-3.2993,0.0,-3.3068,-3.3068,-3.2893,-3.2416,-3.1763,-3.1436,-3.1562,-3.067,-3.0218,-3.0544,-2.9718,-2.9283,-2.9283,-2.9784,-2.9527,-2.882,0.0,0.0,-3.0833,0.0,-3.4048,-3.5353,-3.5027,-3.5403,-3.6157,-3.5855,-3.5981,-3.6307,-3.5881,-3.6332,0.0,0.0,0.0,0.0,0.0,0.0,0.0,-3.8015,-3.8894,-3.9636,-3.9426,-3.9147,-3.8979,-3.9052,-3.8384,0.0,0.0,-3.9694,-3.8794,-3.6099,-3.7184,-3.8718,-3.8315,-3.9072,-3.9492,-3.8494,-4.0606,-4.2344,-4.2106,-4.3728,-4.5019,-4.5019,-4.534,-4.6273,-4.7775,-4.9993,-5.1936,-5.3389,-5.5434,-5.7374,-5.9357,-5.9161,-6.015,-6.327,-6.2808,-6.3597,-6.6415,-6.6772,-6.761,-6.9291,-6.9623,-6.9686,-6.9714,-6.9973,-6.9735,-6.9439,-7.1367,-7.1511,-6.9911,-6.9727,-6.8435,-6.6441,-6.6441,-6.5556,-6.4042,-6.3584,-6.3423,-6.3423,-6.2985,-6.2822,-6.2822,0.0,0.0,0.0,0.0,0.0,0.0,0.0,0.0,-3.1687,-3.1411,-3.1863,-3.2441,-3.3018,-3.3068,0.0,0.0,-3.3068,-3.2842,-3.224,-3.1687,-3.1016,-3.0229,-2.9629,-2.9248,-2.8974,-2.8098,-2.761,-2.761,-2.7451,-2.7441,0.0,0.0,0.0,-3.0323,0.0,-3.4248,-3.5437,-3.5228,-3.5604,-3.6332,-3.6056,-3.6257,-3.6734,-3.6433,-3.701,-3.8015,-3.8316,0.0,0.0,0.0,0.0,0.0,0.0,0.0,-3.9457,-3.8161,-3.8331,-3.8788,-3.7955,0.0,0.0,-4.0547,0.0,-3.7742,-3.6082,-3.4978,-3.4217,-3.4082,-3.5952,-3.759,-3.7217,-3.8839,-4.0593,-4.185,-4.3089,-4.4485,-4.5764,-4.5762,-4.5891,-4.6824,-4.8312,-5.0175,-5.1982,-5.3712,-5.6027,-5.9332,-5.8504,-5.9232,-6.227,-6.1642,-6.202,-6.39,-6.5083,-6.6312,-6.7368,-6.8435,-6.8888,-6.8888,-6.8888,-6.8435,-6.7522,-6.9486,-6.9337,-6.7368,-6.7368,-6.6312,-6.4338,-6.4338,-6.372,-6.2822,-6.2822,-6.2822,-6.2822,-6.2822,-6.2822,-6.2873,0.0,0.0,0.0,0.0,0.0,0.0,0.0,0.0,0.0,-3.1461,-3.1964,-3.2541,-3.3018,-3.3068,-3.3068,0.0,0.0,0.0,-3.224,-3.1612,-3.0498,-2.8831,-2.8562,-2.8194,-2.7498,-2.6448,-2.5889,-2.5889,-2.5285,-2.5779,0.0,0.0,0.0,-3.0603,0.0,0.0,0.0,0.0,-3.5855,-3.6358,-3.6358,-3.6684,-3.7186,-3.7186,-3.7889,-3.8868,-3.8868,-3.8868,-3.8843,-3.8768,0.0,0.0,0.0,0.0,-3.8712,-3.6587,-3.7126,-3.8006,-3.629,0.0,-3.8428,-4.0666,-3.8908,0.0,-3.6834,-3.3886,-3.0889,-3.0515,-3.3426,-3.6177,-3.6511,-3.751,-3.8876,-4.0988,-4.2405,-4.3759,-4.5891,-4.6152,-4.6172,-4.582,-4.7101,-4.8556,-5.0087,-5.1878,-5.4744,-5.8663,-5.8426,-5.9207,-6.1868,-6.1567,-6.1542,-6.1994,-6.4188,-6.524,-6.524,-6.6933,-6.7855,-6.7855,-6.7855,-6.6933,-6.5398,-6.7061,-6.6933,-6.524,-6.524,-6.4338,-6.2822,-6.2822,-6.2822,-6.2822,-6.2822,-6.2822,-6.2822,-6.2822,-6.2898,-6.3048,0.0,0.0,0.0,0.0,0.0,0.0,0.0,0.0,0.0,0.0,-3.2315,-3.2993,-3.3068,-3.3068,-3.3068,-3.3068,-3.3068,-3.2842,-3.224,0.0,0.0,-2.8307,-2.7313,-2.6346,-2.5232,-2.452,-2.4137,-2.4137,-2.4389,0.0,0.0,0.0,0.0,-3.194,0.0,0.0,-3.5554,0.0,0.0,-3.6358,-3.6358,-3.6684,-3.7186,-3.7186,-3.7889,-3.8868,-3.8868,-3.8868,-3.8793,-3.8291,-3.7764,0.0,0.0,0.0,-3.7038,-3.6859,-3.7054,-3.7332,0.0,0.0,-4.0357,0.0,-3.7474,-3.5897,0.0,0.0,-3.0221,0.0,-3.1267,-3.1716,-3.2019,-3.4406,-3.6215,-3.6298,-4.0024,-4.3108,-4.3124,-4.504,-4.6289,-4.623,-4.7305,-4.821,-4.8476,-5.1308,-5.4109,-5.6708,-5.7957,-5.9608,-6.1893,-6.1943,-6.1943,-6.1994,-6.2846,-6.3123,-6.3123,-6.3423,-6.3584,-6.3584,-6.3584,-6.3423,-6.3286,-6.3423,-6.3423,-6.3123,-6.3123,-6.296,-6.2822,-6.2822,-6.2822,-6.2822,-6.2822,-6.2822,-6.2822,-6.2822,-6.3149,-6.3576,0.0,0.0,0.0,0.0,0.0,0.0,0.0,0.0,0.0,0.0,0.0,-3.3068,-3.3068,-3.2792,-3.2591,-3.2591,-3.2315,-3.1888,-3.1361,-3.0583,-2.9534,-2.8187,-2.7683,-2.6603,-2.4872,-2.4481,-2.4015,-2.3418,-2.3848,0.0,0.0,-2.85,-2.9848,0.0,0.0,0.0,0.0,0.0,0.0,0.0,-3.6709,0.0,0.0,-3.8115,-3.8818,-3.9747,-3.9446,-3.9145,-3.8793,-3.8191,-3.7638,-3.7186,-3.7186,0.0,0.0,0.0,-3.6674,-3.6887,-3.7687,-3.916,-4.0414,0.0,-3.8399,-3.6199,-3.5859,-3.3023,-3.0434,-3.0528,-3.0675,-3.0929,-3.1396,-3.2886,-3.4311,-3.5479,-3.8845,-4.1752,-4.2838,-4.4977,-4.6308,-4.6308,-4.6365,-4.6796,-4.79,-4.8981,-5.1424,-5.6049,-5.671,-5.8369,-6.1441,-6.1843,-6.1868,-6.1542,-6.237,-6.2822,-6.2822,-6.2822,-6.2822,-6.2822,-6.2822,-6.2822,-6.2822,-6.2822,-6.2822,-6.2822,-6.2822,-6.2822,-6.2822,-6.2822,-6.2822,-6.2822,-6.2822,-6.2822,-6.2822,-6.2822,-6.2998,-6.3299,0.0,0.0,0.0,0.0,0.0,0.0,0.0,0.0,0.0,0.0,0.0,-3.3018,-3.2867,0.0,0.0,0.0,-3.1637,-3.116,-3.0658,-3.0231,-2.9436,-2.8187,-2.8084,-2.7093,-2.4872,-2.4787,-2.4211,-2.3144,0.0,0.0,-2.7413,-2.7922,-2.8987,0.0,-3.2846,0.0,0.0,0.0,0.0,-3.6609,-3.7161,0.0,0.0,-3.922,-3.9973,-4.0852,-4.03,-3.9948,-3.9597,-3.8894,-3.8291,-3.7814,-3.7814,-3.7006,0.0,0.0,0.0,0.0,0.0,0.0,-4.041,-4.1894,-3.9259,-3.6567,0.0,0.0,-3.0635,0.0,-3.0635,-3.0955,-3.1463,-3.2038,-3.3092,-3.4638,-3.7648,-4.036,-4.2021,-4.466,-4.6308,-4.6308,-4.5547,-4.5678,-4.711,-4.7087,-4.8951,-5.4026,-5.5192,-5.6963,-5.9846,-6.1346,-6.1893,-6.1215,-6.2245,-6.2822,-6.2822,-6.2822,-6.2822,-6.2822,-6.2822,-6.2822,-6.2822,-6.2822,-6.2822,-6.2822,-6.2822,-6.2822,-6.2822,-6.2822,-6.2822,-6.2822,-6.2822,-6.2822,-6.2822,-6.2822,-6.2923,-6.3174,0.0,0.0,0.0,0.0,0.0,0.0,0.0,0.0,0.0,0.0,0.0,-3.2867,-3.2315,-3.224,-3.2014,-3.1486,-3.1411,-3.116,-3.0658,-3.0583,-2.9806,-2.8187,-2.8084,0.0,-2.4872,-2.4787,-2.4211,0.0,0.0,0.0,-2.5543,-2.6182,-2.7856,-3.0486,-3.2846,-3.3922,-3.4022,0.0,0.0,0.0,-3.7739,0.0,0.0,-4.0224,-4.1103,-4.2007,-4.1455,-4.158,-4.1831,-4.0752,-4.0023,-3.9572,-3.9572,-3.7512,-3.5424,0.0,0.0,0.0,0.0,-3.9492,0.0,-4.1601,-3.9246,0.0,0.0,0.0,-3.0461,-3.0715,-3.0782,-3.0889,-3.1196,-3.173,-3.2024,-3.192,-3.6184,-3.9422,-3.9242,-4.3371,-4.6308,-4.6308,-4.5547,-4.5019,-4.5189,-4.6168,-4.7427,-4.8868,-5.3497,-5.6351,-5.6606,-6.0601,-6.2295,-6.1215,-6.2245,-6.2822,-6.2822,-6.2822,-6.2822,-6.2822,-6.2822,-6.2822,-6.2822,-6.2822,-6.2822,-6.2822,-6.2822,-6.2822,-6.2822,-6.2822,-6.2822,-6.2822,-6.2822,-6.2822,-6.2822,-6.2822,-6.3174,-6.3726,0.0,0.0,0.0,0.0,0.0,0.0,0.0,0.0,0.0,0.0,0.0,0.0,0.0,-3.1888,-3.1461,-3.0934,-3.0557,-3.0131,-2.9578,-2.9528,-2.9124,-2.8149,-2.8124,-2.7252,-2.5317,-2.5317,0.0,0.0,0.0,-2.3954,-2.5588,-2.6824,-2.8377,-3.0095,-3.1946,-3.3334,-3.45,-3.5604,0.0,0.0,0.0,0.0,0.0,-4.0978,-4.1731,-4.2499,-4.0905,-4.0832,-4.1397,-3.9609,-3.8679,-3.8315,-3.8631,-3.6512,-3.418,-3.4923,0.0,0.0,0.0,0.0,0.0,-4.1777,-4.0195,-3.8113,-3.7825,-3.474,-3.1671,-3.0772,-3.0368,-3.0381,-3.0862,-3.1583,-3.2011,-3.1717,-3.4682,-3.6994,-3.6653,-4.0808,-4.3904,-4.3904,-4.4875,-4.5332,-4.5058,-4.5143,-4.6145,-4.8333,-5.0717,-5.289,-5.4504,-5.7019,-5.7986,-5.7285,-5.9475,-6.1242,-6.2822,-6.2822,-6.2822,-6.2822,-6.2822,-6.2822,-6.2822,-6.2822,-6.2822,-6.2822,-6.2822,-6.2822,-6.2822,-6.2822,-6.2822,-6.2822,-6.2822,-6.3048,-6.3375,-6.3375,-6.35,-6.3776,0.0,0.0,0.0,0.0,0.0,0.0,0.0,0.0,0.0,-3.3018,0.0,0.0,0.0,0.0,-3.1386,-3.0683,-3.0105,-2.9628,-2.9252,-2.9026,-2.8775,-2.8398,-2.8197,-2.7257,-2.5475,-2.5395,0.0,0.0,0.0,0.0,0.0,-2.6462,-2.7833,-2.9095,-3.0578,-3.2418,0.0,0.0,0.0,-3.7563,0.0,0.0,-4.1404,-4.1957,-4.2735,-4.3212,-4.1118,-4.0942,-4.1286,-3.8925,-3.7892,-3.7566,-3.7943,-3.64,-3.43,-3.4358,0.0,0.0,-3.6953,0.0,0.0,0.0,0.0,-3.7923,-3.7808,0.0,-3.1891,-3.0515,-3.014,-3.0127,-3.0314,-3.1076,-3.1664,-3.1664,-3.3856,-3.5578,-3.5353,-3.9523,-4.2621,-4.2621,-4.4466,-4.5508,-4.5058,-4.4648,-4.5084,-4.6784,-4.8756,-5.0527,-5.198,-5.4528,-5.5722,-5.5386,-5.7251,-5.8992,-6.041,-6.0553,-6.0553,-6.0553,-6.1242,-6.1598,-6.1598,-6.247,-6.2822,-6.2822,-6.2822,-6.2822,-6.2822,-6.2822,-6.2822,-6.2822,-6.2822,-6.3174,-6.3701,-6.3701,-6.3802,-6.4002,0.0,0.0,0.0,0.0,0.0,0.0,0.0,0.0,-3.3068,-3.3068,0.0,0.0,0.0,0.0,0.0,-3.0708,-3.0105,-2.9779,-2.9754,-2.9227,-2.8825,-2.8775,0.0,0.0,0.0,0.0,0.0,0.0,0.0,0.0,0.0,0.0,-2.6034,-2.7652,-2.8866,-3.1082,-3.3884,0.0,-3.6031,-3.814,0.0,-4.0375,-4.1422,-4.3025,-4.3976,-4.4145,-4.2014,-4.1686,-4.1732,-3.9039,-3.7792,-3.7479,-3.797,-3.7045,0.0,0.0,0.0,0.0,0.0,0.0,0.0,0.0,0.0,0.0,-3.7036,0.0,-3.0621,-3.006,-3.0167,-3.0194,-2.9619,-3.0207,-3.0969,-3.153,-3.3656,-3.5137,-3.5137,-3.9341,-4.2443,-4.2425,-4.4466,-4.5508,-4.5058,-4.4629,-4.4219,-4.3769,-4.7458,-4.9448,-4.9028,-5.3211,-5.5705,-5.5705,-5.5879,-5.5879,-5.5879,-5.5879,-5.5879,-5.5879,-5.8119,-5.9138,-5.9307,-6.1598,-6.2659,-6.2659,-6.2822,-6.2822,-6.2822,-6.2822,-6.2822,-6.2822,-6.2822,-6.3199,-6.3726,-6.3726,-6.4053,-6.4479,0.0,0.0,0.0,0.0,0.0,-3.2365,-3.2767,-3.2968,-3.3068,0.0,0.0,0.0,0.0,-3.1512,-3.0934,-3.0633,-3.0105,-2.9453,-2.8624,-2.8423,-2.7679,-2.6142,-2.5973,-2.5075,0.0,0.0,0.0,0.0,0.0,0.0,0.0,0.0,0.0,0.0,-2.8712,-3.0997,-3.3829,-3.5307,0.0,-3.8718,-3.9848,-4.0261,0.0,-4.091,-4.0683,-3.9916,-3.8087,-3.8274,-3.9129,-3.7523,-3.663,-3.6189,-3.5458,0.0,0.0,0.0,0.0,0.0,-3.6191,0.0,0.0,0.0,0.0,0.0,0.0,0.0,-3.2432,-3.0894,-3.0608,-3.0555,-3.0194,-3.0314,-3.0461,-3.0408,-3.1661,-3.2772,-3.2772,-3.6975,-3.9802,-3.9531,-4.3209,-4.5391,-4.4648,-4.4473,-4.4473,0.0,-4.6333,-4.7534,-4.8033,-4.9772,-5.1667,-5.3259,-5.3437,-5.4125,-5.5879,-5.5879,-5.5879,-5.5856,-5.6573,-5.6919,-5.6919,-5.9161,-6.0194,-6.0362,-6.2117,-6.2822,-6.2822,-6.2822,-6.2822,-6.2822,-6.2822,-6.3425,-6.4254,-6.4254,-6.4605,-6.5057,0.0,0.0,-3.1486,-3.2114,-3.2416,-3.2692,-3.3018,-3.3068,-3.3068,0.0,0.0,0.0,-3.2616,-3.1788,-3.1286,-3.1286,-3.0783,-3.008,-2.9202,-2.8725,-2.7582,-2.5755,-2.523,-2.4173,-2.2436,0.0,0.0,0.0,0.0,0.0,0.0,0.0,0.0,0.0,-2.8014,-2.9942,-3.2225,-3.4631,0.0,0.0,-3.9396,0.0,0.0,-3.9614,-3.9216,-3.8395,-3.6838,-3.7095,-3.7789,-3.608,-3.5509,-3.5544,-3.4989,-3.4941,0.0,0.0,0.0,0.0,0.0,0.0,0.0,0.0,0.0,0.0,0.0,0.0,0.0,0.0,-3.0261,-3.0341,-3.0047,-3.0287,-3.0488,-3.0314,-3.1062,-3.1908,-3.2445,-3.5076,-3.7565,-3.9304,-4.216,-4.4071,-4.4285,-4.4726,-4.4961,-4.5019,-4.6152,-4.7129,-4.7812,-4.832,-4.9287,-5.0678,-5.0882,-5.1688,-5.2902,-5.2902,-5.2902,-5.2881,-5.3948,-5.4477,-5.4477,-5.6896,-5.7949,-5.7949,-5.933,-5.9859,-5.9883,-5.9883,-6.1101,-6.2822,-6.2822,-6.35,-6.4454,-6.4454,-6.4957,-6.5609,0.0,0.0,-3.224,-3.229,-3.2742,-3.3068,-3.3068,-3.3068,-3.3093,0.0,-3.3169,-3.3169,-3.3169,-3.2591,-3.2215,-3.2215,-3.1712,-3.116,-3.0658,-2.9524,-2.8196,-2.6557,-2.5389,-2.3881,-2.197,-2.2289,0.0,0.0,0.0,0.0,0.0,0.0,0.0,0.0,-2.69,-2.8342,-2.9944,-3.2895,-3.5885,-3.8609,-3.8383,-3.8398,0.0,-3.8744,-3.8564,-3.8143,-3.6809,-3.6875,-3.7136,-3.4893,-3.4726,-3.5527,-3.5957,-3.5801,-3.5527,-3.5918,-3.6055,0.0,0.0,0.0,0.0,-3.9492,-3.8625,0.0,0.0,0.0,0.0,0.0,-2.9974,-3.0312,-2.9646,-3.0442,-3.1178,-3.111,-3.1543,-3.2371,-3.3782,-3.4381,-3.6241,-4.0963,-4.1887,-4.2642,-4.4402,-4.5234,-4.5547,-4.5254,-4.6699,-4.7754,-4.8105,-4.8183,-4.8203,-4.8203,-4.8633,-4.8867,-4.8867,-4.8867,-4.8867,-4.8848,-5.0964,-5.2027,-5.2027,-5.4477,-5.553,-5.553,-5.5682,-5.5834,-5.5789,-5.5856,-5.8313,-6.2142,-6.2306,-6.2979,-6.3757,-6.4287,-6.4988,-6.5692,-3.1738,-3.2064,-3.2365,-3.2817,-3.2993,-3.3068,-3.3068,-3.3068,-3.3244,-3.3671,-3.3746,-3.3746,-3.3746,-3.2817,-3.2215,-3.2215,-3.1712,-3.116,-3.0658,-2.9455,-2.7995,-2.6007,-2.4456,-2.2903,-2.1412,-2.1411,-2.143,0.0,0.0,0.0,0.0,0.0,0.0,0.0,-2.6389,-2.8045,-3.043,-3.1395,-3.3586,-3.6668,-3.8154,-3.7679,-3.5962,-3.6003,-3.5394,-3.4398,-3.4147,-3.4378,-3.4854,-3.4642,-3.5156,-3.5976,-3.6406,-3.625,-3.5918,-3.5996,-3.6269,0.0,0.0,0.0,-3.7734,-3.9023,-3.7764,0.0,-3.6976,-3.4774,-3.2514,0.0,-3.3217,-3.3139,-3.0637,-3.2324,-3.4044,-3.3514,-3.3543,-3.3823,-3.4965,-3.6678,-3.8941,-4.1602,-4.374,-4.4972,-4.543,-4.5586,-4.5918,-4.6523,-4.7187,-4.7617,-4.7695,-4.8027,-4.8203,-4.8203,-4.8633,-4.8867,-4.8867,-4.8867,-4.8867,-4.8867,-4.938,-4.9564,-4.9748,-5.2027,-5.3081,-5.3259,-5.4983,-5.561,-5.5446,-5.57,-5.64,-5.7435,-5.933,-5.9436,-5.9108,-6.303,-6.3915,-6.3554,-3.2114,-3.2441,-3.2742,-3.3018,-3.3068,-3.3068,-3.3068,-3.3319,-3.3596,-3.3872,-3.4148,-3.4299,-3.4299,-3.3796,-3.3345,-3.3068,-3.2792,-3.229,-3.1461,-3.0022,-2.842,-2.667,-2.4844,-2.3247,-2.1875,-2.2285,-2.2305,0.0,0.0,0.0,0.0,0.0,0.0,0.0,-2.6387,-2.7736,-3.0099,-3.1287,-3.2763,-3.4421,-3.5769,0.0,-3.5035,-3.4329,-3.3913,-3.375,-3.375,-3.418,-3.4863,-3.5703,-3.6426,-3.6973,-3.6973,-3.6973,-3.6973,-3.6973,-3.6836,-3.6758,-3.7187,-3.7461,-3.7812,-3.8672,-3.8135,0.0,0.0,0.0,-3.4698,-3.4218,-3.4705,-3.4487,-3.2241,-3.3154,-3.4307,-3.4142,-3.4113,-3.4743,-3.685,-3.7808,-3.9607,-4.3013,-4.3552,-4.409,-4.518,-4.5547,-4.6016,-4.6875,-4.7129,-4.7246,-4.7246,-4.7656,-4.7891,-4.7891,-4.8516,-4.8867,-4.8867,-4.8867,-4.8867,-4.8867,-4.8867,-4.8867,-4.8848,-5.0094,-5.0621,-5.0803,-5.1827,-5.2093,-5.1673,-5.1925,-5.1904,-5.2111,-5.6272,-5.758,-5.7376,-6.0195,-6.0887,-6.0442,-3.2365,-3.2767,-3.3068,-3.3068,-3.3068,-3.3119,-3.3219,-3.3621,-3.3972,-3.4198,-3.46,-3.4876,-3.4876,-3.4504,-3.4164,-3.3717,-3.3399,-3.2916,-3.1945,-3.0304,-2.8797,-2.7544,-2.5591,-2.4074,-2.2891,-2.3398,-2.332,-2.2637,0.0,0.0,0.0,0.0,0.0,0.0,0.0,0.0,0.0,0.0,0.0,-3.274,0.0,-3.418,-3.4985,-3.3783,-3.3769,-3.4453,-3.4453,-3.4961,-3.5801,-3.6914,-3.7578,-3.7891,-3.7715,-3.7773,-3.7949,-3.8027,-3.7578,-3.7187,-3.7871,-3.774,-3.7547,-3.799,-3.7963,-3.7521,0.0,0.0,0.0,0.0,0.0,0.0,0.0,0.0,0.0,-3.4232,0.0,0.0,0.0,-3.833,0.0,-4.3472,-4.2901,-4.2809,-4.4473,-4.5357,-4.6172,-4.6758,-4.6875,-4.6894,-4.6816,-4.7305,-4.7578,-4.7578,-4.8496,-4.8945,-4.8867,-4.8945,-4.8945,-4.8867,-4.8867,-4.8867,-4.8867,-4.8867,-4.8867,-4.8867,-4.8867,-4.8555,-4.8086,-4.8164,-4.7969,-4.8215,-5.355,-5.549,-5.5489,-5.7089,-5.7534,-5.7553,-3.2993,-3.3043,-3.3068,-3.3068,-3.3068,-3.3244,-3.3746,-3.3847,-3.4248,-3.5228,-3.5403,-3.5454,-3.5454,-3.3942,-3.2861,-3.2814,-3.1737,-3.1027,-3.0914,-2.9306,-2.8285,-2.8126,-2.5724,-2.433,-2.4199,-2.3555,-2.3164,-2.3086,0.0,0.0,0.0,0.0,0.0,0.0,-2.7422,0.0,0.0,0.0,-3.2293,0.0,-3.3178,-3.4201,0.0,-3.523,-3.5391,-3.5801,-3.5801,-3.6113,-3.6601,-3.7129,-3.7578,-3.8047,-3.8769,-3.8496,-3.8008,-3.8379,-3.8437,-3.8379,-3.8476,-3.7123,-3.5849,-3.6435,-3.4766,-3.3195,-3.3742,0.0,-3.1584,-3.207,0.0,-3.2431,0.0,0.0,0.0,0.0,0.0,0.0,-3.8102,-3.8661,-3.9242,-4.0293,-4.2864,-4.4204,-4.3485,-4.5458,-4.668,-4.6387,-4.6719,-4.6758,-4.6387,-4.7129,-4.7578,-4.7578,-4.8789,-4.9258,-4.8867,-4.9258,-4.9258,-4.8867,-4.8867,-4.8867,-4.8867,-4.8867,-4.8867,-4.8867,-4.8867,-4.8398,-4.7676,-4.8047,-4.7969,-4.7976,-5.1099,-5.1218,-5.0397,-5.5133,-5.6056,-5.5166,-3.2566,-3.2842,-3.3068,-3.3068,-3.3068,-3.3269,-3.3822,-3.4449,-3.5127,-3.5906,-3.6307,-3.6508,-3.6508,-3.6056,-3.5162,-3.3767,0.0,-3.2282,0.0,0.0,0.0,-2.8551,-2.6641,-2.5449,-2.5195,-2.4824,-2.4394,-2.3887,-2.4766,0.0,0.0,0.0,0.0,0.0,-2.7969,0.0,-3.0644,0.0,-3.334,0.0,0.0,-3.541,0.0,-3.5019,-3.5215,-3.6094,-3.6582,-3.6875,-3.709,-3.7519,-3.8281,-3.8837,-3.7217,-3.7222,-3.7704,-3.7558,-3.7632,-3.7989,-3.9387,-3.8141,-3.6543,-3.6489,-3.4642,-3.3109,-3.3776,-3.321,-3.2806,-3.3296,0.0,0.0,0.0,0.0,0.0,0.0,-3.3933,-3.4592,0.0,0.0,-3.792,0.0,0.0,0.0,-4.203,-4.2246,-4.3175,-4.5433,-4.4939,-4.5083,-4.6328,-4.7109,-4.7578,-4.7578,-4.8594,-4.9043,-4.8867,-4.9043,-4.9043,-4.8867,-4.8867,-4.8867,-4.8867,-4.8867,-4.8867,-4.8867,-4.8867,-4.8379,-4.7598,-4.7773,-4.7598,-4.7424,-4.8713,-4.9131,-4.9295,-5.1944,-5.2292,-5.1751,-3.2014,-3.2566,-3.3068,-3.3068,-3.3194,-3.3495,-3.4048,-3.5052,-3.5956,0.0,0.0,0.0,-3.7387,-3.7047,0.0,-3.4363,-3.3568,-3.2342,0.0,0.0,-2.8799,-2.8799,-2.75,-2.6582,-2.6269,-2.6152,-2.5723,-2.4961,-2.5605,0.0,0.0,0.0,0.0,0.0,0.0,-2.9746,-3.1719,0.0,-3.3906,-3.4726,-3.5273,-3.582,-3.6211,-3.5176,-3.5371,-3.6309,-3.7168,-3.7461,-3.7416,-3.7479,-3.8173,-3.8501,-3.5646,-3.5639,-3.6518,-3.6061,-3.6061,-3.6567,-3.8383,-3.7306,-3.5674,-3.5326,-3.3705,-3.218,-3.2429,-3.2476,-3.257,-3.3077,-3.3281,0.0,0.0,0.0,0.0,0.0,0.0,-3.2438,0.0,-3.3876,0.0,0.0,0.0,0.0,0.0,-3.9592,-4.0318,-4.3842,-4.3475,-4.4115,-4.5978,-4.6933,-4.7461,-4.7578,-4.8418,-4.8867,-4.8867,-4.8984,-4.8984,-4.8867,-4.8867,-4.8867,-4.8867,-4.8867,-4.8867,-4.8867,-4.8867,-4.8437,-4.7754,-4.7754,-4.7558,-4.7305,-4.7617,-4.8203,-4.8945,-4.959,-4.9687,-4.9629,-3.1512,-3.2315,-3.3068,-3.3068,-3.352,-3.4048,-3.4625,-3.5629,-3.6533,0.0,0.0,0.0,0.0,0.0,0.0,0.0,0.0,-2.9734,-2.9603,0.0,-2.8848,-2.8848,-2.8066,-2.7617,-2.7598,-2.7187,-2.6758,-2.6328,-2.6348,0.0,0.0,0.0,0.0,0.0,-2.8789,-2.9805,-3.0391,-3.2519,-3.3203,-3.2949,-3.3789,-3.4668,-3.5527,0.0,-3.6621,-3.6758,-3.7598,-3.791,-3.7798,-3.6879,-3.6687,-3.6523,-3.5173,-3.4283,-3.3835,-3.3991,-3.3859,-3.3901,-3.4453,-3.317,-3.1617,-3.1918,-3.0368,-2.8735,-2.8735,-2.8749,-2.8829,-2.9125,-2.8964,-2.895,-2.9528,0.0,0.0,0.0,0.0,0.0,0.0,0.0,0.0,0.0,0.0,0.0,0.0,-3.8366,-3.9779,0.0,-4.2567,-4.3985,-4.5569,-4.6484,-4.7148,-4.7578,-4.8418,-4.8867,-4.8867,-4.9297,-4.9297,-4.8867,-4.8867,-4.8867,-4.8867,-4.8867,-4.8867,-4.8867,-4.8867,-4.8613,-4.8183,-4.8183,-4.8183,-4.8164,-4.8183,-4.8457,-4.8867,-4.8887,-4.916,-4.959,-3.239,-3.2817,-3.3194,-3.3545,-3.4073,-3.4625,-3.5177,-3.5881,0.0,0.0,-3.6057,0.0,0.0,-3.5131,-3.4228,0.0,0.0,-3.0944,-2.9702,-2.9434,0.0,-2.9355,-2.8809,-2.8359,-2.8086,-2.7656,-2.709,-2.6387,-2.666,0.0,0.0,0.0,0.0,0.0,0.0,-3.0449,0.0,0.0,0.0,0.0,0.0,-3.2492,-3.4362,0.0,-3.4722,-3.5299,-3.4244,-3.4224,0.0,-3.418,-3.4637,-3.4895,-3.2585,-3.2344,-3.2871,-3.2732,-3.2778,-3.3265,-3.4799,-3.3714,-3.2095,-3.2184,-3.0708,-2.9232,-2.9432,-2.9325,-2.9272,-2.9553,-2.9539,-2.9539,-2.9726,0.0,0.0,0.0,0.0,0.0,0.0,0.0,0.0,0.0,0.0,0.0,0.0,0.0,0.0,0.0,-3.8022,0.0,-4.0614,-4.1318,-4.2639,-4.4721,-4.5519,-4.5946,-4.5946,-4.8088,-4.8223,-4.6336,-4.8069,-4.8867,-4.8867,-4.8867,-4.8867,-4.8867,-4.918,-4.8887,-4.8223,-4.8516,-4.8476,-4.8203,-4.8203,-4.8476,-4.8867,-4.8867,-4.8945,-4.9199,-3.2943,-3.3395,-3.3771,-3.4123,-3.465,-3.5127,-3.5479,0.0,0.0,0.0,-3.5348,0.0,-3.4751,0.0,-3.405,0.0,-3.2188,-3.1317,-3.0172,-3.0039,0.0,-2.9805,-2.9531,-2.9238,-2.8965,-2.8398,-2.791,-2.7519,0.0,-2.7109,0.0,0.0,0.0,0.0,0.0,-3.0451,-3.1675,-3.2093,-3.1764,0.0,0.0,-3.0937,0.0,0.0,-3.3127,-3.5038,0.0,-3.2534,-3.31,-3.2315,-3.2698,-3.2975,-3.0572,-3.0317,-3.0864,-3.0764,-3.0893,-3.1451,-3.2996,-3.2573,-3.1426,-3.1527,-3.0516,-2.974,-3.014,-3.0007,-2.99,-3.0301,-3.0301,-3.0194,-3.01,0.0,0.0,0.0,0.0,0.0,0.0,-2.8911,0.0,0.0,0.0,0.0,0.0,0.0,0.0,0.0,0.0,0.0,0.0,-3.8313,-3.9666,-4.1687,-4.3337,-4.3874,-4.3064,-4.6913,-4.7512,-4.4984,-4.7698,-4.8867,-4.8867,-4.9023,-4.9101,-4.9121,-4.957,-4.9355,-4.8691,-4.8984,-4.8828,-4.8437,-4.8437,-4.8613,-4.8867,-4.8867,-4.9062,-4.9414,-3.3194,-3.4098,-3.4851,-3.4851,-3.5278,-3.5512,0.0,0.0,-3.5159,0.0,-3.4872,-3.4511,-3.5024,-3.3845,-3.2964,-3.2964,-3.1652,-3.0898,-3.0898,-3.0898,0.0,0.0,-3.012,-3.012,-3.0101,-2.9322,-2.9089,-2.9458,0.0,0.0,0.0,0.0,0.0,0.0,-2.9824,0.0,-2.9529,-3.0032,-2.9404,-2.8147,-2.8734,-2.9666,-3.0583,-2.9184,-3.1695,-3.5404,-3.3145,-3.2764,-3.3178,-3.1269,-3.0839,-3.0861,-2.9193,-2.843,-2.827,-2.8577,-2.8657,-2.8778,-2.9352,-2.9499,-2.9579,-2.986,-2.9953,-3.0114,-3.0702,-3.0595,-3.0541,-3.1129,-3.1022,-3.0742,-3.0474,0.0,0.0,0.0,0.0,0.0,0.0,0.0,0.0,0.0,0.0,0.0,0.0,0.0,0.0,0.0,0.0,0.0,0.0,-3.7135,-3.7874,-3.8399,-4.1674,-4.2458,-4.0561,-4.574,-4.712,-4.4607,-4.7307,-4.8682,-4.8721,-4.9336,-4.9531,-4.959,-5.0019,-4.9961,-4.9531,-4.9551,-4.9277,-4.8867,-4.8867,-4.8867,-4.8867,-4.8867,-4.9414,-5.0176,-3.4675,-3.5805,-3.6558,-3.6558,-3.6659,-3.6322,0.0,0.0,0.0,0.0,-3.2726,-3.2553,-3.2052,-3.1652,-3.1441,-3.1441,-3.1112,0.0,0.0,0.0,0.0,-3.0723,-2.9479,-2.8873,-2.8755,-2.8553,-2.8205,-2.7596,0.0,0.0,-2.8125,0.0,0.0,0.0,0.0,0.0,-3.005,-3.0158,-2.8918,-2.6847,-2.6127,-2.7378,-2.9686,0.0,-2.9254,-3.2227,-2.9588,-2.9066,-2.9494,-2.9008,-2.9198,-2.9494,-2.9071,-2.9032,-2.9192,-2.9486,-2.9432,-2.9339,-2.9713,-2.9806,-2.9873,-3.0167,-3.0408,-3.0728,-3.1316,-3.1049,-3.0849,-3.1436,-3.1316,-3.1156,-3.1303,-3.1156,0.0,0.0,0.0,0.0,0.0,0.0,0.0,-2.8177,0.0,0.0,0.0,0.0,0.0,0.0,0.0,0.0,0.0,0.0,-3.3503,-3.5362,-3.7085,-3.7774,-3.7371,-4.1207,-4.1924,-3.9431,-4.3832,-4.6127,-4.6629,-4.8497,-4.9707,-5.0039,-5.0469,-5.0215,-4.9551,-4.9883,-4.9551,-4.8867,-4.8867,-4.8867,-4.8867,-4.8867,-4.9414,-5.0176,-3.5353,0.0,0.0,-3.7136,0.0,0.0,-3.5199,-3.459,0.0,-3.2369,-3.2046,0.0,-3.125,-3.0996,-3.0898,-3.0898,-3.0898,0.0,-3.1152,0.0,0.0,-3.0313,-2.9434,-2.8516,-2.7954,-2.7608,-2.7677,-2.8027,-2.7741,0.0,-2.8087,0.0,0.0,0.0,0.0,-2.8377,-2.7997,-2.7535,-2.6695,-2.5569,-2.4929,-2.5992,0.0,-2.6942,-2.7932,-2.9561,-2.8356,-2.815,-2.8537,-2.8537,-2.8845,-2.9232,-2.9232,-2.9432,-2.97,-2.9873,-2.998,-3.0114,-3.0408,-3.0394,-3.0368,-3.0662,-3.0768,-3.0982,-3.169,-3.1303,-3.0955,-3.1543,-3.1236,-3.0822,-3.0728,-3.0996,-3.1276,0.0,0.0,0.0,0.0,0.0,0.0,0.0,-2.8724,0.0,0.0,0.0,0.0,0.0,0.0,0.0,0.0,0.0,-3.1382,-3.2347,-3.5069,-3.5898,-3.4625,-3.9032,-3.9963,-3.7297,-4.1332,-4.347,-4.4062,-4.6771,-4.8271,-4.8667,-5.0301,-5.0703,-5.0098,-5.0156,-4.9766,-4.9121,-4.8945,-4.8867,-4.8867,-4.8867,-4.9414,-5.0176,0.0,0.0,0.0,0.0,0.0,0.0,0.0,-3.3702,0.0,-3.2478,0.0,-3.1445,-3.1445,-3.1113,-3.0898,-3.0898,-3.0937,-3.1133,-3.1504,-3.1324,-3.0755,-2.9581,-2.9137,-2.8306,-2.723,-2.6439,-2.7051,-2.8993,-2.6583,0.0,0.0,0.0,0.0,0.0,0.0,0.0,0.0,-2.4327,-2.4168,-2.4649,-2.4756,-2.5317,-2.6132,-2.672,-2.7281,-2.7843,-2.8444,-2.8831,-2.9045,-2.9085,-2.9299,-2.9553,-2.9579,-2.9793,-3.0034,-3.0074,-3.0448,-3.0915,-3.1209,-3.1102,-3.0982,-3.1263,-3.1129,-3.1102,-3.1864,-3.1396,-3.0942,-3.145,-3.0915,-3.0221,-2.974,-3.0488,-3.1276,0.0,0.0,0.0,0.0,0.0,0.0,0.0,0.0,0.0,0.0,0.0,0.0,0.0,0.0,0.0,0.0,0.0,-3.0541,-2.9993,-3.3987,-3.4975,-3.2599,-3.7809,-3.9308,-3.6963,-3.9431,-4.0789,-4.1212,-4.4268,-4.6038,-4.6878,-4.9655,-5.0804,-5.0781,-5.0351,-4.9883,-4.9394,-4.9004,-4.8867,-4.8867,-4.8867,-4.9414,-5.0176,0.0,0.0,0.0,0.0,0.0,-3.3972,-3.359,-3.3226,-3.2395,-3.0903,-3.0819,-3.0996,-3.0996,-3.0937,-3.0898,-3.0898,-3.1211,0.0,0.0,0.0,-2.9774,-2.9475,-2.7098,-2.562,-2.5419,-2.5844,-2.6084,-2.6004,-2.6583,0.0,0.0,0.0,0.0,0.0,0.0,0.0,-2.6476,-2.5029,0.0,-2.4703,-2.5438,-2.6106,-2.6734,-2.7321,-2.7762,-2.815,-2.8751,-2.8991,-2.9072,-2.9325,-2.9593,-2.9887,-3.0127,-3.0408,-3.0688,-3.0929,-3.1076,-3.1209,-3.1517,-3.1557,-3.1583,-3.1877,-3.173,-3.1557,-3.1704,-3.1249,-3.0822,-3.0929,-3.0635,-3.0408,-3.0541,-3.0728,-3.1049,-3.1583,0.0,0.0,0.0,0.0,0.0,0.0,0.0,-2.9312,0.0,0.0,0.0,0.0,0.0,0.0,0.0,0.0,-3.0635,0.0,-3.1448,-3.234,0.0,-3.4014,-3.4529,-3.4583,-3.6839,-3.8386,-3.8997,-4.1619,-4.4592,-4.7275,-4.796,-4.917,-5.0781,-5.0351,-4.9707,-4.8965,-4.8887,-4.8867,-4.8867,-4.8867,-4.9414,-5.0176,0.0,0.0,0.0,0.0,0.0,0.0,0.0,-3.2272,-3.1652,-3.0995,-3.1074,-3.1211,-3.1211,-3.1016,-3.0976,-3.1191,-3.1406,-3.132,-3.087,-3.0189,-2.9095,-2.7489,-2.6152,-2.4935,-2.3849,-2.4454,-2.4954,-2.5248,-2.5278,0.0,0.0,0.0,0.0,0.0,0.0,-2.6069,0.0,0.0,-2.4957,-2.5157,-2.5892,-2.644,-2.6894,-2.7482,-2.7989,-2.8444,-2.8885,-2.9138,-2.9312,-2.9606,-2.9806,-2.9967,-3.0261,-3.0555,-3.0849,-3.1142,-3.1436,-3.1744,-3.2051,-3.2118,-3.2225,-3.2666,-3.2332,-3.1574,-3.0493,-3.0466,-3.0228,-2.904,-2.9261,-2.9541,-2.8951,-2.9043,-2.914,-2.9507,-2.9442,-2.9608,0.0,0.0,-3.0421,0.0,0.0,0.0,0.0,0.0,0.0,0.0,0.0,0.0,0.0,0.0,-3.0808,0.0,0.0,0.0,-3.2746,0.0,-3.3507,-3.3641,-3.5021,-3.5861,-3.6315,-3.9256,-4.2205,-4.5352,-4.6769,-4.889,-5.1074,-5.0449,-4.9805,-4.918,-4.8945,-4.8867,-4.8867,-4.8867,-4.9414,-5.0176,0.0,-3.6541,0.0,0.0,-3.4076,-3.26,-3.2014,-3.1317,-3.1016,-3.1348,-3.1387,-3.1387,-3.1387,-3.1172,-3.1152,-3.1484,-3.1301,-3.0936,-3.0284,-2.963,-2.8143,-2.5742,-2.554,-2.4787,-2.3198,-2.3647,-2.4355,-2.4926,-2.4038,-2.3928,0.0,0.0,0.0,0.0,0.0,0.0,0.0,0.0,-2.5344,-2.5665,-2.6253,-2.6653,-2.6974,-2.7562,-2.8136,-2.8644,-2.8938,-2.9232,-2.9526,-2.982,-2.9913,-2.998,-3.0341,-3.0608,-3.0862,-3.1223,-3.169,-3.2171,-3.2465,-3.2585,-3.2746,-3.32,-3.2759,-3.1671,-2.9947,-2.9937,-2.9913,-2.7928,-2.8013,-2.8118,-2.7354,-2.6892,-2.6557,-2.693,-2.6919,-2.7611,0.0,0.0,0.0,0.0,0.0,0.0,-3.0488,0.0,0.0,0.0,0.0,0.0,0.0,0.0,0.0,0.0,0.0,-3.2478,-3.2732,0.0,-3.3627,-3.3507,-3.3694,-3.3975,-3.4322,-3.676,-3.9495,-4.2506,-4.4732,-4.7527,-5.0435,-4.9685,-4.9335,-4.9492,-4.9023,-4.8867,-4.8867,-4.8965,-4.9492,-5.0195,0.0,0.0,0.0,0.0,0.0,-3.2014,-3.109,-3.0976,-3.0898,-3.0937,-3.0957,-3.0957,-3.0957,-3.125,-3.1465,-3.1504,-3.0822,-3.0248,-3.0194,-2.7523,-2.5876,-2.5951,-2.4652,-2.3856,-2.3688,-2.4262,-2.4262,-2.3958,-2.4125,-2.3695,-2.2741,-2.3708,0.0,0.0,0.0,-2.5197,-2.5478,-2.5478,-2.5638,-2.5972,-2.6547,-2.6961,-2.7281,-2.7869,-2.831,-2.8644,-2.8938,-2.9232,-2.9526,-2.982,-2.9913,-3.002,-3.0568,-3.0768,-3.0902,-3.1463,-3.1851,-3.2171,-3.2465,-3.2732,-3.2946,-3.3,-3.2759,-3.2305,-3.1178,-3.0876,-3.0608,-2.9726,-2.787,-2.6647,-2.77,-2.5086,-2.333,-2.4717,-2.4002,-2.4148,0.0,0.0,-2.5593,-2.99,0.0,0.0,0.0,-3.0996,0.0,0.0,0.0,0.0,0.0,0.0,0.0,-3.1142,-3.1543,-3.2265,-3.332,-3.3146,-3.332,-3.3841,-3.3574,-3.3761,-3.4322,-3.4541,-3.6477,-3.9683,-3.9874,-4.2733,-4.7198,-4.6586,-4.7739,-4.9492,-4.9023,-4.8867,-4.8906,-4.9316,-4.9766,-5.0234,0.0,0.0,0.0,0.0,0.0,0.0,0.0,-3.0898,-3.0898,-3.0898,-3.0898,-3.0898,-3.0898,-3.1269,-3.1621,-3.1894,-3.0903,-2.9903,-2.9103,-2.6949,-2.5344,-2.44,-2.4195,-2.3941,-2.3768,-2.4342,-2.4356,-2.3768,-2.4235,-2.4222,-2.3754,-2.4235,-2.469,-2.509,-2.5264,-2.5411,-2.5518,-2.5705,-2.5945,-2.6266,-2.6854,-2.7268,-2.7575,-2.7989,-2.8444,-2.8885,-2.8991,-2.9339,-2.9766,-2.9873,-2.9913,-3.002,-3.0608,-3.0795,-3.0915,-3.1503,-3.1998,-3.2398,-3.2519,-3.2879,-3.32,-3.3026,-3.1552,-2.9775,-2.7361,-2.7664,-2.7828,-2.5972,-2.6075,-2.6064,-2.5283,-2.2847,-2.1013,-2.118,-2.2346,-2.379,-2.5834,0.0,0.0,-3.0385,0.0,-2.9711,0.0,0.0,0.0,0.0,0.0,0.0,0.0,0.0,0.0,-3.1476,0.0,-3.2144,-3.3146,-3.3213,-3.336,-3.3601,-3.3293,-3.3561,-3.4309,-3.4135,-3.6075,-3.9477,-4.1092,-4.3842,-4.7113,-4.6716,-4.7902,-4.9883,-4.9433,-4.9101,-4.8906,-4.9355,-4.9805,-5.0156,-3.401,0.0,-3.2851,0.0,-3.1796,-3.123,-3.0937,-3.0898,-3.0898,-3.0898,-3.0898,-3.0937,-3.1055,-3.1445,-3.1634,-3.1673,-3.041,-2.8922,-2.7487,-2.5967,-2.4705,-2.3447,-2.3941,-2.4102,-2.3901,-2.4382,-2.4356,-2.3768,-2.4356,-2.4462,-2.4128,-2.4382,-2.4756,-2.5224,-2.5518,-2.5638,-2.5665,-2.5959,-2.6253,-2.656,-2.7161,-2.7509,-2.7736,-2.803,-2.8511,-2.9045,-2.9045,-2.9419,-2.9913,-2.9913,-2.9913,-3.002,-3.0608,-3.0795,-3.0915,-3.1503,-3.2091,-3.2545,-3.2545,-3.2973,-3.3293,-3.2839,-3.0625,-2.7951,-2.5462,-2.5861,-2.6363,-2.4319,-2.4846,-2.4736,-2.2505,-2.0328,-1.8757,-1.8301,-1.9615,-2.1839,-2.4857,-2.5959,0.0,-2.9416,-2.9679,-2.9891,-2.9819,-3.0779,0.0,0.0,0.0,0.0,0.0,0.0,0.0,0.0,0.0,0.0,-3.2973,-3.3267,-3.3414,-3.3414,-3.3026,-3.3227,-3.3921,-3.3895,-3.5363,-3.8262,-4.008,-4.2506,-4.5117,-4.5334,-4.7016,-4.911,-4.935,-4.9336,-4.9101,-4.9551,-4.9922,-5.0137,-3.3311,-3.3077,-3.2644,-3.1228,-3.0898,-3.0898,-3.0898,-3.0898,-3.0898,-3.0898,-3.0898,-3.1055,-3.1465,-3.1894,-3.1692,-3.0284,-2.8991,-2.7503,-2.5651,-2.4094,-2.346,-2.3754,-2.4048,-2.4209,-2.4195,-2.4489,-2.4356,-2.3768,-2.4356,-2.4035,-2.2899,-2.3794,-2.4676,-2.5518,-2.5825,-2.5959,-2.5972,-2.6266,-2.6547,-2.6867,-2.7455,-2.7696,-2.7736,-2.803,-2.8511,-2.9045,-2.9045,-2.9419,-2.9913,-2.9913,-2.9913,-3.002,-3.0608,-3.0795,-3.0915,-3.1503,-3.2091,-3.2545,-3.2545,-3.2973,-3.32,-3.2332,-3.0348,-2.841,-2.6923,-2.6817,-2.6981,-2.6794,-2.4909,-2.2334,-2.0254,-1.7787,-1.6001,-1.6435,-1.5771,-1.7087,-2.2577,-2.0828,-2.1234,-2.6489,-2.7996,-2.8206,-2.7754,-3.0303,0.0,0.0,0.0,0.0,0.0,0.0,0.0,-3.1236,-3.2078,0.0,-3.2973,-3.3267,-3.3414,-3.34,-3.2826,-3.2706,-3.3013,-3.3614,-3.4362,-3.5191,-3.5191,-3.6831,-3.9653,-4.173,-4.4385,-4.6893,-4.8861,-4.9531,-4.957,-5.0,-5.0176,-5.0176,-3.1632,-3.1536,-3.1441,-3.0995,-3.0898,-3.0898,-3.0898,-3.0898,-3.0898,-3.0898,-3.1133,-3.1484,-3.1914,-3.1058,-3.0277,-3.0158,-2.7818,-2.6039,-2.5517,-2.4289,-2.3768,-2.4048,-2.4543,-2.4796,-2.4796,-2.489,-2.4649,-2.4062,-2.4449,-2.4543,-2.4382,-2.5077,-2.5438,-2.5531,-2.6026,-2.6253,-2.6279,-2.6774,-2.7148,-2.7442,-2.7615,-2.7816,-2.8016,-2.811,-2.8511,-2.9045,-2.9045,-2.9419,-2.9913,-2.9913,-2.9913,-3.002,-3.0608,-3.0795,-3.0915,-3.1503,-3.2091,-3.2545,-3.2545,-3.2973,-3.2749,-2.9904,-2.7628,-2.5187,-2.2005,-2.1525,-2.2082,-2.3926,-2.2373,-2.0439,-2.0055,-1.7757,-1.6056,-1.6198,-1.7245,-1.8671,-1.9993,-2.233,-2.4399,-2.6306,-2.8174,-2.9538,-2.9832,-3.0634,0.0,0.0,0.0,0.0,0.0,0.0,0.0,0.0,-3.2091,0.0,-3.2973,-3.3267,-3.3213,-3.2812,-3.2225,-3.1891,-3.1824,-3.2812,-3.3641,-3.4322,-3.4509,-3.6439,-3.927,-4.0179,-4.181,-4.3954,-4.4719,-4.5859,-4.7239,-4.7646,-4.8632,-4.9687,-3.0898,-3.0898,-3.0898,-3.0898,-3.0898,-3.0898,-3.0898,-3.0898,-3.0898,-3.0898,-3.125,-3.144,-3.1218,-2.9743,-2.8968,-2.9351,-2.6978,-2.5307,-2.4775,-2.4176,-2.3941,-2.4342,-2.4716,-2.497,-2.5077,-2.497,-2.473,-2.4369,-2.477,-2.517,-2.5585,-2.6066,-2.6186,-2.6026,-2.6507,-2.672,-2.6747,-2.7228,-2.7535,-2.7709,-2.7816,-2.7976,-2.8136,-2.8136,-2.8511,-2.9045,-2.9045,-2.9419,-2.9913,-2.9913,-2.9913,-3.002,-3.0608,-3.0795,-3.0915,-3.1503,-3.2091,-3.2545,-3.2545,-3.2973,-3.2589,-2.9175,-2.6573,-2.3839,-1.9871,-1.9175,-1.9664,-2.129,-2.0526,-1.9369,-1.8584,-1.7253,-1.6083,-1.6083,-1.7312,-1.8471,-1.9013,-2.1563,-2.391,-2.5021,-2.7437,-2.897,0.0,-3.0542,-3.1263,0.0,0.0,0.0,0.0,0.0,-3.1597,-3.1931,-3.2158,-3.2492,-3.2973,-3.316,-3.3013,-3.2532,-3.173,-3.1303,-3.1249,-3.1984,-3.2772,-3.3561,-3.3975,-3.5431,-3.7515,-3.8767,-4.0164,-4.1575,-4.2438,-4.4248,-4.6445,-4.6698,-4.7865,-4.9473,-3.0898,-3.0898,-3.0898,-3.0898,-3.0898,-3.0898,-3.0898,-3.0898,-3.0898,-3.0937,-3.1171,-3.0838,-2.9723,-2.8205,-2.754,-2.7999,-2.6306,-2.4732,-2.344,-2.3621,-2.4062,-2.4636,-2.4703,-2.4863,-2.513,-2.4863,-2.4716,-2.4703,-2.5291,-2.5852,-2.64,-2.6707,-2.6854,-2.6867,-2.7161,-2.7295,-2.7321,-2.7602,-2.7722,-2.7749,-2.803,-2.8136,-2.8136,-2.8136,-2.8511,-2.9045,-2.9045,-2.9419,-2.9913,-2.9913,-2.9913,-3.002,-3.0608,-3.0795,-3.0915,-3.1503,-3.2091,-3.2545,-3.2545,-3.2973,-3.252,-2.919,-2.6282,-2.3275,-1.9791,-1.9063,-1.9071,-1.9055,-1.9204,-1.8614,-1.6446,-1.6083,-1.6083,-1.6083,-1.5961,-1.6636,-1.8931,-1.9212,-2.0193,-2.3238,-2.5681,-2.7157,-2.7245,-3.0026,-3.1423,0.0,0.0,0.0,0.0,0.0,-3.2385,-3.1784,-3.2291,-3.2692,-3.2946,-3.2933,-3.2759,-3.2438,-3.1303,-3.0902,-3.1169,-3.1169,-3.1797,-3.2919,-3.3507,-3.3975,-3.4555,-3.775,-3.9033,-3.924,-4.1341,-4.3822,-4.6217,-4.6217,-4.7287,-4.8833,-3.0898,-3.0898,-3.0898,-3.0898,-3.0898,-3.0898,-3.0898,-3.0898,-3.0996,-3.1328,-3.0596,-2.9989,-3.0014,-2.754,-2.5962,-2.6172,-2.4588,-2.3392,-2.33,-2.3808,-2.4356,-2.4957,-2.5398,-2.5678,-2.5745,-2.5678,-2.5531,-2.5304,-2.5892,-2.6253,-2.64,-2.6921,-2.7161,-2.7175,-2.7468,-2.7602,-2.7615,-2.7909,-2.8043,-2.8043,-2.811,-2.8136,-2.8136,-2.8136,-2.8511,-2.9045,-2.9045,-2.9419,-2.9913,-2.9913,-2.9913,-3.002,-3.0608,-3.0795,-3.0915,-3.1503,-3.2091,-3.2545,-3.2545,-3.2973,-3.2106,-2.7157,-2.2059,-1.7855,-1.6681,-1.6681,-1.6731,-1.6423,-1.6615,-1.6821,-1.6275,-1.6083,-1.6083,-1.6083,-1.6049,-1.6179,-1.6643,-1.8285,-2.0289,-2.2645,-2.512,-2.7498,-2.9518,-3.0492,-3.1316,-3.2078,0.0,-3.3133,-3.344,-3.3734,-3.3521,-3.2692,-3.2799,-3.2799,-3.2652,-3.2425,-3.2051,-3.153,-3.0808,-3.0501,-3.0568,-3.0568,-3.1089,-3.1998,-3.2372,-3.3213,-3.4336,-3.5075,-3.5803,-3.6202,-3.6747,-3.8752,-4.0967,-4.0967,-4.198,-4.3383,-3.0898,-3.0898,-3.0898,-3.0898,-3.0898,-3.0898,-3.0898,-3.0898,-3.1035,-3.1465,-3.0363,-2.9368,-2.8997,-2.6883,-2.5113,-2.4317,-2.353,-2.3207,-2.3514,-2.4075,-2.4663,-2.5251,-2.5585,-2.5879,-2.6146,-2.5892,-2.5879,-2.6106,-2.6426,-2.6787,-2.7201,-2.7522,-2.7669,-2.7669,-2.7829,-2.7896,-2.7909,-2.807,-2.8136,-2.8136,-2.8136,-2.8136,-2.8136,-2.8136,-2.843,-2.8858,-2.8991,-2.9339,-2.974,-2.9873,-2.9913,-2.9993,-3.0448,-3.0688,-3.0875,-3.133,-3.1877,-3.2372,-3.2505,-3.2051,-3.0076,-2.4366,-1.9792,-1.6361,-1.5852,-1.5798,-1.5832,-1.575,-1.5866,-1.6001,-1.6069,-1.6083,-1.6083,-1.6083,-1.6083,-1.6049,-1.5967,-1.6998,-1.8584,-2.0928,-2.3293,-2.5742,-2.8282,-2.986,-3.1116,-3.1891,-3.2478,-3.2946,-3.3253,-3.3427,-3.3347,-3.2986,-3.2853,-3.2639,-3.2345,-3.1784,-3.1343,-3.1022,-3.0434,-3.0221,-3.0354,-3.0221,-3.0568,-3.1289,-3.1717,-3.2666,-3.3935,-3.4215,-3.467,-3.5191,-3.5191,-3.6831,-3.924,-3.8926,-3.995,-4.1282,-3.0898,-3.0898,-3.0898,-3.0898,-3.0898,-3.0898,-3.0898,-3.0937,-3.1133,-3.1562,-3.0211,-2.8828,-2.7668,-2.6136,-2.4481,-2.3063,-2.322,-2.3514,-2.3821,-2.4382,-2.497,-2.5558,-2.5625,-2.5879,-2.6373,-2.5905,-2.6039,-2.6827,-2.6867,-2.7295,-2.8083,-2.8123,-2.8136,-2.8136,-2.8136,-2.8136,-2.8136,-2.8136,-2.8136,-2.8136,-2.8136,-2.8136,-2.8136,-2.8136,-2.8337,-2.8644,-2.8938,-2.9232,-2.9526,-2.982,-2.9913,-2.9967,-3.0261,-3.0371,-3.028,-3.0942,-3.1028,-3.0921,-3.1841,-2.9983,-2.6508,-2.1801,-1.877,-1.6754,-1.6022,-1.5872,-1.5872,-1.5832,-1.5859,-1.592,-1.6029,-1.6083,-1.6144,-1.6232,-1.6191,-1.6178,-1.6273,-1.5967,-1.6738,-1.915,-2.0998,-2.3138,-2.5717,-2.8644,-3.0451,-3.07,-3.1686,-3.2345,-3.2599,-3.2652,-3.2746,-3.2906,-3.2585,-3.2225,-3.1851,-3.1142,-3.0795,-3.0782,-3.0287,-3.0181,-3.0421,-3.0074,-3.0234,-3.0822,-3.1316,-3.2265,-3.348,-3.3975,-3.4576,-3.5191,-3.5191,-3.6621,-3.859,-3.7942,-3.8646,-4.0078,-3.0898,-3.0898,-3.0898,-3.0898,-3.0898,-3.0898,-3.0898,-3.1191,-3.1582,-3.2012,-2.9619,-2.7944,-2.8048,-2.5233,-2.3241,-2.3233,-2.3527,-2.3821,-2.4115,-2.469,-2.5277,-2.5865,-2.6119,-2.6293,-2.6386,-2.6306,-2.644,-2.6827,-2.7068,-2.7388,-2.7776,-2.803,-2.8136,-2.8136,-2.8136,-2.8136,-2.8136,-2.8136,-2.8136,-2.8136,-2.8136,-2.8136,-2.8136,-2.8136,-2.8337,-2.8644,-2.8938,-2.9232,-2.9526,-2.982,-2.9913,-2.9967,-3.0261,-2.9047,-2.7986,-3.0556,-2.8367,-2.5777,-2.8403,-2.5784,-2.2193,-2.0858,-1.8678,-1.6619,-1.5995,-1.5954,-1.5974,-1.5723,-1.5872,-1.6015,-1.5906,-1.6103,-1.6442,-1.6937,-1.67,-1.6632,-1.7141,-1.6632,-1.7149,-1.9372,-1.9919,-2.0855,-2.3361,-2.642,-2.826,-2.8296,-3.1179,-3.2866,-3.2906,-3.316,-3.3093,-3.2625,-3.2091,-3.1423,-3.0635,-3.0742,-3.0795,-3.0795,-3.0702,-3.0675,-3.0702,-3.0167,-3.0234,-3.0795,-3.0889,-3.1877,-3.3427,-3.3521,-3.4202,-3.5191,-3.5191,-3.5401,-3.5741,-3.5143,-3.472,-3.4871,-3.0898,-3.0898,-3.0898,-3.0898,-3.0898,-3.0898,-3.0898,-3.125,-3.168,-3.2109,-2.9456,-2.7637,-2.813,-2.4993,-2.2993,-2.33,-2.3741,-2.4195,-2.4649,-2.5077,-2.5571,-2.6159,-2.6319,-2.6386,-2.6386,-2.6386,-2.6613,-2.7068,-2.7201,-2.7495,-2.7936,-2.8083,-2.8136,-2.8136,-2.8136,-2.8136,-2.8136,-2.8136,-2.8136,-2.8136,-2.8136,-2.8136,-2.8136,-2.8136,-2.823,-2.839,-2.8698,-2.8991,-2.9285,-2.9579,-2.8873,-2.7908,-2.8045,-2.6676,-2.5119,-2.6559,-2.667,-2.6048,-2.4477,-2.2774,-2.087,-1.9091,-1.7576,-1.6653,-1.6293,-1.6083,-1.594,-1.5886,-1.592,-1.5961,-1.5974,-1.6157,-1.6402,-1.6673,-1.6605,-1.6619,-1.6897,-1.6503,-1.6585,-1.7777,-1.8825,-1.994,-2.0909,-2.3667,-2.53,-2.543,-2.6908,-2.8545,-3.0078,-3.0078,-3.0741,-3.1837,-3.157,-3.1156,-3.0595,-3.0728,-3.0875,-3.1022,-3.0862,-3.0795,-3.0782,-3.0354,-3.0394,-3.0795,-3.0795,-3.1784,-3.3414,-3.3427,-3.4122,-3.5191,-3.5191,-3.5191,-3.5084,-3.4175,-3.3654,-3.3479,-3.0898,-3.0898,-3.0898,-3.0898,-3.0898,-3.0898,-3.0898,-3.1328,-3.1797,-3.2129,-2.9527,-2.7866,-2.8147,-2.4993,-2.302,-2.3394,-2.3901,-2.4476,-2.5144,-2.5451,-2.5879,-2.6466,-2.6493,-2.6453,-2.6386,-2.6386,-2.664,-2.7161,-2.7228,-2.7535,-2.8043,-2.811,-2.8136,-2.8136,-2.8136,-2.8136,-2.8136,-2.8136,-2.8136,-2.8136,-2.8136,-2.8136,-2.8136,-2.8136,-2.8136,-2.8177,-2.8497,-2.8791,-2.8911,-2.866,-2.7479,-2.6048,-2.5491,-2.3974,-2.2446,-2.3014,-2.4767,-2.5461,-2.073,-1.9862,-1.9773,-1.7622,-1.6836,-1.6666,-1.6544,-1.6205,-1.5927,-1.6008,-1.5934,-1.5886,-1.6008,-1.6185,-1.6368,-1.6537,-1.6605,-1.668,-1.6815,-1.6456,-1.6225,-1.6347,-1.7742,-1.8665,-1.8785,-2.0982,-2.248,-2.2645,-2.3232,-2.4469,-2.6795,-2.7198,-2.8637,-3.1142,-3.1196,-3.1022,-3.0795,-3.0862,-3.1009,-3.1223,-3.0929,-3.0795,-3.0782,-3.0421,-3.0448,-3.0795,-3.0795,-3.1797,-3.3427,-3.3427,-3.4135,-3.5191,-3.5191,-3.5191,-3.5057,-3.3868,-3.3427,-3.324,-3.0898,-3.0898,-3.0898,-3.0898,-3.0898,-3.0898,-3.0898,-3.1601,-3.2129,-3.2168,-2.9775,-2.8147,-2.8163,-2.4993,-2.31,-2.3688,-2.4022,-2.4569,-2.5424,-2.5758,-2.6186,-2.676,-2.6787,-2.6667,-2.64,-2.6386,-2.6547,-2.6854,-2.7134,-2.7428,-2.7736,-2.8016,-2.8136,-2.8136,-2.8136,-2.8136,-2.8136,-2.8136,-2.8136,-2.8136,-2.8136,-2.8136,-2.8136,-2.8136,-2.8136,-2.8177,-2.8497,-2.8791,-2.8723,-2.6674,-2.6198,-2.5866,-2.3473,-2.1367,-2.0002,-2.2446,-2.2151,-2.0317,-1.7487,-1.6852,-1.7016,-1.6944,-1.6761,-1.6537,-1.6524,-1.6286,-1.6029,-1.59,-1.5859,-1.5859,-1.5866,-1.611,-1.6537,-1.7229,-1.7121,-1.7141,-1.7684,-1.7026,-1.649,-1.6503,-1.6433,-1.6247,-1.6254,-1.8781,-2.0132,-2.0345,-2.2488,-2.4054,-2.4269,-2.6398,-2.8919,-3.1637,-3.1116,-3.0808,-3.0795,-3.1062,-3.1209,-3.1223,-3.0929,-3.0795,-3.0768,-3.0207,-3.0261,-3.0795,-3.0795,-3.1797,-3.344,-3.3427,-3.4122,-3.5191,-3.5191,-3.5191,-3.5044,-3.3855,-3.3414,-3.324,-3.0898,-3.0898,-3.0898,-3.0898,-3.0898,-3.0976,-3.123,-3.1797,-3.2266,-3.2519,-3.0974,-2.9344,-2.8295,-2.6237,-2.4524,-2.387,-2.4369,-2.497,-2.5478,-2.5959,-2.6319,-2.6547,-2.672,-2.668,-2.64,-2.6386,-2.6533,-2.6827,-2.6934,-2.7148,-2.7428,-2.7549,-2.7696,-2.7869,-2.7869,-2.7963,-2.8136,-2.8136,-2.803,-2.7869,-2.7869,-2.7762,-2.7602,-2.7602,-2.7709,-2.7883,-2.8003,-2.847,-2.8696,-2.6303,-2.4801,-2.3473,-2.1083,-1.8682,-1.7039,-1.8391,-1.8286,-1.7399,-1.6653,-1.6632,-1.6809,-1.7053,-1.6958,-1.6781,-1.6686,-1.6503,-1.6286,-1.6042,-1.5995,-1.5995,-1.5995,-1.6171,-1.6402,-1.6686,-1.6714,-1.6775,-1.6998,-1.6659,-1.6388,-1.6388,-1.6205,-1.6083,-1.6083,-1.7062,-1.7642,-1.7642,-1.8426,-1.979,-2.1343,-2.387,-2.6602,-2.9135,-2.9128,-2.9797,-3.133,-3.145,-3.1503,-3.149,-3.1209,-3.0969,-3.0782,-3.0381,-3.0408,-3.0795,-3.0795,-3.1797,-3.3427,-3.3414,-3.4122,-3.5191,-3.5191,-3.5191,-3.5057,-3.3868,-3.3427,-3.324,-3.1113,-3.1094,-3.1055,-3.0918,-3.0898,-3.1035,-3.1445,-3.1894,-3.2324,-3.2734,-3.1574,-3.0125,-2.8427,-2.6884,-2.5469,-2.3883,-2.4569,-2.5197,-2.5491,-2.6066,-2.6386,-2.6386,-2.6667,-2.668,-2.64,-2.6386,-2.6493,-2.668,-2.6774,-2.6921,-2.7134,-2.7228,-2.7375,-2.7562,-2.7562,-2.7629,-2.7736,-2.7829,-2.7696,-2.7428,-2.7522,-2.7442,-2.7268,-2.7268,-2.7442,-2.7696,-2.7696,-2.827,-2.8496,-2.5278,-2.3454,-2.2004,-1.8685,-1.6626,-1.5533,-1.5778,-1.5961,-1.6144,-1.6442,-1.6598,-1.6761,-1.7107,-1.7087,-1.6937,-1.6788,-1.6632,-1.6435,-1.6144,-1.6042,-1.6029,-1.6076,-1.6171,-1.6252,-1.63,-1.6429,-1.6524,-1.6524,-1.6402,-1.6307,-1.6307,-1.6178,-1.6083,-1.6083,-1.6083,-1.6083,-1.6083,-1.6083,-1.7253,-1.9782,-2.1735,-2.388,-2.6409,-2.7384,-2.8752,-3.0496,-3.1284,-3.1664,-3.1664,-3.1276,-3.0982,-3.0782,-3.0488,-3.0621,-3.1076,-3.1169,-3.2158,-3.3694,-3.3694,-3.4282,-3.5191,-3.5191,-3.5191,-3.507,-3.4082,-3.3587,-3.328,-3.1601,-3.1523,-3.1387,-3.0976,-3.0898,-3.1035,-3.1465,-3.1894,-3.2324,-3.2734,-3.172,-3.0125,-2.8427,-2.6884,-2.5484,-2.3883,-2.4583,-2.5211,-2.5504,-2.6066,-2.6386,-2.6386,-2.6667,-2.668,-2.64,-2.6386,-2.6386,-2.6386,-2.668,-2.6814,-2.6827,-2.7121,-2.7255,-2.7268,-2.7255,-2.7094,-2.6841,-2.7134,-2.7094,-2.6841,-2.7134,-2.7255,-2.7255,-2.7255,-2.7442,-2.7696,-2.7696,-2.827,-2.8147,-2.3311,-2.2001,-2.1636,-1.6658,-1.5391,-1.5669,-1.5811,-1.5961,-1.6144,-1.6442,-1.6524,-1.6625,-1.708,-1.7087,-1.6944,-1.6788,-1.6632,-1.6435,-1.6144,-1.5961,-1.59,-1.6056,-1.6083,-1.613,-1.6286,-1.6429,-1.6517,-1.6517,-1.6395,-1.6307,-1.6307,-1.6178,-1.6083,-1.6083,-1.6083,-1.6083,-1.6083,-1.6083,-1.7253,-1.9782,-1.9978,-2.1147,-2.388,-2.6409,-2.778,-2.778,-3.0306,-3.1664,-3.1664,-3.1076,-3.0795,-3.0782,-3.0501,-3.0849,-3.169,-3.1984,-3.2946,-3.4322,-3.4322,-3.467,-3.5191,-3.5191,-3.5191,-3.5124,-3.4536,-3.3948,-3.336,-3.2012,-3.1738,-3.1484,-3.1348,-3.1094,-3.1133,-3.1855,-3.209,-3.2422,-3.3144,-3.2815,-3.1543,-2.8777,-2.8316,-2.7031,-2.4323,-2.4877,-2.5598,-2.6092,-2.6293,-2.6386,-2.6386,-2.6466,-2.6573,-2.6694,-2.6493,-2.6386,-2.6386,-2.648,-2.652,-2.652,-2.6613,-2.676,-2.6947,-2.6747,-2.672,-2.6814,-2.6694,-2.66,-2.6533,-2.6613,-2.6653,-2.6653,-2.6653,-2.6961,-2.7402,-2.7402,-2.7071,-2.5994,-2.2778,-2.0915,-1.9427,-1.6292,-1.5391,-1.5649,-1.5689,-1.5879,-1.6123,-1.632,-1.6442,-1.6605,-1.6958,-1.7087,-1.7066,-1.6809,-1.6632,-1.6469,-1.6279,-1.6035,-1.59,-1.6056,-1.6083,-1.6096,-1.6144,-1.6185,-1.6212,-1.6212,-1.6178,-1.6151,-1.6151,-1.611,-1.6083,-1.6083,-1.6083,-1.6083,-1.6083,-1.6083,-1.6474,-1.7253,-1.7253,-1.8426,-2.1147,-2.193,-2.4074,-2.778,-3.0306,-3.157,-3.1356,-3.0969,-3.0688,-3.0501,-3.0822,-3.1223,-3.1704,-3.2412,-3.332,-3.4322,-3.4322,-3.467,-3.5191,-3.5191,-3.5191,-3.5124,-3.4536,-3.3935,-3.3334,-3.2441,-3.2207,-3.1914,-3.1582,-3.1582,-3.1758,-3.2109,-3.2461,-3.2851,-3.3359,-3.3574,-3.2448,-2.8943,-2.9018,-2.7881,-2.4471,-2.501,-2.5758,-2.6346,-2.6386,-2.644,-2.656,-2.6453,-2.6466,-2.664,-2.6587,-2.6507,-2.6386,-2.6386,-2.6386,-2.6386,-2.6386,-2.6426,-2.6466,-2.6293,-2.6186,-2.6132,-2.6066,-2.5972,-2.5892,-2.6119,-2.6226,-2.6226,-2.6346,-2.676,-2.7268,-2.7268,-2.6474,-2.4925,-2.26,-1.9825,-1.7211,-1.5737,-1.5391,-1.5642,-1.5642,-1.5852,-1.6117,-1.6266,-1.6415,-1.6578,-1.6829,-1.7039,-1.7114,-1.6815,-1.6768,-1.668,-1.63,-1.6164,-1.609,-1.6008,-1.6042,-1.6083,-1.6083,-1.6083,-1.6083,-1.6083,-1.6083,-1.6083,-1.6083,-1.6083,-1.6083,-1.6083,-1.6083,-1.6083,-1.6083,-1.6083,-1.6083,-1.6083,-1.6083,-1.6864,-1.8426,-1.9388,-2.1502,-2.4532,-2.7222,-2.8888,-2.9683,-2.9301,-2.9199,-2.9551,-3.0848,-3.1824,-3.2585,-3.3227,-3.3948,-3.467,-3.467,-3.4803,-3.503,-3.503,-3.503,-3.4977,-3.4629,-3.4042,-3.3374,-3.293,-3.2812,-3.2559,-3.1758,-3.2285,-3.2676,-3.2344,-3.293,-3.3437,-3.3476,-3.3828,-3.273,-2.901,-2.9231,-2.8256,-2.4526,-2.5024,-2.5758,-2.6346,-2.6386,-2.6507,-2.6774,-2.656,-2.6413,-2.6386,-2.6653,-2.6667,-2.6426,-2.64,-2.6386,-2.6386,-2.6386,-2.6239,-2.5959,-2.5932,-2.5611,-2.509,-2.5331,-2.5291,-2.513,-2.5692,-2.5932,-2.5999,-2.6306,-2.6613,-2.6941,-2.6954,-2.5979,-2.4218,-2.1929,-1.8409,-1.5181,-1.5181,-1.5391,-1.5642,-1.5642,-1.5852,-1.611,-1.6252,-1.6395,-1.6537,-1.6693,-1.6944,-1.7087,-1.6829,-1.6958,-1.6944,-1.63,-1.632,-1.6347,-1.5981,-1.5995,-1.6069,-1.6083,-1.6083,-1.6083,-1.6083,-1.6083,-1.6083,-1.6083,-1.6083,-1.6083,-1.6083,-1.6083,-1.6083,-1.6083,-1.6083,-1.6083,-1.6083,-1.6083,-1.6083,-1.6083,-1.8403,-1.9681,-1.9716,-2.1971,-2.444,-2.7121,-2.6864,-2.7215,-2.8117,-3.0561,-3.2559,-3.3908,-3.4242,-3.4696,-3.5191,-3.5164,-3.5004,-3.4763,-3.4736,-3.4723,-3.4723,-3.475,-3.4189,-3.34,-3.3301,-3.3027,-3.2734,-3.2559,-3.2676,-3.2871,-3.3105,-3.3301,-3.3535,-3.3887,-3.4023,-3.2842,-2.9224,-2.9379,-2.8365,-2.481,-2.5144,-2.5758,-2.6346,-2.6386,-2.6413,-2.648,-2.664,-2.6613,-2.6386,-2.6453,-2.656,-2.6734,-2.6507,-2.6386,-2.6386,-2.6386,-2.6239,-2.5945,-2.5718,-2.5411,-2.5064,-2.4903,-2.4917,-2.5117,-2.5464,-2.5745,-2.6012,-2.6533,-2.5788,-2.4613,-2.4818,-2.2665,-1.9446,-1.738,-1.6047,-1.5181,-1.5181,-1.5391,-1.5642,-1.5642,-1.5852,-1.609,-1.6123,-1.6239,-1.6388,-1.6537,-1.6707,-1.6863,-1.6917,-1.6795,-1.6686,-1.6768,-1.6368,-1.6076,-1.6327,-1.6117,-1.594,-1.6062,-1.6083,-1.6083,-1.6083,-1.6083,-1.6083,-1.6083,-1.6083,-1.6083,-1.6083,-1.6083,-1.6083,-1.6083,-1.6083,-1.6083,-1.6083,-1.6083,-1.6083,-1.6083,-1.6546,-1.7825,-1.9716,-1.8096,-1.9466,-2.3967,-2.6119,-2.7298,-2.7676,-3.1089,-3.3133,-3.3935,-3.4683,-3.5084,-3.5177,-3.495,-3.4817,-3.4736,-3.4509,-3.4416,-3.4442,-3.4683,-3.4055,-3.3053,-3.3418,-3.3242,-3.3027,-3.2832,-3.3301,-3.3633,-3.3457,-3.3945,-3.4355,-3.4375,-3.457,-3.3406,-2.9743,-2.9675,-2.8694,-2.531,-2.5331,-2.5758,-2.6346,-2.6386,-2.6386,-2.6386,-2.6533,-2.6613,-2.66,-2.6466,-2.6466,-2.6613,-2.66,-2.6533,-2.6386,-2.6386,-2.6239,-2.5945,-2.5651,-2.5344,-2.5064,-2.4756,-2.473,-2.4903,-2.5344,-2.5692,-2.6026,-2.66,-2.559,-2.3948,-2.4088,-2.1669,-1.7846,-1.5817,-1.5181,-1.5181,-1.5181,-1.5391,-1.5642,-1.5642,-1.5852,-1.6083,-1.6083,-1.6191,-1.6341,-1.6483,-1.6639,-1.6788,-1.6944,-1.691,-1.6829,-1.6775,-1.6619,-1.6435,-1.6239,-1.613,-1.6049,-1.5981,-1.5974,-1.6001,-1.6069,-1.6083,-1.6083,-1.6083,-1.6083,-1.6083,-1.6083,-1.6083,-1.6083,-1.6083,-1.6083,-1.6049,-1.5974,-1.5974,-1.594,-1.5872,-1.5791,-1.6292,-1.7743,-1.6394,-1.6951,-1.9611,-2.2173,-2.4556,-2.6588,-2.9882,-3.2557,-3.4536,-3.4857,-3.499,-3.4963,-3.467,-3.4469,-3.4322,-3.4175,-3.4108,-3.4148,-3.4442,-3.3975,-3.316,-3.3418,-3.3418,-3.334,-3.3066,-3.3945,-3.4492,-3.3848,-3.4687,-3.5254,-3.4863,-3.5156,-3.3989,-3.006,-2.9531,-2.8313,-2.5756,-2.5518,-2.5758,-2.6346,-2.6386,-2.6386,-2.6386,-2.6386,-2.6507,-2.6747,-2.656,-2.6493,-2.6533,-2.668,-2.6653,-2.6466,-2.6413,-2.6239,-2.5945,-2.5651,-2.5344,-2.5064,-2.4756,-2.4636,-2.469,-2.5331,-2.5577,-2.5544,-2.6053,-2.4931,-2.3112,-2.3157,-2.0656,-1.731,-1.5817,-1.5181,-1.5181,-1.5181,-1.5391,-1.5642,-1.5642,-1.5852,-1.6083,-1.6083,-1.6178,-1.6307,-1.6449,-1.6598,-1.6761,-1.6937,-1.7073,-1.706,-1.6707,-1.687,-1.6849,-1.6103,-1.611,-1.6144,-1.5859,-1.5839,-1.59,-1.6029,-1.6069,-1.6083,-1.6083,-1.6083,-1.6083,-1.6083,-1.6083,-1.6083,-1.6083,-1.6083,-1.6015,-1.5859,-1.5852,-1.5784,-1.5642,-1.5662,-1.5615,-1.5486,-1.5784,-1.5934,-1.5934,-1.8174,-2.1217,-2.5333,-2.82,-3.161,-3.511,-3.487,-3.4736,-3.467,-3.4376,-3.4108,-3.3881,-3.3828,-3.3801,-3.3841,-3.4082,-3.3841,-3.3414,-3.3418,-3.3418,-3.3516,-3.3848,-3.4336,-3.4805,-3.5078,-3.5273,-3.5371,-3.5312,-3.5351,-3.3989,-3.006,-2.7152,-2.5445,-2.5464,-2.5518,-2.5758,-2.6346,-2.6386,-2.6386,-2.6386,-2.6386,-2.6413,-2.6453,-2.6653,-2.6894,-2.7148,-2.668,-2.656,-2.676,-2.6507,-2.6239,-2.5945,-2.5651,-2.5344,-2.5064,-2.4756,-2.4636,-2.4716,-2.5558,-2.479,-2.3016,-2.4163,-2.1853,-1.8189,-1.8521,-1.7105,-1.5146,-1.5265,-1.5181,-1.5181,-1.5181,-1.5391,-1.5642,-1.5642,-1.5852,-1.6083,-1.6083,-1.6096,-1.6151,-1.63,-1.6442,-1.6625,-1.6917,-1.6992,-1.7026,-1.7087,-1.6842,-1.6571,-1.6456,-1.6151,-1.5859,-1.5696,-1.5771,-1.5859,-1.5879,-1.5995,-1.6083,-1.6083,-1.6083,-1.6083,-1.6083,-1.6083,-1.6083,-1.6083,-1.6083,-1.6015,-1.5859,-1.5852,-1.5784,-1.5642,-1.5757,-1.5811,-1.5791,-1.6096,-1.6246,-1.6252,-1.7176,-2.0361,-2.582,-2.8617,-3.1696,-3.4817,-3.4776,-3.4616,-3.4362,-3.4068,-3.3921,-3.3855,-3.3587,-3.348,-3.348,-3.3521,-3.3494,-3.34,-3.3418,-3.3418,-3.3555,-3.4004,-3.4414,-3.4863,-3.5332,-3.5586,-3.5317,-3.4327,-3.419,-3.278,-2.8822,-2.6125,-2.4877,-2.5464,-2.5518,-2.5758,-2.6346,-2.6386,-2.6386,-2.6386,-2.6386,-2.6386,-2.6386,-2.652,-2.672,-2.7014,-2.676,-2.6694,-2.6814,-2.6694,-2.656,-2.6426,-2.6132,-2.5838,-2.5545,-2.5251,-2.513,-2.5184,-2.5905,-2.499,-2.3097,-2.3843,-2.148,-1.7505,-1.6387,-1.5514,-1.4787,-1.5079,-1.5181,-1.5181,-1.5181,-1.5391,-1.5642,-1.5642,-1.5852,-1.6083,-1.6083,-1.6083,-1.6117,-1.6273,-1.6354,-1.6503,-1.689,-1.6978,-1.7019,-1.7161,-1.71,-1.6924,-1.6585,-1.6429,-1.6225,-1.5825,-1.5811,-1.5825,-1.5744,-1.5859,-1.5988,-1.6069,-1.6083,-1.6083,-1.6083,-1.6083,-1.6049,-1.5961,-1.5954,-1.5852,-1.5615,-1.5608,-1.5615,-1.5642,-1.5703,-1.5852,-1.6103,-1.6402,-1.6639,-1.6809,-1.7243,-2.0308,-2.5964,-2.7155,-3.0364,-3.475,-3.4416,-3.4202,-3.4055,-3.3748,-3.3614,-3.3614,-3.3467,-3.3614,-3.3921,-3.3921,-3.3708,-3.3427]},{"header":{"parameterUnit":"m.s-1","parameterCategory":1,"la1":30.6,"la2":28.766,"lo1":-90.7593,"lo2":-88.6598,"dx":0.0162,"dy":0.0183,"nx":116,"ny":114,"refTime":"2022-12-27T06:00:00:Z","depth":0,"parameterNumber":3,"parameterNumberName":"V-component_of_WINDS"},"data":[0.0,0.0,0.0,0.0,0.0,0.0,0.0,0.0,0.0,0.0,0.0,0.0,0.0,0.0,0.0,0.0,0.0,0.0,0.0,0.0,0.0,0.0,0.0,0.0,0.0,0.0,0.0,0.0,0.0,0.0,0.0,0.0,0.0,0.0,0.0,0.0,0.0,0.0,0.0,0.0,0.0,0.0,0.0,0.0,0.0,0.0,0.0,0.0,0.0,0.0,0.0,0.0,0.0,0.0,0.0,0.0,0.0,0.0,0.0,0.0,0.0,0.0,0.0,0.0,0.0,0.0,0.0,0.0,0.0,0.0,0.0,0.0,0.0,0.0,0.0,0.0,0.0,0.0,0.0,0.0,0.0,0.0,0.0,0.0,0.0,0.0,0.0,0.0,0.0,0.0,0.0,0.0,0.0,0.0,0.0,0.0,0.0,0.0,0.0,0.0,0.0,0.0,0.0,0.0,0.0,0.0,0.0,0.0,0.0,0.0,0.0,0.0,0.0,0.0,0.0,0.0,0.0,0.0,0.0,0.0,0.0,0.0,0.0,0.0,0.0,0.0,0.0,0.0,0.0,0.0,0.0,0.0,0.0,0.0,0.0,0.0,0.0,0.0,0.0,0.0,0.0,0.0,0.0,0.0,0.0,0.0,0.0,0.0,0.0,0.0,0.0,0.0,0.0,0.0,0.0,0.0,0.0,0.0,0.0,0.0,0.0,0.0,0.0,0.0,0.0,0.0,0.0,0.0,0.0,0.0,0.0,0.0,0.0,0.0,0.0,0.0,0.0,0.0,0.0,0.0,0.0,0.0,0.0,0.0,0.0,0.0,0.0,0.0,0.0,0.0,0.0,0.0,0.0,0.0,0.0,0.0,0.0,0.0,0.0,0.0,0.0,0.0,0.0,0.0,0.0,0.0,0.0,0.0,0.0,0.0,0.0,0.0,0.0,0.0,0.0,0.0,0.0,0.0,0.0,0.0,0.0,0.0,0.0,0.0,0.0,0.0,0.0,0.0,0.0,0.0,0.0,0.0,0.0,0.0,0.0,0.0,0.0,0.0,0.0,0.0,0.0,0.0,0.0,0.0,0.0,0.0,0.0,0.0,0.0,0.0,0.0,0.0,0.0,0.0,0.0,0.0,0.0,0.0,0.0,0.0,0.0,0.0,0.0,0.0,0.0,0.0,0.0,0.0,0.0,0.0,0.0,0.0,0.0,0.0,0.0,0.0,0.0,0.0,0.0,0.0,0.0,0.0,0.0,0.0,0.0,0.0,0.0,0.0,0.0,0.0,0.0,0.0,0.0,0.0,0.0,0.0,0.0,0.0,0.0,0.0,0.0,0.0,0.0,0.0,0.0,0.0,0.0,0.0,0.0,0.0,0.0,0.0,0.0,0.0,0.0,0.0,0.0,0.0,0.0,0.0,0.0,0.0,0.0,0.0,0.0,0.0,0.0,0.0,0.0,0.0,0.0,0.0,0.0,0.0,0.0,0.0,0.0,0.0,0.0,0.0,0.0,0.0,0.0,0.0,0.0,0.0,0.0,0.0,0.0,0.0,0.0,0.0,0.0,0.0,0.0,0.0,0.0,0.0,0.0,0.0,0.0,0.0,0.0,0.0,0.0,0.0,0.0,0.0,0.0,0.0,0.0,0.0,0.0,0.0,0.0,0.0,0.0,0.0,0.0,0.0,0.0,0.0,0.0,0.0,0.0,0.0,0.0,0.0,0.0,0.0,0.0,0.0,0.0,0.0,0.0,0.0,0.0,0.0,0.0,0.0,0.0,0.0,0.0,0.0,0.0,0.0,0.0,0.0,0.0,0.0,0.0,0.0,0.0,0.0,0.0,0.0,0.0,0.0,0.0,0.0,0.0,0.0,0.0,0.0,0.0,0.0,0.0,0.0,0.0,0.0,0.0,0.0,0.0,0.0,0.0,0.0,0.0,0.0,0.0,0.0,0.0,0.0,0.0,0.0,0.0,0.0,0.0,0.0,0.0,0.0,0.0,0.0,0.0,0.0,0.0,0.0,0.0,0.0,0.0,0.0,0.0,0.0,0.0,0.0,0.0,0.0,0.0,0.0,0.0,0.0,0.0,0.0,0.0,0.0,0.0,0.0,0.0,0.0,0.0,0.0,0.0,0.0,0.0,0.0,0.0,0.0,0.0,0.0,0.0,0.0,0.0,0.0,0.0,0.0,0.0,0.0,0.0,0.0,0.0,0.0,0.0,0.0,0.0,0.0,0.0,0.0,0.0,0.0,0.0,0.0,0.0,0.0,0.0,0.0,0.0,0.0,0.0,0.0,0.0,0.0,0.0,0.0,0.0,0.0,0.0,0.0,0.0,0.0,0.0,0.0,0.0,0.0,0.0,0.0,0.0,0.0,0.0,0.0,0.0,0.0,0.0,0.0,0.0,0.0,0.0,0.0,0.0,0.0,0.0,0.0,0.0,0.0,0.0,0.0,0.0,0.0,0.0,0.0,0.0,0.0,0.0,0.0,0.0,0.0,0.0,0.0,0.0,0.0,0.0,0.0,0.0,0.0,0.0,0.0,0.0,0.0,0.0,0.0,0.0,0.0,0.0,0.0,0.0,0.0,0.0,0.0,0.0,0.0,0.0,0.0,0.0,0.0,0.0,0.0,0.0,0.0,0.0,0.0,0.0,0.0,0.0,0.0,0.0,0.0,0.0,0.0,0.0,0.0,0.0,0.0,0.0,0.0,0.0,0.0,0.0,0.0,0.0,0.0,0.0,0.0,0.0,0.0,0.0,0.0,0.0,0.0,0.0,0.0,0.0,0.0,0.0,0.0,0.0,0.0,0.0,0.0,0.0,0.0,0.0,0.0,0.0,0.0,0.0,0.0,0.0,0.0,0.0,0.0,0.0,0.0,0.0,0.0,0.0,0.0,0.0,0.0,0.0,0.0,0.0,0.0,0.0,0.0,0.0,0.0,0.0,0.0,0.0,0.0,0.0,0.0,0.0,0.0,0.0,0.0,0.0,0.0,0.0,0.0,0.0,0.0,0.0,0.0,0.0,0.0,0.0,0.0,0.0,0.0,0.0,0.0,0.0,0.0,0.0,0.0,0.0,0.0,0.0,0.0,0.0,0.0,0.0,0.0,0.0,0.0,0.0,0.0,0.0,0.0,0.0,0.0,0.0,0.0,0.0,0.0,0.0,0.0,0.0,0.0,0.0,0.0,0.0,0.0,0.0,0.0,0.0,0.0,0.0,0.0,0.0,0.0,0.0,0.0,0.0,0.0,0.0,0.0,0.0,0.0,0.0,0.0,0.0,0.0,0.0,0.0,0.0,0.0,0.0,0.0,0.0,0.0,0.0,0.0,0.0,0.0,0.0,0.0,0.0,0.0,0.0,0.0,0.0,0.0,0.0,0.0,0.0,0.0,0.0,0.0,0.0,0.0,0.0,0.0,0.0,0.0,0.0,0.0,0.0,0.0,0.0,0.0,0.0,0.0,0.0,0.0,0.0,0.0,0.0,0.0,0.0,0.0,0.0,0.0,0.0,0.0,0.0,0.0,0.0,0.0,0.0,0.0,0.0,0.0,0.0,0.0,0.0,0.0,0.0,0.0,0.0,0.0,0.0,0.0,0.0,0.0,0.0,0.0,0.0,0.0,0.0,0.0,0.0,0.0,0.0,0.0,0.0,0.0,0.0,0.0,0.0,0.0,0.0,0.0,0.0,0.0,0.0,0.0,0.0,0.0,0.0,0.0,0.0,0.0,0.0,0.0,0.0,0.0,0.0,0.0,0.0,0.0,0.0,0.0,0.0,0.0,0.0,0.0,0.0,0.0,0.0,0.0,0.0,0.0,0.0,0.0,0.0,0.0,0.0,0.0,0.0,0.0,0.0,0.0,0.0,0.0,0.0,0.0,0.0,0.0,0.0,0.0,0.0,0.0,0.0,0.0,0.0,0.0,0.0,0.0,0.0,0.0,0.0,0.0,0.0,0.0,0.0,0.0,0.0,0.0,0.0,0.0,0.0,0.0,0.0,0.0,0.0,0.0,0.0,0.0,0.0,0.0,0.0,0.0,0.0,0.0,0.0,0.0,0.0,0.0,0.0,0.0,0.0,0.0,0.0,0.0,0.0,0.0,0.0,0.0,0.0,0.0,0.0,0.0,0.0,0.0,0.0,0.0,0.0,0.0,0.0,0.0,0.0,0.0,0.0,0.0,0.0,0.0,0.0,0.0,0.0,0.0,0.0,0.0,0.0,0.0,0.0,0.0,0.0,0.0,0.0,0.0,0.0,0.0,0.0,0.0,0.0,0.0,0.0,0.0,0.0,0.0,0.0,0.0,0.0,0.0,0.0,0.0,0.0,0.0,0.0,0.0,0.0,0.0,0.0,0.0,0.0,0.0,0.0,0.0,0.0,0.0,0.0,0.0,0.0,0.0,0.0,0.0,0.0,0.0,0.0,0.0,0.0,0.0,0.0,0.0,0.0,0.0,0.0,0.0,0.0,0.0,0.0,0.0,0.0,0.0,0.0,0.0,0.0,0.0,0.0,0.0,0.0,0.0,0.0,0.0,0.0,0.0,0.0,0.0,0.0,0.0,0.0,0.0,0.0,0.0,0.0,0.0,0.0,0.0,0.0,0.0,0.0,0.0,0.0,0.0,0.0,0.0,0.0,0.0,0.0,0.0,0.0,0.0,0.0,0.0,0.0,0.0,0.0,0.0,0.0,0.0,0.0,0.0,0.0,0.0,0.0,0.0,0.0,0.0,0.0,0.0,0.0,0.0,0.0,0.0,0.0,0.0,0.0,0.0,0.0,0.0,0.0,0.0,0.0,0.0,0.0,0.0,0.0,0.0,0.0,0.0,0.0,0.0,0.0,0.0,0.0,0.0,0.0,0.0,0.0,0.0,0.0,0.0,0.0,0.0,0.0,0.0,0.0,0.0,0.0,0.0,0.0,0.0,0.0,0.0,0.0,0.0,0.0,0.0,0.0,0.0,0.0,0.0,0.0,0.0,0.0,0.0,0.0,0.0,0.0,0.0,0.0,0.0,0.0,0.0,0.0,0.0,0.0,0.0,0.0,0.0,0.0,0.0,0.0,0.0,0.0,0.0,0.0,0.0,0.0,0.0,0.0,0.0,0.0,0.0,0.0,0.0,0.0,0.0,0.0,0.0,0.0,0.0,0.0,0.0,0.0,0.0,0.0,0.0,0.0,0.0,0.0,0.0,0.0,0.0,0.0,0.0,0.0,0.0,0.0,0.0,0.0,0.0,0.0,0.0,0.0,0.0,0.0,0.0,0.0,0.0,0.0,0.0,0.0,0.0,0.0,0.0,0.0,0.0,0.0,0.0,0.0,0.0,0.0,0.0,0.0,0.0,0.0,0.0,0.0,0.0,0.0,0.0,0.0,0.0,0.0,0.0,0.0,0.0,0.0,0.0,0.0,0.0,0.0,0.0,0.0,0.0,0.0,0.0,0.0,0.0,0.0,0.0,0.0,0.0,0.0,0.0,0.0,0.0,0.0,0.0,0.0,0.0,0.0,0.0,0.0,0.0,0.0,0.0,0.0,0.0,0.0,0.0,0.0,0.0,0.0,0.0,0.0,0.0,0.0,0.0,0.0,0.0,0.0,0.0,0.0,0.0,0.0,0.0,0.0,0.0,0.0,0.0,0.0,0.0,0.0,0.0,0.0,0.0,0.0,0.0,0.0,0.0,0.0,0.0,0.0,0.0,0.0,0.0,0.0,0.0,0.0,0.0,0.0,0.0,0.0,0.0,0.0,0.0,0.0,0.0,0.0,0.0,0.0,0.0,0.0,0.0,0.0,0.0,0.0,0.0,0.0,0.0,0.0,0.0,0.0,0.0,0.0,0.0,0.0,0.0,0.0,0.0,0.0,0.0,0.0,0.0,0.0,0.0,0.0,0.0,0.0,0.0,0.0,0.0,0.0,0.0,0.0,0.0,0.0,0.0,0.0,0.0,0.0,0.0,0.0,0.0,0.0,0.0,0.0,0.0,0.0,0.0,0.0,0.0,0.0,0.0,0.0,0.0,0.0,0.0,0.0,0.0,0.0,0.0,0.0,0.0,0.0,0.0,0.0,0.0,0.0,0.0,0.0,0.0,0.0,0.0,0.0,0.0,0.0,0.0,-1.6219,-1.6126,0.0,0.0,0.0,0.0,0.0,0.0,0.0,0.0,0.0,0.0,0.0,0.0,0.0,0.0,0.0,0.0,0.0,0.0,0.0,0.0,0.0,0.0,0.0,-1.8405,-1.8656,-1.8932,-1.8982,0.0,0.0,0.0,0.0,0.0,0.0,0.0,0.0,0.0,-2.0338,-2.0614,-2.1443,-2.2146,-2.2673,-2.182,-2.1393,-2.1393,0.0,0.0,0.0,0.0,0.0,0.0,0.0,0.0,0.0,0.0,0.0,0.0,0.0,0.0,0.0,0.0,0.0,0.0,0.0,0.0,0.0,0.0,0.0,0.0,0.0,0.0,0.0,0.0,0.0,0.0,0.0,0.0,0.0,0.0,0.0,0.0,0.0,0.0,0.0,0.0,0.0,0.0,0.0,0.0,0.0,0.0,0.0,0.0,0.0,0.0,0.0,0.0,0.0,0.0,0.0,0.0,0.0,0.0,0.0,0.0,0.0,0.0,0.0,0.0,0.0,0.0,0.0,0.0,0.0,0.0,-1.6673,-1.6647,0.0,0.0,0.0,0.0,0.0,0.0,0.0,0.0,0.0,0.0,0.0,0.0,0.0,0.0,0.0,0.0,0.0,0.0,0.0,0.0,0.0,-1.9108,-1.9284,-1.9685,-1.9987,-2.0087,-2.0087,-2.0087,-2.0087,-2.0087,0.0,0.0,0.0,0.0,0.0,0.0,-2.1895,-2.2447,-2.3201,-2.3753,-2.413,-2.3753,-2.3577,-2.3466,-2.2799,0.0,0.0,0.0,0.0,0.0,0.0,0.0,0.0,0.0,0.0,0.0,0.0,0.0,0.0,0.0,0.0,0.0,0.0,0.0,0.0,0.0,0.0,0.0,0.0,0.0,0.0,0.0,0.0,0.0,0.0,0.0,0.0,0.0,0.0,0.0,0.0,0.0,0.0,0.0,0.0,0.0,0.0,0.0,0.0,0.0,0.0,0.0,0.0,0.0,0.0,0.0,0.0,0.0,0.0,0.0,0.0,0.0,0.0,0.0,0.0,0.0,0.0,0.0,-1.6754,-1.6807,-1.686,-1.6914,-1.7101,-1.7368,-1.7128,-1.7128,-1.7315,-1.7368,0.0,0.0,0.0,0.0,0.0,0.0,0.0,0.0,0.0,0.0,0.0,0.0,0.0,0.0,0.0,0.0,0.0,0.0,0.0,-1.9384,-2.0338,-2.0567,-2.074,-2.1217,-2.1267,-2.1267,-2.1267,-2.1267,0.0,0.0,0.0,0.0,0.0,-2.192,-2.2472,-2.2965,-2.4531,-2.5084,-2.4732,-2.5084,-2.5285,-2.5209,-2.3703,-2.3,-2.2865,0.0,0.0,0.0,0.0,0.0,0.0,0.0,0.0,0.0,0.0,0.0,0.0,0.0,0.0,0.0,0.0,0.0,0.0,0.0,0.0,0.0,0.0,0.0,0.0,0.0,0.0,0.0,0.0,0.0,0.0,0.0,0.0,0.0,0.0,0.0,0.0,0.0,0.0,0.0,0.0,0.0,-3.1575,-2.8092,0.0,0.0,0.0,0.0,0.0,0.0,0.0,0.0,0.0,0.0,0.0,0.0,0.0,-1.6313,-1.6647,-1.6647,-1.6673,-1.6714,-1.6967,-1.7221,-1.7475,-1.7742,-1.8036,-1.8317,-1.8277,0.0,-1.7943,-1.821,0.0,0.0,0.0,0.0,0.0,0.0,0.0,0.0,0.0,0.0,0.0,0.0,0.0,0.0,0.0,0.0,0.0,0.0,0.0,0.0,0.0,-2.187,-2.2146,-2.2397,-2.2723,-2.2774,-2.2447,-2.2723,0.0,0.0,0.0,0.0,0.0,-2.2002,-2.2506,-2.3335,-2.4524,-2.5184,-2.5259,-2.5184,-2.5159,-2.5134,-2.4406,-2.3904,-2.3653,-2.3954,0.0,0.0,0.0,0.0,0.0,0.0,0.0,0.0,0.0,0.0,0.0,0.0,0.0,0.0,0.0,0.0,0.0,0.0,0.0,0.0,0.0,0.0,0.0,0.0,0.0,0.0,0.0,0.0,0.0,0.0,0.0,0.0,0.0,0.0,0.0,0.0,0.0,0.0,0.0,-3.3595,-3.1322,-2.9282,-2.7865,-2.662,0.0,0.0,0.0,0.0,0.0,0.0,0.0,0.0,0.0,-1.6513,-1.6513,-1.666,-1.6954,-1.7114,-1.7288,-1.7462,-1.7756,-1.7969,-1.8103,-1.8237,-1.837,-1.849,-1.849,-1.8597,-1.8798,-1.8931,-1.9078,-1.9252,0.0,0.0,0.0,0.0,-1.9653,-1.9679,0.0,0.0,0.0,0.0,0.0,0.0,0.0,0.0,0.0,0.0,0.0,0.0,-2.2498,-2.2899,-2.3065,-2.3065,-2.3527,-2.3602,-2.309,-2.3552,0.0,0.0,0.0,0.0,0.0,-2.2861,-2.3119,-2.3651,-2.483,-2.5561,-2.5812,-2.5711,-2.5661,-2.5661,-2.5661,-2.5184,-2.4431,-2.4707,-2.4406,-2.3778,0.0,0.0,0.0,0.0,0.0,0.0,0.0,0.0,0.0,0.0,0.0,0.0,0.0,0.0,0.0,0.0,0.0,0.0,0.0,0.0,0.0,0.0,0.0,0.0,0.0,0.0,0.0,0.0,0.0,0.0,0.0,0.0,0.0,0.0,0.0,0.0,0.0,-3.3485,-3.2123,-3.0566,-2.9215,-2.8091,0.0,0.0,0.0,0.0,0.0,0.0,-1.9336,-1.9283,-1.8686,-1.741,-1.7379,-1.7469,-1.7382,-1.7675,-1.7929,-1.8156,-1.8384,-1.8531,-1.8597,-1.8597,-1.8637,-1.8718,-1.8798,-1.9078,-1.9466,-1.9399,-1.9586,-1.9933,-2.0147,-2.0227,-2.0241,-2.0321,-2.0347,-2.0361,0.0,0.0,0.0,0.0,0.0,0.0,0.0,0.0,0.0,0.0,0.0,-2.2498,-2.2965,-2.3065,-2.3065,-2.3065,-2.309,-2.3115,-2.3065,-2.309,-2.3401,-2.3879,-2.3929,0.0,0.0,0.0,-2.4943,-2.3967,-2.6138,-2.6892,-2.6508,-2.7469,-2.7946,-2.7946,-2.7946,-2.7042,-2.5485,-2.5008,-2.5084,-2.5385,-2.4406,0.0,0.0,0.0,0.0,0.0,0.0,0.0,0.0,0.0,0.0,0.0,0.0,0.0,0.0,0.0,0.0,0.0,0.0,0.0,0.0,0.0,0.0,0.0,0.0,0.0,0.0,0.0,0.0,0.0,0.0,0.0,0.0,0.0,0.0,0.0,0.0,0.0,0.0,-3.2382,-3.0664,0.0,0.0,0.0,0.0,-2.613,-2.3948,-2.2474,-2.238,-2.1336,-2.0248,-1.9104,-1.9316,-1.8926,-1.7996,-1.829,-1.845,-1.8464,-1.8477,-1.8637,-1.8905,-1.8905,-1.9052,-1.9332,-1.9613,-1.9746,-1.976,-1.9479,-1.9693,-2.0214,-2.0227,-2.0227,-2.0267,-2.0548,-2.0655,-2.0695,0.0,0.0,0.0,-1.848,-1.8455,-1.8631,-1.9158,-2.0188,-2.1167,-2.192,-2.2498,-2.305,-2.3627,-2.3678,-2.3828,-2.418,-2.423,-2.4079,-2.3703,-2.4029,-2.3979,-2.3452,-2.3803,0.0,0.0,0.0,-2.4797,-2.4195,-2.6238,-2.7193,-2.6992,-2.7745,-2.8097,-2.8097,-2.8097,-2.777,-2.7168,-2.664,-2.5912,-2.5199,-2.6129,-2.6215,0.0,0.0,0.0,0.0,0.0,0.0,0.0,0.0,0.0,0.0,0.0,0.0,0.0,0.0,0.0,0.0,0.0,0.0,0.0,0.0,0.0,0.0,0.0,0.0,0.0,0.0,0.0,0.0,0.0,0.0,0.0,0.0,0.0,0.0,0.0,0.0,0.0,-3.3467,-3.1709,0.0,-2.9596,-2.7782,-2.636,-2.5551,-2.4711,-2.3767,-2.2889,-2.2076,-2.1081,-1.9777,-1.9163,-1.8755,-1.833,-1.8624,-1.8771,-1.8771,-1.8971,-1.9105,-1.9212,-1.9399,-1.9546,-1.9666,-1.9947,-2.0187,-2.0361,-2.0254,-2.0334,-2.0535,-2.0722,-2.0802,-2.0815,-2.0922,-2.0949,-2.0962,0.0,0.0,0.0,-1.8756,-1.8907,-1.9258,-1.9987,-2.1041,-2.197,-2.2523,-2.3075,-2.3577,-2.3954,-2.4155,-2.4431,-2.4782,-2.4833,-2.4657,-2.4305,-2.4782,-2.4833,-2.428,-2.4808,0.0,0.0,-2.4797,-2.5244,-2.5022,-2.671,-2.7645,-2.7846,-2.8423,-2.8674,-2.8674,-2.8674,-2.8574,-2.8348,-2.8333,-2.7455,-2.6165,-2.7157,-2.7426,-2.7339,0.0,0.0,0.0,0.0,0.0,0.0,0.0,0.0,0.0,0.0,0.0,0.0,0.0,0.0,0.0,0.0,0.0,0.0,0.0,0.0,0.0,0.0,0.0,0.0,0.0,0.0,0.0,0.0,0.0,0.0,0.0,0.0,0.0,0.0,-3.7395,-3.5976,-3.4603,-3.3039,-3.1687,-3.0399,-2.8914,-2.7535,-2.6235,-2.5796,-2.5179,-2.4393,-2.4003,-2.3133,-2.1755,-2.0614,-1.9818,-1.9389,-1.9145,-1.9078,-1.9078,-1.9279,-1.9412,-1.9519,-1.972,-1.9853,-1.996,-2.0254,-2.0494,-2.0681,-2.0775,-2.0815,-2.0842,-2.1029,-2.1109,-2.1109,-2.1109,-2.1109,-2.1122,0.0,0.0,-1.8254,-1.8254,-1.8731,-1.9459,-2.0592,-2.1619,-2.2523,-2.299,-2.3627,-2.4004,-2.4029,-2.4506,-2.4858,-2.4883,-2.4858,-2.4858,-2.4883,-2.5335,-2.5862,-2.6508,0.0,0.0,-2.5611,-2.6138,-2.6508,-2.6559,-2.757,-2.8373,-2.8925,-2.9528,-2.9804,-2.9804,-2.9856,-2.9554,-2.9026,-3.0012,-2.976,-2.8569,-2.7458,-2.7989,-2.9289,0.0,0.0,0.0,0.0,0.0,0.0,0.0,0.0,0.0,0.0,0.0,0.0,0.0,0.0,0.0,0.0,0.0,0.0,0.0,0.0,0.0,0.0,0.0,0.0,0.0,0.0,0.0,0.0,0.0,0.0,0.0,0.0,0.0,-4.0427,-3.8948,-3.7578,-3.5755,-3.46,-3.3479,-3.2146,-3.0928,-2.9686,-2.8271,-2.7061,-2.6582,-2.6992,-2.6929,-2.6275,-2.4995,-2.3759,-2.2544,-2.1122,-2.0002,-1.9372,-1.9386,-1.9386,-1.9533,-1.9813,-1.9826,-1.9987,-2.0267,-2.0561,-2.0695,-2.0708,-2.0989,-2.1109,-2.1109,-2.1109,-2.1109,-2.1109,-2.1109,-2.1122,-2.1162,-1.961,-1.9459,-1.9359,-1.9359,-2.0162,-2.0916,-2.1217,-2.2196,-2.289,-2.3065,-2.3627,-2.4155,-2.4556,-2.5059,-2.5561,-2.5963,-2.5611,-2.5561,-2.5988,-2.6138,-2.6289,-2.6508,0.0,0.0,-2.5611,-2.5762,-2.6239,-2.7067,-2.777,-2.8373,-2.8925,-2.9528,-2.9804,-2.9856,-3.0495,-3.0742,-3.0634,-3.1199,-3.1585,-3.1763,-3.1039,-3.0444,-3.004,0.0,0.0,0.0,0.0,0.0,0.0,0.0,0.0,0.0,0.0,0.0,0.0,0.0,0.0,0.0,0.0,0.0,0.0,0.0,0.0,0.0,0.0,0.0,0.0,0.0,0.0,0.0,0.0,0.0,0.0,0.0,-4.5933,-4.4755,-4.104,-3.9858,-3.8573,-3.6387,-3.5529,-3.4078,-3.1479,-3.0864,-2.9732,-2.7502,-2.7038,-2.6894,-2.7012,-2.6229,-2.5182,-2.3793,-2.2609,-2.1353,-1.9915,-1.955,-1.9466,-1.9679,-1.9679,-1.9826,-2.012,-2.0334,-2.0481,-2.0575,-2.0869,-2.0989,-2.1002,-2.1082,-2.1109,-2.1109,-2.1109,-2.1109,-2.1109,-2.1109,-2.1243,-2.1443,-1.9811,-1.9635,-1.9535,-1.9761,-2.0539,-2.1217,-2.1468,-2.2422,-2.3165,-2.3452,-2.3778,-2.428,-2.5059,-2.541,-2.5837,-2.6483,-2.6138,-2.6189,-2.6766,-2.7017,-2.7042,0.0,0.0,-2.6414,-2.664,-2.664,-2.7318,-2.8674,-2.9001,-2.9327,-2.9654,-2.998,-3.0005,-2.9856,-3.0771,-3.1167,-3.1288,-3.2304,-3.2993,-3.3437,-3.3287,-3.2537,-3.1718,-3.2169,-3.2048,-3.1689,-3.2048,-3.2611,-3.338,-3.5221,0.0,0.0,0.0,0.0,0.0,0.0,0.0,0.0,0.0,0.0,0.0,0.0,0.0,0.0,0.0,0.0,0.0,0.0,0.0,0.0,0.0,0.0,0.0,0.0,-4.6741,-4.5608,-4.2377,-4.0962,-3.9465,-3.7298,-3.6358,-3.4768,-3.1818,-3.142,-3.011,-2.7491,-2.7285,-2.7363,-2.7539,-2.6892,-2.6258,-2.5379,-2.3484,-2.2214,-2.148,-2.0233,-1.9693,-1.9987,-1.9987,-2.0134,-2.0428,-2.0601,-2.0735,-2.0869,-2.1042,-2.1109,-2.1122,-2.1243,-2.1296,-2.1283,0.0,0.0,0.0,0.0,-2.1483,-2.1764,-1.9811,-1.9434,-1.9258,-1.9736,-2.0338,-2.097,-2.1529,-2.248,-2.3351,-2.4028,-2.4066,-2.4406,-2.5485,-2.5586,-2.5837,-2.6483,-2.6533,-2.676,-2.7243,-2.7795,0.0,-2.7293,-2.7344,-2.7595,-2.8097,-2.8172,-2.9001,-3.0608,-3.0608,-3.0608,-3.0608,-3.0608,-3.0306,-2.9856,-3.0895,-3.1389,-3.1462,-3.3394,-3.4177,-3.4187,-3.448,-3.4203,-3.3604,-3.3604,-3.3963,-3.4502,-3.4651,-3.5674,-3.7093,-3.8635,0.0,0.0,0.0,0.0,0.0,0.0,0.0,0.0,0.0,0.0,0.0,0.0,0.0,0.0,0.0,0.0,0.0,0.0,0.0,0.0,0.0,0.0,0.0,0.0,-4.7608,-4.6697,-4.4188,-4.2288,-4.041,-3.8336,-3.7236,-3.5599,-3.2914,-3.2162,-3.0795,-2.8003,-2.7754,-2.7891,-2.8281,-2.8301,0.0,0.0,0.0,-2.3957,-2.4089,-2.1231,-2.0,-2.0281,-2.0281,-2.0441,-2.0722,-2.0762,-2.0922,-2.1162,-2.1189,-2.1203,-2.1229,-2.1496,-2.1617,-2.163,-2.1363,-2.1256,-2.1296,-2.159,-2.1884,-2.2205,-1.9811,-1.9736,-1.9685,-1.9786,-2.0639,-2.1564,-2.2296,-2.2802,-2.3508,-2.4736,-2.4351,-2.4406,-2.5485,-2.5586,-2.5837,-2.6483,-2.6533,-2.676,-2.7243,-2.7795,-2.7871,-2.7293,-2.772,-2.7996,-2.8097,-2.8549,-2.9377,-3.0608,-3.0608,-3.0608,-3.0608,-3.0608,-3.0306,-2.9856,-3.1536,-3.2307,-3.2451,-3.4409,-3.5198,-3.5198,-3.5275,-3.4891,-3.4292,-3.4292,-3.4352,-3.4622,-3.5699,-3.6706,-3.781,-3.9909,-4.1249,-4.2568,-4.5327,-4.6346,0.0,0.0,0.0,0.0,0.0,0.0,0.0,0.0,0.0,0.0,0.0,0.0,0.0,0.0,0.0,0.0,0.0,0.0,0.0,-5.0331,-4.9583,-4.8168,-4.6097,-4.4623,-4.2533,-3.917,-3.8517,-3.714,-3.3876,-3.3196,-3.1772,-2.8888,-2.8359,-2.8203,-2.8281,-2.8301,-2.7898,-2.6995,-2.5172,-2.3876,-2.3073,-2.1082,-2.0294,-2.0588,-2.0588,0.0,-2.1029,-2.1269,-2.1416,-2.1483,-2.171,-2.1817,-2.1817,-2.1884,-2.2044,-2.2245,-2.2191,-2.2164,-2.2205,-2.2498,-2.2806,-2.3086,-1.9811,-1.9811,-1.9811,-1.9811,-2.0514,-2.1331,-2.197,-2.2401,-2.3144,-2.4407,-2.3974,-2.3979,-2.5084,-2.4958,-2.5259,-2.6433,-2.6967,-2.7293,0.0,-2.7544,-2.757,-2.7293,-2.7821,-2.8499,-2.9352,-2.988,-3.0708,-3.1838,-3.1838,-3.1712,-3.1411,-3.1135,-3.0708,-3.0259,-3.189,-3.2593,-3.2735,-3.4706,-3.5519,-3.5519,-3.5519,-3.5489,-3.5489,-3.5489,-3.5878,-3.6537,-3.7195,-3.8714,-4.0578,-4.1694,-4.3673,-4.5932,-4.741,-4.8139,-4.9044,0.0,0.0,0.0,0.0,0.0,0.0,0.0,0.0,0.0,0.0,0.0,0.0,0.0,0.0,-5.3021,-5.2908,0.0,-5.0451,-5.1109,-5.0391,-4.8963,-4.6656,-4.5508,-4.3643,-4.0082,-3.922,-3.7678,-3.4532,-3.3742,-3.2295,-2.9459,-2.9043,-2.8926,-2.8926,-2.8926,-2.8694,-2.8219,-2.5794,-2.4463,-2.4007,-2.1647,-2.0681,-2.1109,-2.1109,-2.1269,-2.155,-2.1697,-2.1764,-2.1777,-2.1924,-2.1991,-2.1991,-2.2138,-2.2472,-2.2886,-2.3033,-2.3006,-2.2886,-2.3033,-2.3287,-2.3567,-1.9811,-1.9811,-1.9811,-1.9811,-2.0288,-2.0923,-2.1462,-2.1983,-2.2732,-2.3862,-2.3487,-2.3491,-2.4707,-2.433,-2.4607,-2.6163,-2.7193,-2.7595,0.0,-2.7118,-2.7168,-2.7268,-2.7921,-2.9001,-3.0583,-3.1235,-3.2039,-3.3068,-3.3068,-3.2852,-3.2523,-3.1965,-3.1487,-3.1241,-3.2391,-3.2876,-3.2975,-3.4773,-3.5519,-3.5519,-3.5639,-3.6088,-3.6686,-3.6806,-3.7494,-3.8422,-3.8542,-4.0523,-4.3103,-4.3263,-4.5828,-4.9086,-4.9526,-5.0159,-5.1343,-5.4394,-5.5451,0.0,0.0,0.0,0.0,0.0,0.0,0.0,0.0,0.0,-6.0294,-5.7392,-5.5721,-5.4516,-5.3821,-5.2529,-5.1509,-5.1379,-5.096,-4.9669,-4.6807,-4.5851,-4.43,-4.117,-3.9873,-3.8044,-3.5029,-3.4258,-3.2793,-2.9912,-2.9609,-2.957,-2.957,-2.957,-2.9609,-2.9687,-2.6637,-2.509,-2.5518,-2.2414,-2.1109,-2.163,-2.163,-2.1764,-2.1991,-2.2098,-2.2151,-2.2151,-2.2151,-2.2151,-2.2178,-2.2405,-2.2956,-2.3899,-2.42,-2.42,-2.3909,-2.3695,-2.3728,-2.3968,-1.9811,-1.9811,-1.9811,-1.9811,-2.0288,-2.0932,-2.1642,-2.2065,-2.2756,-2.4073,-2.3569,-2.3491,-2.4707,-2.433,-2.4456,-2.5586,-2.6264,0.0,-2.6565,-2.6609,-2.6766,-2.7268,-2.8273,-2.9402,-3.0583,-3.1612,-3.2441,-3.3068,-3.3068,-3.325,-3.3592,-3.2935,-3.2901,-3.3257,-3.3649,-3.3808,-3.3876,-3.5067,-3.5519,-3.5549,-3.6148,-3.6746,-3.7375,-3.7943,-3.8272,-3.8482,-3.908,-4.0924,-4.3167,-4.3875,-4.6256,-4.9357,-5.1319,-5.2443,-5.3697,-5.6799,-5.8223,-5.9148,-6.0957,-6.2548,-6.3539,-6.2952,-6.2818,-6.2176,0.0,0.0,-5.8872,-5.7148,-5.5962,-5.5058,-5.4416,-5.342,-5.2579,-5.2167,-5.2037,-5.0846,-4.7476,-4.6588,-4.5159,-4.2392,-4.1003,-3.9022,-3.5572,-3.4751,-3.3268,-3.0344,-2.9785,-2.957,-2.957,-2.957,-2.9746,-3.0117,-2.6924,-2.5583,-2.6257,-2.3062,-2.1617,-2.1937,-2.1937,-2.1951,-2.2004,-2.2525,-2.2766,-2.2766,-2.2766,-2.2766,-2.2766,-2.2806,-2.3941,-2.5781,-2.5952,-2.6232,-2.6212,-2.4952,-2.4516,-2.4543,-1.9811,-1.9811,-1.9888,-2.0295,-2.0603,-2.0991,-2.1614,-2.2485,-2.3228,-2.3642,-2.4125,-2.4288,-2.384,-2.423,-2.4657,-2.5109,-2.6239,-2.6791,-2.6559,-2.6766,-2.7193,-2.7745,-2.8499,-2.9603,-3.1035,-3.1813,-3.2491,-3.3068,-3.3068,-3.3199,-3.3399,-3.2958,-3.2906,-3.3176,-3.3748,-3.4013,-3.4109,-3.5067,-3.5519,-3.5579,-3.6207,-3.6866,-3.7494,-3.8153,-3.8392,-3.8552,-3.9747,-4.1716,0.0,-4.5212,-4.7635,-5.0608,-5.2435,-5.3562,-5.4713,-5.7293,-5.8351,-5.9072,-6.108,-6.2438,-6.3392,-6.3503,-6.3111,-6.2494,-6.1468,-6.1204,-6.0392,-5.7963,-5.6371,-5.5295,-5.4589,-5.3388,-5.2513,-5.2762,-5.2456,-5.114,-4.8089,-4.7094,-4.5673,-4.2595,-4.1756,-4.0098,-3.641,-3.5692,-3.4199,-3.1191,-3.0586,-3.0332,-3.0332,-3.0566,-3.0781,-3.0957,-2.8974,-2.7518,-2.6843,-2.4464,-2.3056,-2.2498,-2.3666,-2.4152,-2.4352,-2.461,-2.4092,-2.2859,-2.2859,-2.3529,-2.4467,-2.4653,-2.5996,-2.7963,-2.8297,-2.8646,-2.8664,-2.6647,-2.5326,-2.4636,-1.9811,-1.9965,-2.0245,-2.0696,-2.1091,-2.1323,-2.135,-2.2471,-2.3275,-2.312,-2.4123,-2.4503,-2.3554,-2.4494,-2.5189,-2.5189,-2.6253,-2.6883,-2.6782,-2.6955,-2.7444,-2.8298,-2.8875,-2.9804,-3.116,-3.1712,-3.219,-3.2616,-3.2929,-3.3155,-3.3462,-3.3382,-3.3566,-3.3813,-3.4225,-3.438,-3.4476,-3.5198,-3.5519,-3.5579,-3.6207,-3.6866,-3.7464,-3.7943,-3.8242,-3.8622,-4.0385,-4.2275,-4.42,-4.5995,-4.8656,-5.1454,-5.2739,-5.4008,-5.5382,-5.7474,-5.8716,-5.9905,-6.2068,-6.3062,0.0,-6.3941,-6.3493,-6.288,-6.2428,-6.2472,-6.1703,-5.8812,-5.7553,-5.6399,-5.4717,-5.3694,-5.3128,-5.2912,-5.2665,-5.1621,-4.9296,-4.818,-4.6618,-4.383,-4.3017,-4.1384,-3.8321,-3.6906,-3.5206,-3.2474,-3.1643,-3.125,-3.125,-3.1523,-3.1699,-3.1699,-3.0334,-2.894,-2.7388,-2.5711,-2.448,-2.3901,-2.5154,-2.6178,-2.6815,-2.6815,-2.6012,-2.4445,-2.436,-2.5128,-2.6337,-2.6676,-2.8044,-2.9817,-3.0428,-3.0784,-3.0691,-2.9023,-2.7538,-2.6324,-1.9811,-2.0295,-2.0795,-2.0795,-2.1785,-2.2235,-2.1019,-2.1848,-2.2647,-2.2618,-2.3121,-2.3681,-2.431,-2.5409,-2.615,-2.615,-2.6008,-2.6396,-2.7459,-2.6918,-2.7218,-2.8825,-2.9453,-3.003,-3.0633,-3.116,-3.1411,-3.1436,-3.2354,-3.3325,-3.4369,-3.4667,-3.5398,-3.6343,-3.5723,-3.5424,-3.5424,-3.5519,-3.5519,-3.5579,-3.6207,-3.6866,-3.7404,-3.7434,-3.7823,-3.8682,-4.094,-4.237,-4.3621,-4.5831,-4.8656,-5.1352,-5.2097,-5.3874,-5.5992,-5.7517,-6.022,-6.3036,-6.4725,-6.5228,-6.5034,-6.4122,-6.3914,-6.3406,-6.1811,-6.1951,-6.1875,-5.9491,-5.9464,-5.8853,-5.526,-5.508,-5.4781,-5.2567,-5.2755,-5.2625,-5.1208,-4.9707,-4.8326,-4.6959,-4.495,-4.3144,-4.1423,-3.8504,-3.6033,-3.4517,-3.3055,-3.2129,-3.2129,-3.2148,-3.2148,-3.2148,-3.0605,-2.9077,-2.7999,-2.6275,-2.5816,-2.6459,-2.6145,-2.6935,-2.8692,-2.8557,-2.8423,-2.839,-2.818,-2.8032,-2.8196,-2.856,-2.9778,-3.1361,-3.2133,-3.2438,-3.2438,-3.2301,-3.1651,-3.0788,-2.0363,-2.063,-2.0944,-2.1328,-2.2114,-2.2558,-2.2142,-2.312,-2.375,-2.3273,-2.3695,0.0,0.0,0.0,0.0,0.0,-2.6249,-2.664,-2.6668,-2.7315,-2.7988,-2.8557,-2.8997,-2.9654,-3.0608,-3.1368,-3.1993,-3.2303,-3.3298,-3.399,-3.4341,-3.4257,-3.4427,-3.4738,-3.4367,-3.4173,-3.4173,-3.4173,-3.4412,-3.4891,-3.5579,-3.6207,-3.6836,-3.7255,-3.7285,-3.7549,0.0,-4.2204,-4.2816,-4.5077,-4.7922,-5.0676,-5.1894,-5.4247,-5.6987,-5.9587,-6.1494,-6.2877,-6.3406,-6.3597,-6.3478,-6.3199,-6.3023,-6.2816,-6.2265,-6.2272,-6.1919,-6.0122,-5.9126,-5.7897,-5.5718,-5.4559,-5.3708,-5.3038,-5.2665,-5.2151,-5.1208,-4.9398,-4.7944,-4.6986,-4.5335,-4.4111,-4.3622,-3.9779,-3.6655,-3.5121,-3.3256,-3.2168,-3.2168,-3.2695,-3.3008,-3.3008,-3.3008,-3.2246,-3.0786,-2.9843,-2.9027,-2.826,-2.9143,-2.9778,-3.0575,-3.0162,-2.9402,-2.8345,-2.823,-2.8973,-3.0417,-3.0804,-3.2211,-3.4184,-3.4583,-3.4812,-3.4774,-3.4507,-3.4652,-3.4416,0.0,-2.1405,-2.1632,-2.2281,-2.2718,0.0,0.0,0.0,0.0,0.0,0.0,0.0,0.0,0.0,0.0,0.0,0.0,-2.6832,-2.6888,-2.7507,-2.8186,-2.8825,-2.9293,-2.9969,-3.0929,-3.1792,-3.2332,-3.2733,-3.3707,-3.4147,-3.422,-3.4347,-3.4476,-3.4418,-3.404,-3.3844,-3.3814,-3.3604,-3.4023,-3.4831,-3.4801,-3.5609,-3.6776,-3.6477,-3.6586,0.0,0.0,-4.1084,-4.2219,-4.5019,-4.7838,-5.027,-5.1217,-5.3951,-5.7391,-5.9914,-6.1436,-6.2275,-6.228,-6.2486,-6.2634,-6.231,-6.2404,-6.2502,-6.2449,-6.2438,-6.1941,-6.0419,-5.9216,-5.7829,-5.5986,-5.4445,-5.3512,-5.3571,-5.2995,-5.2464,-5.2264,-5.0181,-4.8404,-4.7729,-4.5623,-4.4317,-4.4317,-4.0922,-3.8146,-3.6924,-3.5148,-3.3793,-3.3066,-3.3574,-3.3809,-3.3652,-3.418,-3.3669,-3.1781,-3.1529,-3.0919,-3.0191,-3.1727,-3.2543,-3.2524,-3.2264,-3.1596,-3.0548,-3.0548,-3.1439,-3.2803,-3.3345,-3.4469,-3.5898,-3.6309,-3.6387,-3.623,-3.5957,-3.6094,-3.6111,0.0,0.0,-2.2951,0.0,0.0,0.0,0.0,0.0,0.0,0.0,0.0,0.0,0.0,0.0,0.0,0.0,0.0,0.0,-2.7997,-2.7418,0.0,-2.9591,-3.0211,-3.0842,-3.1488,-3.2206,-3.2581,-3.2581,-3.3545,-3.4052,-3.4052,-3.5008,-3.5429,-3.537,-3.4681,-3.4352,-3.4292,-3.3664,-3.4143,-3.525,-3.3963,-3.4981,-3.7045,-3.519,0.0,0.0,0.0,0.0,-4.1659,-4.5312,-4.8139,-5.0067,-5.0304,-5.3315,-5.708,-5.8633,-6.0185,-6.1293,-6.1424,-6.1969,-6.2375,-6.1606,-6.1949,-6.2492,-6.2411,-6.2347,-6.1907,-6.0452,-5.9764,-5.8591,-5.6199,-5.4668,-5.3868,-5.4179,-5.3563,-5.3324,-5.4012,-5.1585,-4.9633,-4.9,-4.5898,-4.389,-4.394,-4.2135,-4.0575,-3.9949,-3.8309,-3.649,-3.489,-3.4648,-3.4473,-3.4082,-3.4121,-3.3325,-3.1457,-3.1457,-3.1637,-3.2132,-3.3879,-3.4707,-3.4707,-3.4707,-3.4707,-3.4707,-3.4707,-3.498,-3.5449,-3.5859,-3.6289,-3.6738,-3.7148,-3.7051,-3.6699,-3.6699,-3.6445,-3.6074,0.0,0.0,0.0,0.0,0.0,0.0,0.0,0.0,0.0,0.0,0.0,0.0,0.0,0.0,0.0,0.0,0.0,0.0,-2.7698,-2.7821,0.0,0.0,0.0,0.0,0.0,0.0,0.0,0.0,-3.3644,-3.4362,-3.4362,-3.4648,-3.4472,-3.3993,-3.3305,-3.2736,-3.2258,-3.2108,-3.2527,-3.3245,0.0,-3.3754,-3.516,0.0,0.0,0.0,0.0,0.0,0.0,-4.2657,-4.5972,-4.9864,-5.3213,-5.5074,-5.6295,-5.7763,-5.8553,-5.8927,-5.9484,-6.0172,-6.0818,-6.1245,-6.1885,-6.2421,-6.2425,-6.1975,-6.1467,-6.1095,-5.9053,-5.7496,-5.782,-5.5007,-5.2989,-5.3982,-5.2815,-5.1947,-5.2636,-5.0268,-4.8618,-4.9362,0.0,-4.5221,-4.5623,-4.5166,-4.4183,-4.2809,-3.8671,-3.6039,-3.5562,-3.4664,-3.418,-3.4082,-3.4707,-3.4774,-3.4356,-3.4356,-3.4241,-3.4011,-3.4425,-3.4707,-3.4707,-3.4707,-3.4707,-3.4707,-3.4707,-3.5137,-3.5859,-3.5976,-3.6465,-3.7148,-3.7266,-3.7226,-3.7148,-3.7148,-3.707,-3.6934,0.0,0.0,0.0,0.0,0.0,0.0,0.0,0.0,0.0,0.0,0.0,0.0,0.0,0.0,0.0,0.0,0.0,0.0,0.0,-2.78,0.0,0.0,0.0,0.0,0.0,0.0,0.0,0.0,0.0,0.0,-3.4921,-3.4622,-3.4292,-3.3903,-3.3245,-3.2735,-3.2361,-3.2088,0.0,0.0,0.0,0.0,0.0,0.0,0.0,0.0,0.0,0.0,0.0,0.0,0.0,-4.8895,-5.2794,-5.4383,-5.499,-5.5936,-5.688,-5.7834,-5.8343,-5.9302,-6.0216,-6.0655,-6.1366,-6.1907,-6.1907,-6.1603,-6.1143,-6.0571,-5.935,-5.8194,-5.7516,-5.5503,-5.4031,0.0,0.0,0.0,-5.3025,-5.115,-4.9687,0.0,-4.7377,-4.6013,-4.5522,-4.5573,-4.5191,-4.4159,-4.0377,-3.7906,-3.7023,-3.5661,-3.4844,-3.4668,-3.5137,-3.5293,-3.5098,-3.5078,-3.5059,-3.5,-3.5,-3.5098,-3.5273,-3.5273,-3.5273,-3.5293,-3.5488,-3.5957,-3.6601,-3.6777,-3.7246,-3.7851,-3.7851,-3.7734,-3.7578,-3.7578,-3.7461,-3.7266,0.0,0.0,0.0,0.0,0.0,0.0,0.0,0.0,0.0,0.0,0.0,0.0,0.0,0.0,0.0,0.0,0.0,0.0,0.0,0.0,0.0,0.0,0.0,0.0,0.0,0.0,0.0,0.0,0.0,0.0,0.0,0.0,0.0,0.0,0.0,0.0,0.0,0.0,0.0,0.0,0.0,0.0,0.0,0.0,0.0,0.0,0.0,0.0,0.0,0.0,-4.6147,-4.7718,-5.0782,-5.2507,-5.3423,-5.3889,-5.5444,-5.7094,-5.7524,-5.8698,-5.9852,-5.9852,-6.0478,-6.0984,-6.1076,-6.0897,-6.0561,-5.9762,-5.9909,-5.9307,-5.6839,-5.6124,-5.5745,-5.526,0.0,-5.4072,-5.4072,-5.285,-5.1356,-4.9509,-4.8055,-4.6604,-4.5284,-4.5011,-4.492,-4.4844,-4.2838,-4.0857,-3.9194,-3.7258,-3.5973,-3.541,-3.5391,-3.5234,-3.4883,-3.4883,-3.5078,-3.5488,-3.5488,-3.5664,-3.6016,-3.6016,-3.6055,-3.6133,-3.6504,-3.6934,-3.7402,-3.7773,-3.8184,-3.8574,-3.8574,-3.834,-3.8008,-3.8008,-3.7773,-3.7461,0.0,0.0,0.0,0.0,0.0,0.0,0.0,0.0,0.0,0.0,-2.7649,-2.753,0.0,0.0,0.0,0.0,0.0,0.0,0.0,0.0,0.0,0.0,0.0,0.0,0.0,0.0,0.0,0.0,0.0,0.0,0.0,0.0,0.0,0.0,0.0,0.0,0.0,0.0,0.0,0.0,0.0,0.0,0.0,0.0,0.0,0.0,0.0,0.0,0.0,0.0,-4.6666,-4.7741,-5.0627,-5.1674,-5.2125,-5.3807,-5.4627,-5.5095,-5.5827,-5.7315,-5.8654,-5.8734,-5.9098,-5.9481,-5.9757,-5.8819,-5.8408,-6.0026,-5.8743,-5.774,-5.8924,-5.6992,-5.5191,-5.517,-5.4162,-5.3354,-5.3354,-5.2176,-5.135,-5.147,-4.9583,-4.8126,-4.7896,-4.7095,-4.6502,-4.605,-4.4278,-4.2856,-4.1742,-3.8695,-3.6575,-3.5391,-3.5391,-3.5527,-3.5781,-3.5781,-3.584,-3.5918,-3.5918,-3.5957,-3.6016,-3.6016,-3.6211,-3.6562,-3.6641,-3.7109,-3.7812,-3.7891,-3.8184,-3.8574,-3.8574,-3.8535,-3.8457,-3.8457,-3.8418,-3.8301,0.0,0.0,0.0,0.0,0.0,0.0,0.0,-2.7859,-2.8368,-3.0372,-3.0043,-2.9505,-2.9146,-2.9086,-2.8936,0.0,0.0,0.0,0.0,0.0,0.0,0.0,0.0,0.0,0.0,0.0,0.0,0.0,0.0,0.0,0.0,0.0,0.0,0.0,0.0,0.0,0.0,0.0,0.0,0.0,0.0,0.0,0.0,0.0,0.0,0.0,0.0,0.0,0.0,0.0,-4.5541,-4.6671,-4.9219,-5.0133,-5.0669,-5.2488,-5.3538,-5.4403,-5.5707,-5.6755,-5.7437,-5.7553,-5.7151,-5.6869,-5.7427,-5.6676,-5.6349,-5.7909,-5.7692,-5.7306,-5.743,-5.6681,-5.5992,-5.5711,-5.488,-5.4341,-5.47,-5.4167,-5.3509,-5.304,-5.1516,-5.0309,-4.9546,-4.8307,-4.7431,-4.7154,-4.6341,-4.5108,-4.3164,-3.9831,-3.739,-3.6171,-3.6055,-3.6269,-3.668,-3.668,-3.668,-3.668,-3.6465,-3.6348,-3.6348,-3.6348,-3.6582,-3.7012,-3.7226,-3.7812,-3.8594,-3.8594,-3.8848,-3.9238,-3.9004,-3.8906,-3.8906,-3.8906,-3.8769,-3.8574,0.0,0.0,0.0,0.0,0.0,0.0,0.0,-2.9146,-2.9714,-3.2198,-3.1928,-3.124,-3.0492,-2.9834,-2.9475,0.0,0.0,0.0,0.0,0.0,0.0,0.0,0.0,0.0,0.0,0.0,0.0,0.0,0.0,0.0,0.0,0.0,0.0,0.0,0.0,0.0,0.0,0.0,0.0,0.0,0.0,0.0,0.0,0.0,0.0,0.0,0.0,0.0,0.0,0.0,-4.4386,-4.565,-4.7546,-4.8632,-4.9404,-5.1175,-5.2547,-5.3896,-5.5332,-5.6183,-5.6423,-5.6193,-5.5219,-5.4589,-5.5197,-5.4635,-5.4496,-5.5781,-5.6769,-5.705,-5.5797,-5.6347,-5.6884,0.0,-5.5927,-5.5837,-5.6496,-5.6585,-5.608,-5.4759,-5.3695,-5.2531,-5.0934,-4.9412,-4.8382,-4.7908,-4.7908,-4.6736,-4.4237,-4.1084,-3.8812,-3.745,-3.7075,-3.6953,-3.7285,-3.7305,-3.7305,-3.7285,-3.6953,-3.6816,-3.6816,-3.6894,-3.7168,-3.7598,-3.8008,-3.8633,-3.9355,-3.9355,-3.957,-3.9863,-3.9492,-3.9355,-3.9355,-3.9355,-3.9141,-3.8906,0.0,0.0,0.0,0.0,0.0,0.0,0.0,-2.9535,-3.0223,-3.2258,-3.1928,-3.1928,-3.3006,-3.2557,-3.145,0.0,0.0,0.0,0.0,0.0,0.0,0.0,0.0,0.0,0.0,0.0,0.0,0.0,0.0,0.0,0.0,0.0,0.0,0.0,0.0,0.0,0.0,0.0,0.0,0.0,0.0,0.0,0.0,0.0,0.0,0.0,0.0,0.0,0.0,0.0,0.0,-4.5424,-4.6256,-4.7396,-4.8745,-5.0663,0.0,0.0,-5.3254,-5.4691,-5.569,-5.4507,-5.3836,-5.3681,-5.397,-5.302,-5.2834,-5.5411,-5.6062,-5.6248,-5.6772,-5.6896,0.0,0.0,0.0,-5.7154,-5.7842,-5.7932,-5.7587,-5.6855,-5.5983,-5.4657,-5.2449,-5.1415,-5.0097,-4.8057,-4.7908,-4.7082,-4.539,-4.3294,-4.1459,-3.9783,-3.8187,-3.7266,-3.7305,-3.7305,-3.7305,-3.7305,-3.7266,-3.7246,-3.7246,-3.7637,-3.8047,-3.8476,-3.8906,-3.9375,-3.9824,-3.9824,-3.9863,-3.9883,-3.9844,-3.9824,-3.9824,-3.9824,-3.9805,-3.9785,0.0,0.0,0.0,0.0,0.0,0.0,-2.9445,-3.0253,-3.133,-3.2886,-3.3215,-3.3514,-3.4023,-3.3844,-3.3066,-3.148,0.0,0.0,0.0,0.0,0.0,0.0,0.0,0.0,0.0,0.0,0.0,0.0,0.0,0.0,0.0,0.0,0.0,0.0,0.0,0.0,0.0,0.0,0.0,0.0,0.0,0.0,0.0,0.0,0.0,0.0,0.0,0.0,-4.1759,0.0,0.0,0.0,-4.5992,-4.695,0.0,0.0,-5.078,-5.1738,-5.2426,-5.3441,-5.4066,-5.3125,-5.252,-5.215,-5.2246,-5.1577,-5.1334,-5.3307,-5.3672,-5.4005,-5.5098,-5.5645,0.0,0.0,0.0,0.0,-5.9159,-5.9308,-5.9189,-5.8919,-5.8044,-5.7139,-5.6276,-5.4093,-5.2123,-5.055,-5.0745,-5.0655,-4.9939,-4.6299,-4.3148,-4.052,-3.9708,-3.8889,-3.8066,-3.8066,-3.8066,-3.8066,-3.7793,-3.7812,-3.8066,-3.8242,-3.8711,-3.9375,-3.9551,-4.0019,-4.0644,-4.0391,-4.043,-4.0644,-4.0371,-4.0273,-4.0273,-4.0273,-4.0117,-3.9922,0.0,0.0,0.0,0.0,0.0,-2.8936,-3.0013,-3.112,-3.2287,-3.3604,-3.4352,-3.4771,-3.4771,-3.4771,-3.4322,-3.3185,-3.2736,0.0,0.0,0.0,0.0,0.0,0.0,0.0,0.0,0.0,-3.1569,-3.2228,-3.1061,0.0,0.0,0.0,0.0,0.0,0.0,0.0,0.0,0.0,0.0,0.0,0.0,0.0,0.0,0.0,0.0,0.0,0.0,0.0,0.0,0.0,0.0,0.0,0.0,0.0,0.0,0.0,-4.9763,-5.081,-5.1678,-5.2396,-5.2785,-5.2306,-5.1708,-5.1229,-5.1229,-5.072,-5.0601,-5.1917,-5.2366,-5.2905,-5.4251,-5.5029,0.0,0.0,0.0,-5.9249,-6.0745,-6.0984,-6.0984,-6.0984,0.0,-5.9801,-5.9302,-5.6334,-5.3792,-5.2438,-5.2703,-5.2929,-5.2929,-4.9559,-4.6217,-4.3397,-4.2721,-4.1841,-4.0761,-4.0076,-3.9785,-3.9785,-3.8924,-3.8672,-3.8965,-3.9101,-3.9492,-4.0098,-4.0215,-4.0625,-4.1152,-4.084,-4.0898,-4.1152,-4.084,-4.0991,-4.1582,-4.1582,-4.1918,-4.2249,0.0,0.0,0.0,0.0,0.0,0.0,-3.1153,-3.2078,-3.2976,-3.4292,-3.507,-3.5489,-3.5489,-3.5489,-3.522,-3.4532,-3.3275,0.0,0.0,0.0,0.0,0.0,0.0,0.0,0.0,0.0,-3.0851,-3.1482,-3.0851,-3.118,-3.2497,-3.2497,-3.2497,0.0,0.0,0.0,0.0,0.0,0.0,0.0,0.0,0.0,0.0,0.0,0.0,0.0,0.0,0.0,0.0,0.0,0.0,0.0,0.0,-4.5244,-4.6591,-4.7908,-4.8775,-4.9583,-5.087,-5.1708,-5.2217,-5.2187,-5.1708,-5.1229,-5.1229,-5.072,-5.0601,-5.1917,-5.2725,-5.3593,-5.494,-5.5718,-5.7004,-5.9638,0.0,0.0,-6.278,-6.3049,-6.3049,0.0,-6.3049,-6.2409,-6.0899,-5.7596,-5.4809,-5.3042,-5.2929,-5.2929,-5.2929,-5.2904,-5.1728,-4.9316,-4.7413,-4.6307,-4.5669,-4.3687,-4.2711,-4.2711,-4.0873,-3.9883,-3.9902,-4.0312,-4.0508,-4.0547,-4.0976,-4.1172,-4.1172,-4.1172,-4.1172,-4.1172,-4.1172,-4.233,-4.4075,-4.4075,-4.5728,-4.779,0.0,0.0,0.0,0.0,0.0,0.0,0.0,-3.1779,-3.2647,-3.3095,-3.4113,-3.4801,-3.4801,-3.522,-3.522,-3.4532,-3.3694,0.0,0.0,0.0,0.0,0.0,0.0,0.0,0.0,0.0,-3.2198,-3.2886,-3.2647,-3.2766,-3.3185,-3.3185,-3.3487,-3.3959,0.0,0.0,0.0,0.0,0.0,0.0,0.0,0.0,0.0,0.0,0.0,0.0,0.0,0.0,0.0,0.0,0.0,0.0,0.0,0.0,0.0,-4.683,-4.7728,-4.8686,-4.9105,-5.0331,-5.1439,-5.096,-5.1379,-5.1768,-5.1319,-5.105,-5.1139,-5.2007,-5.2366,-5.3054,-5.485,-5.5718,-5.7034,-5.9668,-6.0864,0.0,0.0,0.0,0.0,-6.3707,-6.3707,-6.3239,-6.2022,-6.0125,-5.8268,-5.6582,-5.5624,-5.5164,-5.5164,-5.5164,-5.3483,-5.0077,-4.9298,-4.8326,-4.6848,-4.6268,-4.5091,-4.3342,-4.277,-4.1615,-4.0332,-4.0469,-4.0684,-4.0976,-4.1113,-4.1907,-4.3207,-4.3207,-4.3945,-4.5127,-4.5127,-4.5574,-4.6189,-4.6541,-4.721,-4.8007,0.0,0.0,0.0,0.0,0.0,0.0,0.0,-3.2018,-3.2886,-3.2886,-3.4053,-3.4861,-3.4861,-3.525,-3.534,-3.4891,-3.4262,0.0,0.0,0.0,0.0,0.0,0.0,0.0,0.0,-3.2527,-3.2826,-3.3484,-3.3484,-3.3634,-3.3873,-3.3873,-3.4151,-3.4605,-3.4605,-3.5047,0.0,0.0,0.0,0.0,0.0,0.0,-3.9825,0.0,0.0,0.0,0.0,0.0,0.0,0.0,0.0,0.0,0.0,0.0,0.0,0.0,-4.689,-4.7967,-4.8207,-4.9164,-5.0122,-5.0212,-5.084,-5.1409,-5.1259,-5.1409,-5.1708,-5.2127,-5.2785,-5.3773,-5.5299,-5.6496,-5.8052,-6.0446,-6.1762,-6.2929,0.0,0.0,0.0,-6.5084,-6.5562,-6.5374,-6.4075,-6.2577,-6.0811,-5.8997,-5.7405,-5.642,-5.6219,-5.6219,-5.5106,-5.2547,-5.2303,-5.1512,-5.01,-4.9352,-4.8168,-4.6551,-4.5788,-4.4784,-4.3594,-4.3594,-4.376,-4.4029,-4.4029,-4.4516,0.0,-4.5535,-4.6173,-4.7051,-4.7253,-4.7761,-4.8584,-4.9296,-5.0281,-5.1107,0.0,0.0,0.0,0.0,0.0,0.0,0.0,-3.2647,-3.3455,-3.3484,-3.4622,-3.5429,-3.5429,-3.5459,-3.5519,-3.5519,0.0,0.0,0.0,0.0,0.0,0.0,0.0,0.0,0.0,-3.2617,-3.2976,-3.3634,-3.3694,-3.4053,-3.4681,-3.4681,-3.4745,-3.4808,-3.4748,-3.5094,0.0,0.0,0.0,0.0,-4.0865,-4.1755,0.0,0.0,0.0,0.0,0.0,0.0,0.0,0.0,0.0,0.0,0.0,0.0,0.0,0.0,0.0,0.0,0.0,-4.8237,-4.8596,-4.9853,-5.0212,-5.0421,-5.1079,-5.1738,0.0,-5.2247,-5.3832,-5.5418,-5.6166,-5.7872,-5.9847,-6.1822,-6.275,-6.3647,0.0,-6.5054,0.0,0.0,-6.8166,-6.8279,-6.6693,-6.468,-6.2477,-6.0279,-5.8199,-5.6872,-5.6369,-5.6294,-5.6269,-5.6269,-5.5742,-5.5189,-5.4687,-5.2865,-5.1772,-5.1578,-4.9755,-4.8832,-4.8636,-4.8636,-4.8636,-4.8636,-4.8636,-4.8539,-4.8155,-4.8155,-4.7862,-4.7626,-4.8123,-4.9507,-5.1273,-5.2325,-5.4255,-5.6344,0.0,0.0,0.0,0.0,0.0,0.0,0.0,0.0,0.0,0.0,-3.4203,-3.4711,-3.4711,-3.519,-3.5519,0.0,0.0,0.0,0.0,0.0,0.0,0.0,0.0,0.0,-3.3275,-3.3754,-3.4352,-3.504,-3.5549,-3.6118,-3.6716,-3.6716,-3.702,-3.7643,-3.709,-3.6692,0.0,0.0,0.0,0.0,-3.8804,-3.9838,0.0,0.0,0.0,0.0,-4.0807,-4.0311,0.0,0.0,0.0,0.0,0.0,0.0,0.0,0.0,-4.5484,-4.6711,-4.7369,0.0,-4.8476,-4.9284,-4.9883,-5.0421,0.0,-5.1738,-5.2336,0.0,0.0,0.0,-5.7363,-5.886,-6.0505,-6.251,-6.3827,-6.4665,-6.4994,-6.5473,0.0,-6.7597,-6.8016,-6.8489,-6.909,-6.5639,-6.3197,-6.2644,-5.9471,-5.765,-5.7499,-5.7072,-5.6846,-5.6846,-5.6294,-5.5968,-5.5817,-5.5355,-5.423,-5.2297,-5.1828,-5.055,-4.8636,-4.8636,-4.8636,-4.8636,-4.8636,-4.9491,-5.0755,-5.0755,-5.1584,-5.2833,-5.2956,-5.3562,-5.4464,-5.5135,-5.5904,-5.6922,0.0,0.0,0.0,0.0,0.0,0.0,0.0,0.0,0.0,0.0,0.0,0.0,0.0,0.0,0.0,0.0,0.0,0.0,0.0,0.0,0.0,0.0,0.0,0.0,-3.3933,-3.4592,-3.528,-3.5968,-3.6596,-3.7075,-3.7404,-3.7404,-3.7609,-3.8019,-3.7654,-3.7517,0.0,0.0,0.0,-3.8704,-3.9895,0.0,0.0,0.0,0.0,0.0,-4.0846,-4.0217,0.0,-3.9409,-3.9649,-3.9948,0.0,0.0,0.0,0.0,-4.5244,-4.686,-4.7219,-4.7549,-4.8057,-4.9015,-4.9523,-5.0122,-5.1379,-5.2187,-5.2935,0.0,-5.5388,0.0,0.0,-6.0572,-6.2334,-6.3764,-6.5102,0.0,0.0,0.0,-6.8106,-6.8794,-6.9393,-6.9931,-7.035,-6.7411,-6.5109,-6.3972,-6.1186,-5.9127,-5.7901,-5.76,-5.7424,-5.7424,-5.7148,-5.6746,-5.6219,-5.6219,-5.5605,-5.423,-5.423,-5.3445,-5.2072,-5.2072,-5.2072,-5.2072,-5.2072,-5.2569,-5.3399,-5.3399,-5.3879,-5.4612,-5.5114,-5.5491,-5.5892,-5.6972,-5.7549,-5.7876,0.0,0.0,0.0,0.0,0.0,0.0,0.0,0.0,0.0,0.0,0.0,0.0,0.0,0.0,0.0,0.0,0.0,0.0,0.0,0.0,0.0,0.0,0.0,-3.4113,-3.4771,-3.537,-3.6028,-3.6776,-3.7315,-3.7614,-3.7704,-3.7704,-3.7644,-3.7554,-3.7691,-3.8074,0.0,0.0,-3.972,-4.0227,-4.1759,0.0,0.0,0.0,0.0,0.0,0.0,0.0,0.0,-3.9409,-3.9499,-3.9559,-3.9559,0.0,0.0,0.0,0.0,0.0,-4.7399,-4.7369,-4.7608,-4.8955,-4.9404,-5.0062,-5.1917,0.0,0.0,0.0,0.0,0.0,0.0,-6.2995,0.0,0.0,0.0,0.0,-6.8303,-6.916,-6.9931,-7.0231,-7.1128,-7.1607,-7.1248,-6.9337,-6.7142,-6.4749,-6.2758,-6.0579,-5.8303,-5.8077,-5.8027,-5.8027,-5.7951,-5.7449,-5.647,-5.6369,-5.6344,-5.6344,-5.6244,-5.6219,-5.6219,-5.6219,-5.6219,-5.6219,-5.6219,-5.5942,-5.5516,-5.5516,-5.529,-5.5039,-5.5968,-5.6445,-5.6771,-5.8202,-5.878,-5.8905,0.0,0.0,0.0,0.0,0.0,0.0,0.0,0.0,0.0,0.0,0.0,0.0,0.0,0.0,0.0,0.0,0.0,0.0,0.0,0.0,0.0,0.0,0.0,0.0,-3.6178,-3.6267,-3.6926,-3.8093,-3.8182,-3.8542,-3.911,-3.911,-3.8811,-3.8312,-3.8971,-3.9071,-3.8709,-3.8735,-3.9486,-4.0577,-4.0679,0.0,0.0,0.0,0.0,0.0,0.0,0.0,0.0,-3.9409,-3.9798,-4.0247,-4.0247,0.0,0.0,0.0,0.0,0.0,-4.7848,-4.7728,-4.7608,-4.8955,-5.0092,-5.1289,-5.2695,0.0,0.0,0.0,0.0,0.0,0.0,-6.589,-6.8766,0.0,0.0,-6.9852,0.0,0.0,-6.9752,-7.1398,-7.1278,-7.1457,-7.2505,-6.9863,-6.7203,-6.5218,-6.3377,-6.136,-5.9411,-5.883,-5.8604,-5.8604,-5.8152,-5.7826,-5.765,-5.7148,-5.6922,-5.6897,-5.6445,-5.6219,-5.6219,-5.6219,-5.6219,-5.6219,-5.6219,-5.6168,-5.6093,-5.6093,-5.6319,-5.6671,-5.6846,-5.7499,-5.8378,-5.8629,-5.9006,-5.9382,0.0,0.0,0.0,0.0,0.0,0.0,0.0,0.0,0.0,0.0,0.0,0.0,0.0,0.0,0.0,0.0,0.0,0.0,0.0,0.0,0.0,0.0,0.0,0.0,0.0,-3.7165,-3.7793,-3.8392,-3.911,-3.9649,-3.9948,-3.9948,-3.9589,-3.8931,-3.9355,-3.9627,-3.9761,-3.9761,-4.0587,-4.1893,0.0,0.0,0.0,0.0,0.0,0.0,0.0,0.0,0.0,0.0,-3.9858,-4.0397,-4.0397,0.0,0.0,0.0,0.0,0.0,-4.8027,-4.8596,-4.9284,-5.0906,-5.1481,-5.1941,-5.3283,0.0,0.0,0.0,0.0,0.0,0.0,0.0,-7.0913,-7.202,0.0,-7.1123,-7.2238,-7.0975,-7.035,-7.1248,-7.1398,-7.1398,-7.1338,-7.0681,-6.9312,-6.7437,-6.5264,-6.3099,-6.124,-5.9845,-5.9131,-5.9131,-5.8905,-5.8755,-5.8755,-5.8227,-5.7801,-5.7499,-5.7248,-5.7123,-5.7123,-5.6796,-5.6646,-5.6646,-5.6344,-5.6219,-5.6244,-5.652,-5.6796,-5.7097,-5.77,-5.8278,-5.8755,-5.9031,-5.9483,-5.991,0.0,0.0,0.0,0.0,0.0,0.0,0.0,0.0,0.0,0.0,0.0,0.0,0.0,0.0,0.0,0.0,0.0,0.0,0.0,0.0,0.0,0.0,0.0,0.0,0.0,-3.7823,-3.8542,-3.8871,-3.9888,-4.0487,-4.0636,-4.0457,-4.0274,-3.9907,-3.9541,-3.999,-4.0961,-4.0739,-4.1517,-4.2889,0.0,0.0,0.0,0.0,0.0,0.0,0.0,0.0,0.0,0.0,0.0,0.0,0.0,0.0,0.0,-4.4556,-4.5963,-4.7668,-4.8327,-4.9704,-5.1334,-5.309,-5.3512,-5.3819,0.0,-5.8096,-6.0967,-6.2395,0.0,0.0,0.0,-7.0896,0.0,-7.467,-7.3242,-7.2526,-7.3901,-7.1926,-7.047,-7.047,-7.0769,-7.0829,-7.047,-7.1038,-7.0858,-6.9171,-6.6848,-6.4518,-6.2561,-6.0507,-5.9483,-5.9483,-5.9483,-5.9483,-5.9483,-5.9106,-5.8629,-5.8102,-5.7951,-5.7901,-5.7876,-5.7449,-5.7223,-5.7223,-5.6796,-5.6671,-5.6821,-5.7248,-5.7575,-5.7901,-5.8755,-5.9182,-5.9357,-5.9734,-6.0161,-6.0462,0.0,0.0,0.0,0.0,0.0,0.0,0.0,0.0,0.0,0.0,0.0,0.0,0.0,0.0,0.0,0.0,0.0,0.0,0.0,0.0,0.0,0.0,0.0,0.0,0.0,-3.8033,-3.899,-4.0247,-4.0337,-4.0696,-4.1294,-4.0696,-4.0777,-4.1441,-4.0009,-4.0309,-4.1852,-4.0842,-4.1328,-4.2664,-4.2516,0.0,0.0,0.0,0.0,0.0,0.0,0.0,0.0,0.0,0.0,0.0,0.0,0.0,-4.5214,-4.5214,-4.6651,-4.8356,-4.9015,-5.1056,-5.3326,-5.4722,-5.6466,-5.8027,-5.9242,-6.2679,-6.5423,-6.4995,-6.8064,0.0,0.0,-7.4638,-7.781,-7.8621,-7.6234,-7.4186,-7.3675,0.0,-6.9153,-6.9153,-6.8615,-6.9183,-7.1517,-7.0769,-6.991,-6.9084,-6.7269,-6.4982,-6.2561,-6.0507,-5.9483,-5.9483,-5.9483,-5.9483,-5.9483,-5.9458,-5.9182,-5.8654,-5.8152,-5.7901,-5.7901,-5.7851,-5.7851,-5.7826,-5.7801,-5.8077,-5.8554,-5.8579,-5.9182,-6.0085,-6.0161,-6.0537,-6.1014,-6.104,-6.109,-6.1115,0.0,0.0,0.0,0.0,0.0,0.0,0.0,0.0,0.0,0.0,0.0,0.0,0.0,0.0,0.0,0.0,0.0,0.0,0.0,0.0,0.0,0.0,0.0,-3.7614,-3.8003,-3.8691,-3.9469,-4.0397,-4.1235,-4.1743,-4.1983,-4.1324,-4.1273,-4.1643,-4.0111,-4.006,-4.1127,-4.0648,-4.0979,-4.194,-4.2226,-4.2761,0.0,0.0,0.0,0.0,0.0,0.0,0.0,0.0,-4.1115,-4.2043,-4.2282,-4.3718,-4.5304,-4.5304,-4.701,-4.9284,-5.1175,-5.297,-5.5243,-5.9073,-6.1271,0.0,0.0,-6.4266,-6.7246,-6.753,-7.0272,-7.3452,0.0,0.0,-7.6961,-7.8213,-7.6192,-7.4269,-7.3548,-7.1315,-6.9367,-6.847,-6.8495,-6.8824,-6.9393,-7.05,-7.0473,-6.8594,-6.7073,-6.5036,-6.2588,-6.084,-5.9859,-5.9508,-5.9834,-5.9834,-5.9483,-5.9483,-5.9408,-5.9207,-5.8981,-5.888,-5.888,-5.8554,-5.8403,-5.8403,-5.8403,-5.8504,-5.8755,-5.9433,-5.996,-6.0362,-6.0713,-6.0989,-6.119,-6.119,-6.1391,-6.1642,0.0,0.0,0.0,0.0,0.0,0.0,0.0,0.0,0.0,0.0,0.0,0.0,0.0,0.0,0.0,0.0,0.0,0.0,0.0,0.0,0.0,0.0,0.0,-3.7704,-3.8392,-3.908,-3.9738,-4.0397,-4.1713,-4.2462,-4.2641,-4.1773,-4.1637,-4.1952,-4.0202,-3.9849,-4.0684,-4.0746,-4.0965,-4.1444,-4.2312,-4.294,0.0,0.0,0.0,0.0,0.0,0.0,0.0,0.0,-4.1624,-4.2432,-4.2851,-4.4047,-4.5364,-4.5813,-4.7748,-5.0269,-5.2529,-5.5045,-5.8083,-6.1906,0.0,0.0,-6.4747,-6.6858,-6.9248,-7.0263,-7.3206,-7.6183,-7.8077,0.0,0.0,0.0,-7.6273,-7.4366,-7.3824,-7.1528,-6.9469,-6.8153,-6.8118,-6.8106,-6.8286,-7.0111,-7.0694,-6.9378,-6.7524,-6.5683,-6.3955,-6.1505,-6.0236,-6.0035,-6.0211,-6.0136,-5.9759,-5.9583,-5.9483,-5.9483,-5.9659,-5.9659,-5.9483,-5.9307,-5.9232,-5.9232,-5.9408,-5.9583,-5.9784,-6.0537,-6.0964,-6.114,-6.2287,-6.2598,-6.2731,-6.3336,-6.3882,-6.4168,0.0,0.0,0.0,0.0,0.0,0.0,0.0,0.0,-3.5519,-3.5519,-3.6088,0.0,0.0,0.0,0.0,0.0,0.0,0.0,-3.9409,-3.8153,-3.7704,-3.8362,-3.7764,-3.7734,-3.8392,-3.908,-3.9738,-4.0397,-4.1713,-4.2671,-4.3299,-4.1983,-4.1849,-4.2633,-4.0414,-3.9879,-4.0715,-4.123,-4.1384,-4.1504,-4.2821,-4.3329,-4.3329,0.0,0.0,0.0,0.0,0.0,0.0,0.0,-4.2372,-4.2611,-4.3898,-4.4766,-4.5574,-4.692,-4.9017,-5.1251,-5.2704,-5.7323,-6.2009,-6.2769,0.0,0.0,-7.006,-7.0804,-7.1751,-7.3206,-7.7063,-7.9498,-7.7299,-7.9295,0.0,-7.9329,-7.6606,-7.4757,-7.4724,-7.1584,-6.8953,-6.8272,-6.6877,-6.6789,-6.8794,-6.9542,-7.047,-7.1757,-6.8993,-6.7183,-6.7009,-6.2813,-6.0588,-6.1165,-6.0638,-6.0337,-6.0337,-5.9784,-5.9508,-5.9508,-6.006,-6.0035,-5.9533,-6.006,-6.0337,-6.0362,-6.0939,-6.1492,-6.1994,-6.2019,-6.232,-6.3123,-6.5082,-6.5844,-6.6156,-6.8132,-6.8888,-6.8888,0.0,0.0,0.0,0.0,0.0,0.0,0.0,0.0,-3.6178,-3.6178,-3.6357,0.0,0.0,0.0,0.0,0.0,0.0,0.0,-3.9409,-3.8153,-3.7913,-3.905,-3.8003,-3.7943,-3.908,-3.932,-3.9738,-4.0397,-4.1265,-4.2123,-4.2842,-4.1354,-4.1484,-4.2789,0.0,0.0,-4.1426,-4.1412,-4.1654,-4.2132,-4.3,-4.3329,-4.3329,0.0,0.0,0.0,0.0,0.0,0.0,0.0,0.0,0.0,-4.4197,-4.5095,-4.6172,-4.704,-5.011,-5.3752,-5.6582,-5.9924,0.0,-6.6484,0.0,0.0,0.0,-7.2665,-7.3409,0.0,-7.7367,-7.845,-7.7773,-7.7942,0.0,-7.7638,-7.6365,-7.487,-7.3373,-7.2613,-7.14,-6.9153,-6.8575,-6.8026,-6.7631,-6.8615,-6.906,-6.859,-6.8119,-6.758,-6.7128,-6.5815,-6.4497,-6.3387,-6.3441,-6.2792,-6.0914,-6.0763,-6.0688,-6.0688,-6.0839,-6.0638,-6.0085,-6.0663,-6.0914,-6.0964,-6.1517,-6.1843,-6.218,-6.3925,-6.5555,-6.7088,-6.7675,-6.798,-6.798,-6.8737,-6.8888,-6.8888,0.0,0.0,0.0,0.0,0.0,0.0,-3.6417,-3.6477,-3.6477,-3.6477,-3.6716,-3.7255,0.0,0.0,0.0,-3.9379,-3.9409,-3.9409,-3.9409,-3.8153,-3.7883,-3.896,-3.7973,-3.8033,-3.9379,-3.9737,-4.0132,-4.0527,-4.1195,-4.1943,-4.2664,-4.1473,-4.1617,-4.2779,0.0,-4.045,-4.1595,-4.1776,-4.1983,-4.2402,-4.306,-4.3329,-4.3329,0.0,0.0,0.0,0.0,0.0,0.0,0.0,0.0,0.0,-4.5035,-4.5843,-4.6916,-4.7946,-5.1172,-5.4948,-5.7721,-6.0981,0.0,-6.7015,-6.8639,-7.0541,-7.4218,0.0,0.0,0.0,-7.8502,-7.8585,-7.7705,-7.7908,0.0,-7.7029,-7.6724,-7.6129,-7.4805,-7.4568,-7.377,-7.1615,-7.038,-6.9161,-6.7998,-6.8539,-6.8951,-6.8679,-6.8287,-6.8417,-6.9016,-6.7724,-6.6641,-6.6137,-6.5382,-6.4221,-6.2684,-6.1742,-6.119,-6.119,-6.1416,-6.1767,-6.2172,-6.1634,-6.1517,-6.1542,-6.2981,-6.3981,-6.4926,-6.6463,-6.7827,-6.9038,-6.9783,-7.0079,-7.0227,-7.0988,-7.1278,-7.1278,0.0,0.0,0.0,0.0,0.0,0.0,-3.6567,-3.6567,-3.6567,-3.6567,-3.7105,-3.7764,0.0,0.0,0.0,-3.9409,-3.9409,-3.9379,-3.932,-3.8123,-3.7674,-3.8272,-3.7803,-3.8112,-3.9272,-4.0255,-4.0733,-4.0733,-4.1379,-4.2101,-4.2762,-4.193,-4.2023,-4.2643,0.0,-4.0756,-4.1504,-4.2043,-4.2342,-4.2491,-4.303,-4.3269,-4.3329,-4.3269,0.0,0.0,0.0,0.0,0.0,0.0,0.0,0.0,-4.6022,-4.6711,-4.7688,-4.9466,-5.2376,-5.5357,-5.7346,-6.1179,0.0,-6.5865,-6.8387,0.0,-7.6834,-7.7984,-7.8381,-7.9554,0.0,-7.9692,-7.7516,-7.8812,-7.9528,-7.7493,-7.7634,-7.7976,-7.7976,-7.6842,-7.5686,-7.4955,-7.2222,-7.0179,-6.9356,-6.9032,-6.9393,-7.0799,-6.9265,-6.9366,-7.2027,-6.9161,-6.803,-6.916,-6.6855,-6.5515,-6.5361,-6.3076,-6.1926,-6.1926,-6.2433,-6.3591,-6.5207,-6.3274,-6.2366,-6.2712,-6.5031,-6.7215,-6.9187,-6.9187,-6.9337,-6.9635,-7.1423,-7.2171,-7.2456,-7.4258,-7.4869,-7.4869,0.0,0.0,0.0,0.0,0.0,0.0,-3.7225,-3.7225,-3.7225,-3.7225,-3.7764,-3.8452,-3.911,-3.932,0.0,-3.9409,-3.9409,-3.92,-3.8631,-3.7853,-3.7464,-3.7614,-3.8044,-3.8504,-3.8744,-4.0161,-4.0865,-4.0865,-4.1563,-4.2366,-4.3132,0.0,0.0,-4.2829,0.0,-4.0576,-4.2132,-4.1743,-4.2192,-4.309,-4.2731,-4.288,-4.3269,-4.2761,-4.3299,0.0,0.0,0.0,0.0,0.0,0.0,0.0,-4.5304,-4.6352,-4.7869,-5.0691,-5.3882,-5.7248,-6.0712,-6.3568,0.0,0.0,-7.1609,-7.5323,-8.0606,-8.0197,-7.8946,-7.988,-8.0555,-8.0524,-7.8925,-7.9267,-7.9638,-7.9189,-7.8484,-7.7976,-7.7976,-7.7745,-7.7011,-7.5719,-7.3424,-7.1484,-7.021,-6.8455,-6.8375,-7.0739,-6.9576,-7.0426,-7.408,-7.2571,-7.1568,-7.1221,-7.0671,-6.9707,-6.8092,-6.7528,-6.7295,-6.7322,-6.7278,-6.7637,-6.7941,-6.5971,-6.5815,-6.7512,-6.7925,-6.9337,-7.125,-7.125,-7.2171,-7.3672,-7.412,-7.4258,-7.4258,-7.4731,-7.4869,-7.4869,0.0,0.0,0.0,0.0,0.0,0.0,0.0,0.0,-3.7764,-3.7434,-3.7973,-3.8661,-3.9349,-3.9409,0.0,0.0,-3.9409,-3.914,-3.8422,-3.7764,-3.7459,-3.7496,-3.7923,-3.8463,-3.9157,-4.0315,-4.0934,-4.0934,-4.207,-4.2867,0.0,0.0,0.0,-4.2905,0.0,-4.0816,-4.2419,-4.1983,-4.2432,-4.3299,-4.297,-4.321,-4.3778,-4.3419,-4.4107,-4.5304,-4.5663,0.0,0.0,0.0,0.0,0.0,0.0,0.0,-4.7865,-5.0871,-5.3987,-5.7236,-6.1036,0.0,0.0,-7.0229,0.0,-7.8248,-8.1041,-8.1906,-8.21,-8.1776,-8.1227,-8.0612,-8.0268,-8.0972,-8.1418,-8.0823,-8.0613,-8.0253,-7.9666,-7.9261,-7.869,-7.7545,-7.547,-7.3347,-7.1547,-6.937,-6.888,-7.0709,-6.9722,-7.059,-7.421,-7.3462,-7.2938,-7.2864,-7.2282,-7.1423,-7.0374,-6.9337,-6.8888,-6.8888,-6.8888,-6.9337,-7.0227,-6.8284,-6.8435,-7.0374,-7.0374,-7.1423,-7.3363,-7.3363,-7.3951,-7.4869,-7.4869,-7.4869,-7.4869,-7.4869,-7.4869,-7.4929,0.0,0.0,0.0,0.0,0.0,0.0,0.0,0.0,0.0,-3.7494,-3.8093,-3.8781,-3.9349,-3.9409,-3.9409,0.0,0.0,0.0,-3.8422,-3.7674,-3.7328,-3.7404,-3.7561,-3.8276,-3.9638,-4.0533,-4.1031,-4.1031,-4.25,-4.3116,0.0,0.0,0.0,-4.2706,0.0,0.0,0.0,0.0,-4.2731,-4.3329,-4.3329,-4.3718,-4.4317,-4.4317,-4.5155,-4.6322,-4.6322,-4.6322,-4.6292,-4.6202,0.0,0.0,0.0,0.0,-4.8019,-5.1057,-5.4019,-5.7149,-6.0998,0.0,-6.6896,-7.1512,-7.6362,0.0,-8.0359,-8.2828,-8.4866,-8.3838,-8.2215,-8.1255,-8.2005,-8.3269,-8.3847,-8.2661,-8.2778,-8.2734,-8.1526,-8.0749,-7.9972,-7.9363,-7.724,-7.5128,-7.3218,-7.0753,-6.9755,-7.1164,-6.9939,-7.056,-7.3732,-7.3373,-7.3343,-7.3881,-7.2871,-7.2456,-7.2456,-7.0842,-6.9959,-6.9959,-6.9959,-7.0842,-7.2314,-7.0667,-7.0842,-7.2456,-7.2456,-7.3363,-7.4869,-7.4869,-7.4869,-7.4869,-7.4869,-7.4869,-7.4869,-7.4869,-7.4958,-7.5138,0.0,0.0,0.0,0.0,0.0,0.0,0.0,0.0,0.0,0.0,-3.8512,-3.932,-3.9409,-3.9409,-3.9409,-3.9409,-3.9409,-3.914,-3.8422,0.0,0.0,-3.6724,-3.7421,-3.8155,-3.904,-4.0408,-4.1182,-4.1182,-4.203,0.0,0.0,0.0,0.0,-4.1814,0.0,0.0,-4.2372,0.0,0.0,-4.3329,-4.3329,-4.3718,-4.4317,-4.4317,-4.5155,-4.6322,-4.6322,-4.6322,-4.6232,-4.5633,-4.5005,0.0,0.0,0.0,-4.8488,-5.2397,-5.5718,-5.9168,0.0,0.0,-7.0968,0.0,-7.5989,-7.8768,0.0,0.0,-8.303,0.0,-8.4186,-8.4268,-8.5072,-8.5695,-8.5837,-8.4996,-8.3912,-8.2811,-8.1965,-8.0838,-8.0175,-8.0073,-7.7574,-7.5674,-7.5365,-7.16,-7.0199,-7.2583,-7.0935,-7.1038,-7.3762,-7.3821,-7.3821,-7.3881,-7.4236,-7.4564,-7.4564,-7.4258,-7.412,-7.412,-7.412,-7.4258,-7.4426,-7.4258,-7.4258,-7.4564,-7.4564,-7.4702,-7.4869,-7.4869,-7.4869,-7.4869,-7.4869,-7.4869,-7.4869,-7.4869,-7.5258,-7.5766,0.0,0.0,0.0,0.0,0.0,0.0,0.0,0.0,0.0,0.0,0.0,-3.9409,-3.9409,-3.908,-3.8841,-3.8841,-3.8512,-3.8003,-3.7375,-3.6447,-3.6148,-3.6569,-3.6904,-3.7642,-3.8854,-3.9561,-4.0165,-4.0561,-4.1305,0.0,0.0,-4.1082,-4.1083,0.0,0.0,0.0,0.0,0.0,0.0,0.0,-4.3748,0.0,0.0,-4.5424,-4.6262,-4.7369,-4.701,-4.6651,-4.6232,-4.5514,-4.4855,-4.4317,-4.4317,0.0,0.0,0.0,-5.5408,-5.9032,-6.4301,-6.7827,-7.0711,0.0,-7.6182,-7.8974,-8.0542,-8.2251,-8.3618,-8.3875,-8.4278,-8.4976,-8.6261,-8.7375,-8.7665,-8.6186,-8.5238,-8.4201,-8.2731,-8.1141,-8.0209,-8.0209,-7.8321,-7.674,-7.5917,-7.3306,-7.2094,-7.3044,-7.1936,-7.1759,-7.3223,-7.3702,-7.3732,-7.3343,-7.433,-7.4869,-7.4869,-7.4869,-7.4869,-7.4869,-7.4869,-7.4869,-7.4869,-7.4869,-7.4869,-7.4869,-7.4869,-7.4869,-7.4869,-7.4869,-7.4869,-7.4869,-7.4869,-7.4869,-7.4869,-7.4869,-7.5078,-7.5437,0.0,0.0,0.0,0.0,0.0,0.0,0.0,0.0,0.0,0.0,0.0,-3.9349,-3.917,0.0,0.0,0.0,-3.7704,-3.7135,-3.6537,-3.6028,-3.6027,-3.6569,-3.66,-3.7291,-3.8854,-3.8908,-3.9315,-4.0087,0.0,0.0,-3.9886,-4.0627,-4.0452,0.0,-4.0202,0.0,0.0,0.0,0.0,-4.3629,-4.4287,0.0,0.0,-4.6741,-4.7638,-4.8686,-4.8027,-4.7608,-4.7189,-4.6352,-4.5633,-4.5065,-4.5065,-4.6732,0.0,0.0,0.0,0.0,0.0,0.0,-6.9992,-7.2563,-7.6226,-7.932,0.0,0.0,-8.4168,0.0,-8.4168,-8.5049,-8.6444,-8.8023,-8.8508,-8.6822,-8.6071,-8.5093,-8.3368,-8.1405,-8.0209,-8.0209,-7.8889,-7.7546,-7.6502,-7.4629,-7.3607,-7.3682,-7.2911,-7.2582,-7.2922,-7.3761,-7.3762,-7.2954,-7.418,-7.4869,-7.4869,-7.4869,-7.4869,-7.4869,-7.4869,-7.4869,-7.4869,-7.4869,-7.4869,-7.4869,-7.4869,-7.4869,-7.4869,-7.4869,-7.4869,-7.4869,-7.4869,-7.4869,-7.4869,-7.4869,-7.4988,-7.5288,0.0,0.0,0.0,0.0,0.0,0.0,0.0,0.0,0.0,0.0,0.0,-3.917,-3.8512,-3.8422,-3.8153,-3.7524,-3.7434,-3.7135,-3.6537,-3.6447,-3.6481,-3.6569,-3.66,0.0,-3.8854,-3.8908,-3.9315,0.0,0.0,0.0,-4.0094,-4.0705,-4.053,-3.973,-4.0202,-4.0427,-4.0546,0.0,0.0,0.0,-4.4975,0.0,0.0,-4.7938,-4.8985,-5.0062,-4.9404,-4.9553,-4.9853,-4.8566,-4.7698,-4.716,-4.716,-4.8666,-5.0826,0.0,0.0,0.0,0.0,-6.8402,0.0,-7.2056,-7.5793,0.0,0.0,0.0,-8.3691,-8.4389,-8.4572,-8.4866,-8.571,-8.7178,-8.7986,-8.7109,-8.5765,-8.4541,-8.3677,-8.1569,-8.0209,-8.0209,-7.8889,-7.7976,-7.7878,-7.5339,-7.4089,-7.5251,-7.3971,-7.3107,-7.3108,-7.4172,-7.424,-7.2954,-7.418,-7.4869,-7.4869,-7.4869,-7.4869,-7.4869,-7.4869,-7.4869,-7.4869,-7.4869,-7.4869,-7.4869,-7.4869,-7.4869,-7.4869,-7.4869,-7.4869,-7.4869,-7.4869,-7.4869,-7.4869,-7.4869,-7.5288,-7.5946,0.0,0.0,0.0,0.0,0.0,0.0,0.0,0.0,0.0,0.0,0.0,0.0,0.0,-3.8003,-3.7494,-3.6866,-3.6417,-3.5908,-3.525,-3.519,-3.5018,-3.4607,-3.4576,-3.5515,-3.7533,-3.7533,0.0,0.0,0.0,-4.0065,-3.9972,-4.0144,-3.9783,-3.9044,-4.0523,-4.1164,-4.1115,-4.2432,0.0,0.0,0.0,0.0,0.0,-4.8835,-4.9733,-5.0873,-5.0967,-5.0423,-4.9554,-4.9352,-4.8845,-4.8385,-4.8783,-5.0485,-5.2885,-5.616,0.0,0.0,0.0,0.0,0.0,-7.236,-7.4807,-7.7285,-8.02,-8.0861,-8.1441,-8.3411,-8.3434,-8.3471,-8.4792,-8.6775,-8.7949,-8.7142,-8.6383,-8.5589,-8.4801,-8.275,-8.1283,-8.1283,-7.9722,-7.8517,-7.8044,-7.6638,-7.5673,-7.5503,-7.5904,-7.5887,-7.5364,-7.7057,-7.7653,-7.6714,-7.6468,-7.5966,-7.4869,-7.4869,-7.4869,-7.4869,-7.4869,-7.4869,-7.4869,-7.4869,-7.4869,-7.4869,-7.4869,-7.4869,-7.4869,-7.4869,-7.4869,-7.4869,-7.4869,-7.5138,-7.5527,-7.5527,-7.5677,-7.6006,0.0,0.0,0.0,0.0,0.0,0.0,0.0,0.0,0.0,-3.9349,0.0,0.0,0.0,0.0,-3.7404,-3.6567,-3.5878,-3.531,-3.4861,-3.4592,-3.4292,-3.3844,-3.3604,-3.4421,-3.6382,-3.6437,0.0,0.0,0.0,0.0,0.0,-4.0943,-4.0688,-4.023,-4.1323,-4.1494,0.0,0.0,0.0,-4.4766,0.0,0.0,-4.9344,-5.0002,-5.093,-5.1957,-5.2393,-5.1935,-5.1212,-5.1421,-5.0975,-5.0536,-5.1277,-5.2716,-5.4891,-5.8328,0.0,0.0,-6.4005,0.0,0.0,0.0,0.0,-7.69,-8.0164,0.0,-8.1481,-8.2715,-8.281,-8.2774,-8.3287,-8.538,-8.6995,-8.6995,-8.6501,-8.5892,-8.535,-8.3329,-8.1875,-8.1875,-8.0219,-7.8822,-7.8044,-7.7333,-7.6537,-7.5601,-7.6901,-7.7434,-7.6702,-7.8602,-7.9579,-7.9099,-7.8438,-7.7579,-7.663,-7.6467,-7.6467,-7.6467,-7.5966,-7.5728,-7.5728,-7.5112,-7.4869,-7.4869,-7.4869,-7.4869,-7.4869,-7.4869,-7.4869,-7.4869,-7.4869,-7.5288,-7.5916,-7.5916,-7.6036,-7.6275,0.0,0.0,0.0,0.0,0.0,0.0,0.0,0.0,-3.9409,-3.9409,0.0,0.0,0.0,0.0,0.0,-3.6596,-3.5878,-3.5489,-3.5459,-3.4831,-3.4505,-3.4445,0.0,0.0,0.0,0.0,0.0,0.0,0.0,0.0,0.0,0.0,-4.3327,-4.3196,-4.2395,-4.1435,-4.0561,0.0,-4.294,-4.5454,0.0,-4.8117,-4.9584,-5.1503,-5.2642,-5.3315,-5.3775,-5.4326,-5.488,-5.473,-5.4223,-5.3775,-5.448,-5.5442,0.0,0.0,0.0,0.0,0.0,0.0,0.0,0.0,0.0,0.0,-7.9878,0.0,-8.4132,-8.259,-8.2884,-8.2957,-8.1379,-8.2994,-8.5086,-8.6628,-8.5992,-8.5355,-8.5355,-8.3415,-8.1968,-8.1933,-8.0219,-7.8822,-7.8044,-7.7299,-7.6589,-7.5811,-7.7067,-7.7618,-7.6959,-7.8888,-7.9925,-7.9925,-7.9803,-7.9803,-7.9803,-7.9803,-7.9803,-7.9803,-7.8186,-7.7419,-7.729,-7.5728,-7.5006,-7.5006,-7.4869,-7.4869,-7.4869,-7.4869,-7.4869,-7.4869,-7.4869,-7.5318,-7.5946,-7.5946,-7.6335,-7.6844,0.0,0.0,0.0,0.0,0.0,-3.8571,-3.905,-3.929,-3.9409,0.0,0.0,0.0,0.0,-3.7554,-3.6866,-3.6507,-3.5878,-3.51,-3.4113,-3.3873,-3.3578,-3.3161,-3.2946,-3.3732,0.0,0.0,0.0,0.0,0.0,0.0,0.0,0.0,0.0,0.0,-4.2169,-4.2275,-4.272,-4.2831,0.0,-4.6142,-4.7489,-4.9277,0.0,-5.1662,-5.2781,-5.419,-5.5159,-5.5172,-5.4857,-5.6157,-5.6137,-5.5726,-5.7299,0.0,0.0,0.0,0.0,0.0,-6.2685,0.0,0.0,0.0,0.0,0.0,0.0,0.0,-8.2863,-8.3741,-8.4095,-8.3948,-8.2957,-8.3287,-8.3691,-8.3544,-8.5248,-8.65,-8.65,-8.4532,-8.2979,-8.2416,-8.0415,-7.8619,-7.7333,-7.7029,-7.7029,0.0,-7.8657,-7.9898,-8.0737,-8.2427,-8.2684,-8.1621,-8.1505,-8.1003,-7.9803,-7.9803,-7.9803,-7.9771,-7.9312,-7.9065,-7.9065,-7.745,-7.67,-7.6568,-7.5354,-7.4869,-7.4869,-7.4869,-7.4869,-7.4869,-7.4869,-7.5587,-7.6574,-7.6574,-7.6993,-7.7532,0.0,0.0,-3.7524,-3.8272,-3.8631,-3.896,-3.9349,-3.9409,-3.9409,0.0,0.0,0.0,-3.8871,-3.7883,-3.7285,-3.7285,-3.6686,-3.5848,-3.4801,-3.4233,-3.3759,-3.3413,-3.2881,-3.3425,-3.5218,0.0,0.0,0.0,0.0,0.0,0.0,0.0,0.0,0.0,-4.2729,-4.3362,-4.4763,-4.4127,0.0,0.0,-4.8218,0.0,0.0,-5.2809,-5.3976,-5.5089,-5.6188,-5.658,-5.6824,-5.774,-5.823,-5.8575,-5.9996,-6.052,0.0,0.0,0.0,0.0,0.0,0.0,0.0,0.0,0.0,0.0,0.0,0.0,0.0,0.0,-8.3141,-8.3361,-8.2553,-8.3214,-8.3765,-8.3287,-8.5343,-8.6489,-8.5078,-8.3646,-8.243,-8.1485,-8.0133,-7.8695,-7.7092,-7.7468,-7.7874,-7.7976,-7.9938,-8.1629,-8.2813,-8.3693,-8.3672,-8.2699,-8.3032,-8.2718,-8.1853,-8.1853,-8.1853,-8.182,-8.1121,-8.0766,-8.0766,-7.9033,-7.8313,-7.8313,-7.7321,-7.6962,-7.6992,-7.6992,-7.613,-7.4869,-7.4869,-7.5677,-7.6814,-7.6814,-7.7412,-7.819,0.0,0.0,-3.8422,-3.8482,-3.902,-3.9409,-3.9409,-3.9409,-3.9439,0.0,-3.9529,-3.9529,-3.9529,-3.8841,-3.8392,-3.8392,-3.7793,-3.7135,-3.6537,-3.5499,-3.482,-3.4767,-3.3692,-3.3634,-3.482,-3.5497,0.0,0.0,0.0,0.0,0.0,0.0,0.0,0.0,-4.3898,-4.4702,-4.6553,-4.5484,-4.5725,-4.7045,-4.9127,-5.0496,0.0,-5.4317,-5.5589,-5.6021,-5.6953,-5.8162,-5.9429,-5.9237,-6.0148,-6.1535,-6.2279,-6.2009,-6.1535,-6.2212,-6.2448,0.0,0.0,0.0,0.0,-6.8402,-7.077,0.0,0.0,0.0,0.0,0.0,-8.1249,-8.2165,-8.1452,-8.3074,-8.451,-8.4327,-8.55,-8.544,-8.2575,-8.1989,-8.1398,-7.9962,-7.9614,-7.8946,-7.7295,-7.8348,-7.8889,-7.8382,-8.0885,-8.2712,-8.3321,-8.3456,-8.349,-8.349,-8.4234,-8.464,-8.464,-8.464,-8.464,-8.4606,-8.3166,-8.2458,-8.2458,-8.0766,-8.0046,-8.0046,-7.9893,-7.9739,-7.9675,-7.9771,-7.8091,-7.5384,-7.5248,-7.6061,-7.7343,-7.6954,-7.7794,-7.8986,-3.7823,-3.8212,-3.8571,-3.911,-3.932,-3.9409,-3.9409,-3.9409,-3.9619,-4.0127,-4.0217,-4.0217,-4.0217,-3.911,-3.8392,-3.8392,-3.7793,-3.7135,-3.6537,-3.6865,-3.6815,-3.6292,-3.6088,-3.6125,-3.635,-3.6531,-3.6747,0.0,0.0,0.0,0.0,0.0,0.0,0.0,-4.5024,-4.5991,-4.7308,-4.7659,-4.8868,-5.0469,-5.0632,-5.2099,-5.4333,-5.4914,-5.6095,-5.7532,-5.7682,-5.8362,-5.917,-5.97,-6.0892,-6.2313,-6.3057,-6.2787,-6.2212,-6.2347,-6.2821,0.0,0.0,0.0,-6.5358,-6.759,-6.9193,0.0,-7.2962,-7.6747,-7.9971,0.0,-8.2215,-8.3593,-8.3044,-8.366,-8.3734,-8.2432,-8.2504,-8.3192,-8.4412,-8.3852,-8.2567,-8.0775,-7.9727,-7.9084,-7.8686,-7.8957,-7.9532,-8.0581,-8.1731,-8.2475,-8.2611,-8.3186,-8.349,-8.349,-8.4234,-8.464,-8.464,-8.464,-8.464,-8.464,-8.4251,-8.4143,-8.4035,-8.2458,-8.1737,-8.1621,-8.0376,-7.9419,-7.8818,-7.9547,-7.9436,-7.8691,-7.7321,-7.8517,-8.0613,-7.7836,-7.8577,-8.0618,-3.8272,-3.8661,-3.902,-3.9349,-3.9409,-3.9409,-3.9409,-3.9709,-4.0038,-4.0367,-4.0696,-4.0876,-4.0876,-4.0277,-3.9738,-3.9409,-3.908,-3.8482,-3.7494,-3.7912,-3.8059,-3.7738,-3.7894,-3.7936,-3.7889,-3.8599,-3.8633,0.0,0.0,0.0,0.0,0.0,0.0,0.0,-4.5703,-4.7087,-4.9359,-4.9587,-5.1427,-5.403,-5.2534,0.0,-5.5259,-5.5746,-5.7003,-5.8457,-5.8457,-5.9201,-6.0385,-6.1839,-6.3091,-6.4038,-6.4038,-6.4038,-6.4038,-6.4038,-6.3802,-6.3666,-6.441,-6.4884,-6.5493,-6.6981,-6.8095,0.0,0.0,0.0,-7.6138,-7.7766,-7.9343,-8.0757,-8.1847,-8.2577,-8.2824,-8.2427,-8.2355,-8.2854,-8.4246,-8.2963,-8.1207,-7.9634,-7.9385,-7.9132,-7.865,-7.8889,-7.9701,-8.119,-8.1629,-8.1832,-8.1832,-8.2543,-8.2949,-8.2949,-8.4031,-8.464,-8.464,-8.464,-8.464,-8.464,-8.464,-8.464,-8.4606,-8.3784,-8.3421,-8.331,-8.2538,-8.1769,-8.111,-8.1506,-8.1473,-8.1016,-7.9622,-7.9984,-8.1185,-8.0244,-8.0799,-8.2056,-3.8571,-3.905,-3.9409,-3.9409,-3.9409,-3.9469,-3.9589,-4.0068,-4.0487,-4.0756,-4.1235,-4.1564,-4.1564,-4.1671,-4.1445,-4.0902,-4.1061,-4.0648,-3.9625,-3.9672,-3.9818,-3.9891,-3.9785,-3.9673,-3.9648,-4.0527,-4.0392,-3.9208,0.0,0.0,0.0,0.0,0.0,0.0,0.0,0.0,0.0,0.0,0.0,-5.6423,0.0,-5.4966,-5.6535,-5.7352,-5.849,-5.9674,-5.9674,-6.0554,-6.2009,-6.3937,-6.5087,-6.5628,-6.5324,-6.5425,-6.573,-6.5865,-6.5087,-6.441,-6.5595,-6.603,-6.6364,-6.7146,-6.7789,-6.8747,0.0,0.0,0.0,0.0,0.0,0.0,0.0,0.0,0.0,-8.2644,0.0,0.0,0.0,-8.1732,0.0,-7.9651,-7.9427,-7.9256,-7.9007,-7.9359,-7.9972,-8.0987,-8.119,-8.1224,-8.1088,-8.1934,-8.2408,-8.2408,-8.3998,-8.4776,-8.464,-8.4776,-8.4776,-8.464,-8.464,-8.464,-8.464,-8.464,-8.464,-8.464,-8.464,-8.4099,-8.3287,-8.3422,-8.3084,-8.2263,-8.129,-8.1117,-8.1496,-8.2293,-8.2935,-8.3349,-3.932,-3.9379,-3.9409,-3.9409,-3.9409,-3.9619,-4.0217,-4.0337,-4.0816,-4.1983,-4.2192,-4.2252,-4.2252,-4.248,-4.2633,-4.2571,-4.3283,-4.3699,-4.354,-4.3653,-4.3764,-4.3727,-4.2601,-4.1929,-4.1914,-4.0798,-4.0121,-3.9986,0.0,0.0,0.0,0.0,0.0,0.0,-4.7496,0.0,0.0,0.0,-5.5373,0.0,-5.6892,-5.8646,0.0,-6.0714,-6.1298,-6.2009,-6.2009,-6.255,-6.3396,-6.4309,-6.5087,-6.5899,-6.7151,-6.6677,-6.5831,-6.6474,-6.6576,-6.6474,-6.6643,-6.7317,-6.8137,-6.8887,-6.9351,-6.9988,-7.1544,0.0,-7.486,-7.6478,0.0,-7.8781,0.0,0.0,0.0,0.0,0.0,0.0,-8.1709,-8.2439,-8.3677,-8.4952,-8.1042,-7.9337,-8.2216,-8.1589,-8.0851,-8.0344,-8.0919,-8.0987,-8.0344,-8.1629,-8.2408,-8.2408,-8.4505,-8.5317,-8.464,-8.5317,-8.5317,-8.464,-8.464,-8.464,-8.464,-8.464,-8.464,-8.464,-8.464,-8.3828,-8.2577,-8.3219,-8.3084,-8.2267,-8.1381,-8.2366,-8.3875,-8.1738,-8.2717,-8.4948,-3.8811,-3.914,-3.9409,-3.9409,-3.9409,-3.9649,-4.0307,-4.1055,-4.1863,-4.2791,-4.3269,-4.3509,-4.3509,-4.3935,-4.4205,-4.4006,0.0,-4.4433,0.0,0.0,0.0,-4.5032,-4.4557,-4.4079,-4.3639,-4.2997,-4.2252,-4.1373,-4.2895,0.0,0.0,0.0,0.0,0.0,-4.8443,0.0,-5.3078,0.0,-5.7746,0.0,0.0,-6.1332,0.0,-6.0655,-6.0994,-6.2516,-6.3362,-6.3869,-6.4241,-6.4986,-6.6305,-6.7608,-6.7488,-6.8554,-6.9804,-6.9172,-6.931,-6.9605,-6.8913,-6.9522,-7.0198,-7.0094,-7.0634,-7.1409,-7.2434,-7.3296,-7.4119,-7.5226,0.0,0.0,0.0,0.0,0.0,0.0,-8.1922,-8.2494,0.0,0.0,-8.132,0.0,0.0,0.0,-8.117,-8.2026,-8.1629,-7.909,-8.1073,-8.1752,-8.0242,-8.1596,-8.2408,-8.2408,-8.4167,-8.4945,-8.464,-8.4945,-8.4945,-8.464,-8.464,-8.464,-8.464,-8.464,-8.464,-8.464,-8.464,-8.3795,-8.2441,-8.2746,-8.2441,-8.1729,-8.1878,-8.2993,-8.4527,-8.4351,-8.4917,-8.5704,-3.8153,-3.8811,-3.9409,-3.9409,-3.9559,-3.9918,-4.0576,-4.1773,-4.2851,0.0,0.0,0.0,-4.4556,-4.5546,0.0,-4.5809,-4.6202,-4.6404,0.0,0.0,-4.6766,-4.6766,-4.6455,-4.6041,-4.55,-4.5297,-4.4553,-4.3234,-4.435,0.0,0.0,0.0,0.0,0.0,0.0,-5.1522,-5.4938,0.0,-5.8727,-6.0148,-6.1095,-6.2042,-6.2719,-6.0926,-6.1264,-6.2888,-6.4377,-6.4884,-6.5135,-6.6582,-6.8164,-6.9457,-6.9211,-7.0706,-7.245,-7.1543,-7.1543,-7.1768,-7.1435,-7.2047,-7.2739,-7.243,-7.3112,-7.4009,-7.4583,-7.469,-7.4905,-7.5621,-7.6086,0.0,0.0,0.0,0.0,0.0,0.0,-8.1307,0.0,-8.0294,0.0,0.0,0.0,0.0,0.0,-8.2083,-8.2208,-7.8688,-8.1336,-8.2102,-8.0039,-8.1291,-8.2205,-8.2408,-8.3862,-8.464,-8.464,-8.4843,-8.4843,-8.464,-8.464,-8.464,-8.464,-8.464,-8.464,-8.464,-8.464,-8.3896,-8.2712,-8.2712,-8.2374,-8.1934,-8.2475,-8.349,-8.4776,-8.5892,-8.6061,-8.596,-3.7554,-3.8512,-3.9409,-3.9409,-3.9948,-4.0576,-4.1265,-4.2462,-4.3539,0.0,0.0,0.0,0.0,0.0,0.0,0.0,0.0,-5.0986,-5.1017,0.0,-4.9965,-4.9965,-4.8612,-4.7834,-4.78,-4.709,-4.6346,-4.5602,-4.5635,0.0,0.0,0.0,0.0,0.0,-4.9864,-5.1623,-5.2638,-5.6325,-5.7509,-5.707,-5.8524,-6.0047,-6.1535,0.0,-6.3429,-6.3666,-6.5121,-6.5662,-6.6132,-6.936,-7.0476,-7.0913,-7.3329,-7.3102,-7.2148,-7.2894,-7.2611,-7.2289,-7.3885,-7.494,-7.5862,-7.6584,-7.7589,-7.8416,-7.8416,-7.8453,-7.8673,-7.948,-7.904,-7.9003,-8.058,0.0,0.0,0.0,0.0,0.0,0.0,0.0,0.0,0.0,0.0,0.0,0.0,-8.2276,-8.247,0.0,-8.1771,-8.1861,-7.9327,-8.0513,-8.1663,-8.2408,-8.3862,-8.464,-8.464,-8.5384,-8.5384,-8.464,-8.464,-8.464,-8.464,-8.464,-8.464,-8.464,-8.464,-8.42,-8.3456,-8.3456,-8.3456,-8.3422,-8.3456,-8.393,-8.464,-8.4674,-8.5148,-8.5892,-3.8601,-3.911,-3.9559,-3.9978,-4.0606,-4.1265,-4.1923,-4.2761,0.0,0.0,-4.5738,0.0,0.0,-4.9025,-4.9802,0.0,0.0,-5.0994,-5.1186,-5.098,0.0,-5.0845,-4.9898,-4.912,-4.8646,-4.7902,-4.6921,-4.5703,-4.6177,0.0,0.0,0.0,0.0,0.0,0.0,-5.2739,0.0,0.0,0.0,0.0,0.0,-6.2751,-6.3618,0.0,-6.4621,-6.6041,-6.7208,-6.8269,0.0,-7.0468,-7.1809,-7.3159,-7.3619,-7.4832,-7.6052,-7.5729,-7.5836,-7.6051,-7.592,-7.6621,-7.7483,-7.77,-7.8966,-8.0314,-8.0865,-8.0571,-8.0424,-8.1195,-8.1158,-8.1158,-8.1672,0.0,0.0,0.0,0.0,0.0,0.0,0.0,0.0,0.0,0.0,0.0,0.0,0.0,0.0,0.0,-8.2005,0.0,-8.0577,-8.1972,-8.279,-8.2796,-8.4274,-8.5064,-8.5064,-8.4995,-8.5233,-8.5786,-8.4961,-8.464,-8.464,-8.464,-8.464,-8.464,-8.5182,-8.4674,-8.3524,-8.4031,-8.3964,-8.349,-8.349,-8.3964,-8.464,-8.464,-8.4776,-8.5215,-3.926,-3.9798,-4.0247,-4.0666,-4.1294,-4.1863,-4.2282,0.0,0.0,0.0,-4.7122,0.0,-4.9629,0.0,-5.096,0.0,-5.1512,-5.1864,-5.1997,-5.2029,0.0,-5.1623,-5.115,-5.0642,-5.0168,-4.9187,-4.8342,-4.7665,0.0,-4.6955,0.0,0.0,0.0,0.0,0.0,-5.3549,-5.685,-5.76,-5.9426,0.0,0.0,-6.4139,0.0,0.0,-6.6808,-6.803,0.0,-7.0168,-7.18,-7.2157,-7.344,-7.4941,-7.5195,-7.6475,-7.7855,-7.7601,-7.7928,-7.8336,-7.8207,-7.8638,-7.9271,-7.9526,-8.0546,-8.1709,-8.281,-8.2443,-8.215,-8.3251,-8.3251,-8.2957,-8.27,0.0,0.0,0.0,0.0,0.0,0.0,-7.9433,0.0,0.0,0.0,0.0,0.0,0.0,0.0,0.0,0.0,0.0,0.0,-8.1697,-8.2697,-8.2705,-8.4144,-8.5186,-8.5904,-8.507,-8.5274,-8.6414,-8.517,-8.464,-8.464,-8.4911,-8.5046,-8.508,-8.5858,-8.5486,-8.4336,-8.4843,-8.4573,-8.3896,-8.3896,-8.42,-8.464,-8.464,-8.4979,-8.5587,-3.9559,-4.0636,-4.1534,-4.1534,-4.2043,-4.2509,0.0,0.0,-4.6236,0.0,-4.8441,-4.9748,-5.0486,-5.1377,-5.1993,-5.1993,-5.2939,-5.3518,-5.3518,-5.3518,0.0,0.0,-5.2433,-5.2433,-5.2399,-5.1044,-5.0638,-5.1282,0.0,0.0,0.0,0.0,0.0,0.0,-5.1657,0.0,-5.7027,-5.769,-5.8975,-6.0706,-6.2328,-6.435,-6.6723,-6.9173,-6.9951,-6.9861,-6.9882,-7.1481,-7.3653,-7.4568,-7.5381,-7.6384,-7.808,-7.8112,-7.7671,-7.8516,-7.8736,-7.9066,-8.0645,-8.1048,-8.1269,-8.2039,-8.2296,-8.2737,-8.4352,-8.4058,-8.3911,-8.5527,-8.5233,-8.4462,-8.3728,0.0,0.0,0.0,0.0,0.0,0.0,0.0,0.0,0.0,0.0,0.0,0.0,0.0,0.0,0.0,0.0,0.0,0.0,-8.0091,-8.1686,-8.2346,-8.3585,-8.5158,-8.6984,-8.5574,-8.5447,-8.661,-8.5344,-8.4747,-8.4814,-8.5452,-8.579,-8.5892,-8.6636,-8.6535,-8.579,-8.5824,-8.5351,-8.464,-8.464,-8.464,-8.464,-8.464,-8.5587,-8.6907,-4.1324,-4.2671,-4.3569,-4.3569,-4.3688,-4.3867,0.0,0.0,0.0,0.0,-4.9916,-5.1098,-5.2561,-5.2939,-5.311,-5.311,-5.3348,0.0,0.0,0.0,0.0,-5.3213,-5.3734,-5.4018,-5.408,-5.3701,-5.3046,-5.2175,0.0,0.0,-4.8714,0.0,0.0,0.0,0.0,0.0,-5.7725,-5.7933,-5.9953,-6.3249,-6.5488,-6.7764,-6.9937,0.0,-7.2862,-7.4117,-7.3696,-7.4742,-7.6336,-7.6564,-7.7578,-7.8885,-7.9333,-7.9764,-8.0204,-8.1012,-8.0865,-8.0608,-8.1636,-8.1893,-8.2076,-8.2884,-8.3544,-8.4425,-8.604,-8.5306,-8.4756,-8.6371,-8.604,-8.56,-8.6004,-8.56,0.0,0.0,0.0,0.0,0.0,0.0,0.0,-7.7414,0.0,0.0,0.0,0.0,0.0,0.0,0.0,0.0,0.0,0.0,-8.3447,-8.2804,-8.4783,-8.6358,-8.751,-8.7372,-8.7896,-8.9085,-8.6961,-8.6297,-8.6781,-8.6155,-8.6095,-8.667,-8.7414,-8.6974,-8.5824,-8.6399,-8.5824,-8.464,-8.464,-8.464,-8.464,-8.464,-8.5587,-8.6907,-4.2132,0.0,0.0,-4.4257,0.0,0.0,-4.5665,-4.7391,0.0,-5.0566,-5.1785,0.0,-5.3855,-5.3687,-5.3518,-5.3518,-5.3518,0.0,-5.3957,0.0,0.0,-5.4969,-5.5357,-5.5966,-5.6685,-5.5984,-5.5209,-5.4417,-5.329,0.0,-5.0933,0.0,0.0,0.0,0.0,-5.6299,-5.9699,-6.0772,-6.2889,-6.575,-6.7122,-6.9059,0.0,-7.2541,-7.4214,-7.6017,-7.6349,-7.7341,-7.8405,-7.8405,-7.925,-8.0314,-8.0314,-8.0865,-8.1599,-8.2076,-8.237,-8.2737,-8.3544,-8.3508,-8.3434,-8.4242,-8.4535,-8.5123,-8.7068,-8.6004,-8.5049,-8.6664,-8.582,-8.4682,-8.4425,-8.5159,-8.593,0.0,0.0,0.0,0.0,0.0,0.0,0.0,-7.8919,0.0,0.0,0.0,0.0,0.0,0.0,0.0,0.0,0.0,-8.3934,-8.2645,-8.5721,-8.7745,-8.8465,-8.8706,-8.9233,-9.0042,-8.8133,-8.7666,-8.8375,-8.7503,-8.7533,-8.8251,-8.8456,-8.782,-8.6771,-8.6873,-8.6196,-8.508,-8.4776,-8.464,-8.464,-8.464,-8.5587,-8.6907,0.0,0.0,0.0,0.0,0.0,0.0,0.0,-4.9498,0.0,-5.1976,0.0,-5.4465,-5.4465,-5.389,-5.3518,-5.3518,-5.3585,-5.3923,-5.4566,-5.4805,-5.5484,-5.6824,-5.7184,-5.8035,-5.9408,-5.8352,-5.7683,-5.752,-5.6046,0.0,0.0,0.0,0.0,0.0,0.0,0.0,0.0,-6.4636,-6.6402,-6.7724,-6.8017,-6.9559,-7.1798,-7.3413,-7.4955,-7.6497,-7.8148,-7.9213,-7.98,-7.991,-8.0498,-8.1195,-8.1269,-8.1856,-8.2517,-8.2627,-8.3654,-8.4939,-8.5747,-8.5453,-8.5123,-8.5894,-8.5527,-8.5453,-8.7545,-8.6261,-8.5013,-8.6407,-8.4939,-8.303,-8.1709,-8.3765,-8.593,0.0,0.0,0.0,0.0,0.0,0.0,0.0,0.0,0.0,0.0,0.0,0.0,0.0,0.0,0.0,0.0,0.0,-8.3911,-8.2406,-8.6281,-8.8789,-8.9564,-8.9616,-8.9865,-9.0348,-8.9085,-8.8988,-8.9911,-8.9275,-8.9388,-9.0052,-8.958,-8.8888,-8.7955,-8.7211,-8.6399,-8.5554,-8.4877,-8.464,-8.464,-8.464,-8.5587,-8.6907,0.0,0.0,0.0,0.0,0.0,-4.8743,-5.075,-5.1408,-5.1843,-5.2203,-5.3112,-5.3687,-5.3687,-5.3585,-5.3518,-5.3518,-5.4059,0.0,0.0,0.0,-5.6591,-5.6923,-5.8781,-5.9993,-6.0248,-6.1256,-6.1451,-6.0891,-5.9358,0.0,0.0,0.0,0.0,0.0,0.0,0.0,-6.4715,-6.65,0.0,-6.7871,-6.9889,-7.1725,-7.345,-7.5065,-7.6276,-7.7341,-7.8993,-7.9653,-7.9874,-8.0571,-8.1305,-8.2113,-8.2774,-8.3544,-8.4315,-8.4976,-8.538,-8.5747,-8.6591,-8.6701,-8.6775,-8.7582,-8.7178,-8.6701,-8.7105,-8.5857,-8.4682,-8.4976,-8.4168,-8.3544,-8.3911,-8.4425,-8.5306,-8.6775,0.0,0.0,0.0,0.0,0.0,0.0,0.0,-8.0534,0.0,0.0,0.0,0.0,0.0,0.0,0.0,0.0,-8.4168,0.0,-8.5243,-8.7662,0.0,-9.0373,-9.1139,-9.2496,-9.061,-9.0432,-9.187,-9.0799,-9.0423,-9.0814,-9.0676,-8.9625,-8.7955,-8.7211,-8.6095,-8.4809,-8.4674,-8.464,-8.464,-8.464,-8.5587,-8.6907,0.0,0.0,0.0,0.0,0.0,0.0,0.0,-5.215,-5.2939,-5.3416,-5.3822,-5.4059,-5.4059,-5.3721,-5.3653,-5.4025,-5.4397,-5.5077,-5.6268,-5.7078,-5.8037,-5.9289,-6.087,-6.1716,-6.1725,-6.3292,-6.3348,-6.1715,-6.1787,0.0,0.0,0.0,0.0,0.0,0.0,-6.5343,0.0,0.0,-6.8568,-6.9119,-7.1138,-7.2642,-7.3891,-7.5506,-7.69,-7.8148,-7.936,-8.0057,-8.0534,-8.1342,-8.1893,-8.2333,-8.3141,-8.3948,-8.4756,-8.5563,-8.6371,-8.7215,-8.8059,-8.8243,-8.8536,-8.9748,-8.883,-8.7941,-8.9189,-8.6635,-8.4191,-8.4938,-8.3208,-8.2279,-8.468,-8.6175,-8.709,-8.6925,-8.7359,-8.6602,0.0,0.0,-8.3581,0.0,0.0,0.0,0.0,0.0,0.0,0.0,0.0,0.0,0.0,0.0,-8.4646,0.0,0.0,0.0,-8.9968,0.0,-9.206,-9.2427,-9.183,-9.2218,-9.3383,-9.2482,-9.2077,-9.1964,-9.1296,-9.0044,-8.8463,-8.738,-8.6264,-8.5182,-8.4776,-8.464,-8.464,-8.464,-8.5587,-8.6907,0.0,-4.6352,0.0,0.0,-5.0283,-5.1669,-5.1483,-5.2639,-5.3721,-5.4296,-5.4363,-5.4363,-5.4363,-5.3991,-5.3957,-5.4532,-5.5043,-5.6098,-5.7867,-5.8467,-5.9673,-6.1764,-6.2819,-6.333,-6.3305,-6.4971,-6.4709,-6.2477,-6.3868,-6.3576,0.0,0.0,0.0,0.0,0.0,0.0,0.0,0.0,-6.9633,-7.0513,-7.2129,-7.323,-7.4111,-7.5726,-7.7304,-7.8699,-7.9507,-8.0314,-8.1122,-8.1929,-8.2186,-8.237,-8.3361,-8.4095,-8.4792,-8.5783,-8.7068,-8.839,-8.9197,-8.9528,-8.9968,-9.1216,-9.0005,-8.8819,-9.0156,-8.6943,-8.3889,-8.4694,-8.2523,-8.1662,-8.5455,-8.7279,-8.8239,-8.8084,-8.8741,-8.8242,0.0,0.0,0.0,0.0,0.0,0.0,-8.3765,0.0,0.0,0.0,0.0,0.0,0.0,0.0,0.0,0.0,0.0,-8.9234,-8.9931,0.0,-9.2391,-9.206,-9.2574,-9.3345,-9.4299,-9.3922,-9.3611,-9.3271,-9.2224,-9.0815,-8.9143,-8.7817,-8.6758,-8.5723,-8.4911,-8.464,-8.464,-8.4809,-8.5723,-8.6941,0.0,0.0,0.0,0.0,0.0,-5.1483,-5.3045,-5.3382,-5.3518,-5.3585,-5.3619,-5.3619,-5.3619,-5.4126,-5.4499,-5.4566,-5.6472,-5.7798,-5.8002,-6.0047,-6.1708,-6.265,-6.422,-6.5102,-6.5081,-6.6659,-6.6659,-6.494,-6.5836,-6.4662,-6.1642,-6.4699,0.0,0.0,0.0,-6.9229,-7.0,-7.0,-7.044,-7.1358,-7.2936,-7.4074,-7.4955,-7.657,-7.7781,-7.8699,-7.9507,-8.0314,-8.1122,-8.1929,-8.2186,-8.248,-8.3985,-8.4535,-8.4903,-8.6444,-8.7509,-8.839,-8.9197,-8.9931,-9.0519,-9.0665,-9.0005,-8.8757,-8.6838,-8.5411,-8.4095,-8.2794,-8.2695,-8.3876,-8.719,-8.6067,-8.6316,-9.1445,-8.8037,-8.4914,0.0,0.0,-8.5714,-8.3852,0.0,0.0,0.0,-8.5159,0.0,0.0,0.0,0.0,0.0,0.0,0.0,-8.5563,-8.6664,-8.8647,-9.1546,-9.1069,-9.1546,-9.2978,-9.2244,-9.2758,-9.4299,-9.4261,-9.4409,-9.4633,-9.4511,-9.2694,-8.9708,-8.9015,-8.7469,-8.5723,-8.4911,-8.464,-8.4708,-8.5418,-8.6196,-8.7008,0.0,0.0,0.0,0.0,0.0,0.0,0.0,-5.3518,-5.3518,-5.3518,-5.3518,-5.3518,-5.3518,-5.416,-5.4769,-5.5243,-5.6917,-5.8372,-5.9341,-6.1247,-6.273,-6.3564,-6.5144,-6.5778,-6.5301,-6.688,-6.6916,-6.5301,-6.6586,-6.6549,-6.5264,-6.6586,-6.7834,-6.8935,-6.9412,-6.9816,-7.011,-7.0624,-7.1284,-7.2165,-7.378,-7.4918,-7.5763,-7.69,-7.8148,-7.936,-7.9653,-8.0608,-8.1782,-8.2076,-8.2186,-8.248,-8.4095,-8.4609,-8.4939,-8.6554,-8.7912,-8.9014,-8.9344,-9.0335,-9.1216,-9.0739,-9.0352,-8.9637,-8.8115,-8.6422,-8.5014,-8.4292,-8.3974,-8.4591,-8.6742,-8.8343,-8.9239,-8.9079,-8.7988,-8.6515,-8.4498,0.0,0.0,-8.4051,0.0,-8.5078,0.0,0.0,0.0,0.0,0.0,0.0,0.0,0.0,0.0,-8.6481,0.0,-8.8316,-9.1069,-9.1253,-9.1657,-9.2317,-9.1473,-9.2207,-9.4263,-9.3786,-9.3978,-9.472,-9.3945,-9.2434,-9.0503,-8.974,-8.8225,-8.6399,-8.5621,-8.5046,-8.4708,-8.5486,-8.6264,-8.6873,-4.995,0.0,-5.2065,0.0,-5.3444,-5.4093,-5.3585,-5.3518,-5.3518,-5.3518,-5.3518,-5.3585,-5.3788,-5.4465,-5.5348,-5.6268,-5.7801,-5.9299,-6.0665,-6.2305,-6.3529,-6.442,-6.5778,-6.6219,-6.5668,-6.699,-6.6916,-6.5301,-6.6916,-6.721,-6.6292,-6.699,-6.8017,-6.9302,-7.011,-7.044,-7.0513,-7.1321,-7.2129,-7.2973,-7.4625,-7.5579,-7.6203,-7.7011,-7.8332,-7.98,-7.98,-8.0828,-8.2186,-8.2186,-8.2186,-8.248,-8.4095,-8.4609,-8.4939,-8.6554,-8.8169,-8.9417,-8.9417,-9.0592,-9.1473,-9.0225,-9.0217,-9.0018,-8.8073,-8.6612,-8.5562,-8.5515,-8.5242,-8.5558,-8.702,-8.9838,-9.1176,-8.8957,-8.8477,-8.7592,-8.5279,-8.3601,0.0,-8.5429,-8.5586,-8.5595,-8.5992,-8.6317,0.0,0.0,0.0,0.0,0.0,0.0,0.0,0.0,0.0,0.0,-9.0592,-9.14,-9.1803,-9.1803,-9.0739,-9.1289,-9.3198,-9.3125,-9.3956,-9.5301,-9.4423,-9.3271,-9.1993,-9.0927,-8.9363,-8.7692,-8.6345,-8.5452,-8.5046,-8.5824,-8.6467,-8.6839,-5.154,-5.1921,-5.2241,-5.328,-5.3518,-5.3518,-5.3518,-5.3518,-5.3518,-5.3518,-5.3518,-5.3788,-5.4499,-5.5243,-5.6302,-5.7867,-5.944,-6.07,-6.1548,-6.3179,-6.4457,-6.5264,-6.6072,-6.6512,-6.6476,-6.7283,-6.6916,-6.5301,-6.6916,-6.6035,-6.2915,-6.5375,-6.7797,-7.011,-7.0954,-7.1321,-7.1358,-7.2165,-7.2936,-7.3817,-7.5432,-7.6093,-7.6203,-7.7011,-7.8332,-7.98,-7.98,-8.0828,-8.2186,-8.2186,-8.2186,-8.248,-8.4095,-8.4609,-8.4939,-8.6554,-8.8169,-8.9417,-8.9417,-9.0592,-9.1216,-8.883,-8.9403,-8.9423,-8.5387,-8.5052,-8.5574,-8.5632,-8.6159,-8.7144,-8.8613,-8.942,-9.0748,-9.321,-8.944,-8.689,-8.8896,-8.7597,-8.6776,-8.8014,-8.9472,-9.0143,-8.9384,-8.8635,0.0,0.0,0.0,0.0,0.0,0.0,0.0,-8.582,-8.8133,0.0,-9.0592,-9.14,-9.1803,-9.1767,-9.0188,-8.9858,-9.0702,-9.2354,-9.441,-9.6685,-9.6685,-9.5947,-9.4561,-9.2636,-9.1003,-8.9604,-8.6802,-8.579,-8.5858,-8.6602,-8.6907,-8.6907,-5.2905,-5.3008,-5.311,-5.3416,-5.3518,-5.3518,-5.3518,-5.3518,-5.3518,-5.3518,-5.3923,-5.4532,-5.5277,-5.603,-5.6943,-5.7933,-5.9997,-6.1343,-6.1604,-6.369,-6.5301,-6.6072,-6.743,-6.8128,-6.8128,-6.8385,-6.7724,-6.6109,-6.7173,-6.743,-6.699,-6.8898,-6.9889,-7.0146,-7.1505,-7.2129,-7.2202,-7.356,-7.4588,-7.5395,-7.5873,-7.6423,-7.6974,-7.7231,-7.8332,-7.98,-7.98,-8.0828,-8.2186,-8.2186,-8.2186,-8.248,-8.4095,-8.4609,-8.4939,-8.6554,-8.8169,-8.9417,-8.9417,-9.0592,-9.1213,-8.8729,-8.9668,-9.006,-8.5858,-8.5536,-8.616,-8.6275,-8.7296,-8.853,-8.9539,-9.0302,-9.1056,-9.1864,-8.9764,-8.7842,-8.747,-8.5572,-8.4395,-8.4721,-8.4818,-8.518,-8.6029,-8.5912,0.0,0.0,0.0,0.0,0.0,0.0,0.0,0.0,-8.8169,0.0,-9.0592,-9.14,-9.1253,-9.0152,-8.8536,-8.7619,-8.7435,-9.0152,-9.2427,-9.4299,-9.4813,-9.4926,-9.4806,-9.4084,-9.2814,-9.1125,-9.0185,-8.904,-8.7917,-8.8674,-8.7735,-8.6061,-5.3518,-5.3518,-5.3518,-5.3518,-5.3518,-5.3518,-5.3518,-5.3518,-5.3518,-5.3518,-5.4126,-5.5008,-5.6031,-5.7136,-5.8101,-5.887,-6.0594,-6.1859,-6.2495,-6.4234,-6.5778,-6.688,-6.7907,-6.8605,-6.8898,-6.8605,-6.7944,-6.6953,-6.8054,-6.9155,-7.0293,-7.1615,-7.1945,-7.1505,-7.2826,-7.3413,-7.3487,-7.4808,-7.5652,-7.613,-7.6423,-7.6864,-7.7304,-7.7304,-7.8332,-7.98,-7.98,-8.0828,-8.2186,-8.2186,-8.2186,-8.248,-8.4095,-8.4609,-8.4939,-8.6554,-8.8169,-8.9417,-8.9417,-9.0592,-9.1395,-8.9793,-9.0434,-9.0547,-8.6937,-8.6494,-8.6904,-8.7003,-8.8029,-8.921,-9.0335,-9.0876,-9.121,-9.121,-9.011,-8.8802,-8.7569,-8.5688,-8.4779,-8.5842,-8.4443,-8.4136,0.0,-8.5655,-8.5894,0.0,0.0,0.0,0.0,0.0,-8.6811,-8.7729,-8.8353,-8.9271,-9.0592,-9.1106,-9.0702,-8.9381,-8.7178,-8.6004,-8.5857,-8.7876,-9.0041,-9.2207,-9.3345,-9.4139,-9.4632,-9.4759,-9.4048,-9.2834,-9.2056,-9.0722,-8.9221,-8.9706,-8.8156,-8.5689,-5.3518,-5.3518,-5.3518,-5.3518,-5.3518,-5.3518,-5.3518,-5.3518,-5.3518,-5.3585,-5.4262,-5.5348,-5.6794,-5.8475,-5.9739,-6.0387,-6.1229,-6.2386,-6.3965,-6.4897,-6.6109,-6.7687,-6.7871,-6.8311,-6.9045,-6.8311,-6.7907,-6.7871,-6.9486,-7.1027,-7.2532,-7.3377,-7.378,-7.3817,-7.4625,-7.4992,-7.5065,-7.5836,-7.6166,-7.624,-7.7011,-7.7304,-7.7304,-7.7304,-7.8332,-7.98,-7.98,-8.0828,-8.2186,-8.2186,-8.2186,-8.248,-8.4095,-8.4609,-8.4939,-8.6554,-8.8169,-8.9417,-8.9417,-9.0592,-9.1834,-9.1881,-9.1658,-9.0815,-8.8357,-8.7798,-8.7836,-8.776,-8.8447,-8.9491,-9.0947,-9.121,-9.121,-9.121,-9.0517,-8.976,-8.9065,-8.7565,-8.7465,-8.9856,-8.7399,-8.6132,-8.7742,-8.7202,-8.6334,0.0,0.0,0.0,0.0,0.0,-8.8977,-8.7325,-8.872,-8.9821,-9.0519,-9.0482,-9.0005,-8.9124,-8.6004,-8.4903,-8.5637,-8.5637,-8.7362,-9.0445,-9.206,-9.3345,-9.4298,-9.4622,-9.4819,-9.4734,-9.2853,-9.1362,-9.0218,-9.0218,-8.8468,-8.5875,-5.3518,-5.3518,-5.3518,-5.3518,-5.3518,-5.3518,-5.3518,-5.3518,-5.3687,-5.4262,-5.5482,-5.6698,-5.7656,-5.9739,-6.1163,-6.1286,-6.2023,-6.2984,-6.4016,-6.5411,-6.6916,-6.8568,-6.9779,-7.055,-7.0734,-7.055,-7.0146,-6.9522,-7.1138,-7.2129,-7.2532,-7.3964,-7.4625,-7.4661,-7.5469,-7.5836,-7.5873,-7.668,-7.7047,-7.7047,-7.7231,-7.7304,-7.7304,-7.7304,-7.8332,-7.98,-7.98,-8.0828,-8.2186,-8.2186,-8.2186,-8.248,-8.4095,-8.4609,-8.4939,-8.6554,-8.8169,-8.9417,-8.9417,-9.0592,-9.1938,-9.2421,-9.1881,-9.08,-8.8917,-8.8917,-8.9186,-8.8608,-8.9645,-9.0759,-9.1136,-9.121,-9.121,-9.121,-9.1018,-9.0598,-8.9799,-8.8881,-8.7883,-8.6781,-8.5487,-8.4629,-8.4525,-8.4926,-8.604,-8.8133,0.0,-9.1033,-9.1877,-9.2684,-9.2097,-8.9821,-9.0115,-9.0115,-8.9711,-8.9087,-8.8059,-8.6628,-8.4646,-8.3801,-8.3985,-8.3985,-8.5416,-8.7912,-8.894,-9.1253,-9.4336,-9.4439,-9.5126,-9.6186,-9.5728,-9.4723,-9.3659,-9.3659,-9.1062,-8.7491,-5.3518,-5.3518,-5.3518,-5.3518,-5.3518,-5.3518,-5.3518,-5.3518,-5.3754,-5.4499,-5.5921,-5.7329,-5.8479,-6.038,-6.177,-6.2129,-6.2933,-6.3759,-6.4604,-6.6145,-6.776,-6.9376,-7.0293,-7.1101,-7.1835,-7.1138,-7.1101,-7.1725,-7.2606,-7.3597,-7.4735,-7.5616,-7.6019,-7.6019,-7.646,-7.6644,-7.668,-7.7121,-7.7304,-7.7304,-7.7304,-7.7304,-7.7304,-7.7304,-7.8112,-7.9286,-7.9653,-8.0608,-8.1709,-8.2076,-8.2186,-8.2406,-8.3654,-8.4315,-8.4829,-8.6077,-8.7582,-8.894,-8.9307,-9.0508,-9.1882,-9.2549,-9.3115,-9.2787,-8.9902,-8.9594,-8.9787,-8.9325,-8.9979,-9.0748,-9.1133,-9.121,-9.121,-9.121,-9.121,-9.1018,-9.0556,-8.9533,-8.838,-8.7171,-8.5436,-8.4199,-8.3917,-8.4322,-8.549,-8.7619,-8.9234,-9.0519,-9.1363,-9.184,-9.162,-9.0629,-9.0262,-8.9674,-8.8867,-8.7325,-8.6114,-8.5233,-8.3618,-8.303,-8.3398,-8.303,-8.3985,-8.5967,-8.7142,-8.9748,-9.3235,-9.4006,-9.5254,-9.6685,-9.6685,-9.5947,-9.4734,-9.3976,-9.1332,-8.8027,-5.3518,-5.3518,-5.3518,-5.3518,-5.3518,-5.3518,-5.3518,-5.3585,-5.3923,-5.4668,-5.6225,-5.7821,-5.9335,-6.0834,-6.2149,-6.2938,-6.3796,-6.4604,-6.5448,-6.699,-6.8605,-7.022,-7.0403,-7.1101,-7.2459,-7.1174,-7.1541,-7.3707,-7.3817,-7.4992,-7.7157,-7.7268,-7.7304,-7.7304,-7.7304,-7.7304,-7.7304,-7.7304,-7.7304,-7.7304,-7.7304,-7.7304,-7.7304,-7.7304,-7.7855,-7.8699,-7.9507,-8.0314,-8.1122,-8.1929,-8.2186,-8.2333,-8.3141,-8.4015,-8.4919,-8.5594,-8.7016,-8.8545,-8.9297,-9.0926,-9.2446,-9.2585,-9.4362,-9.5018,-9.0864,-9.0017,-9.0017,-8.9787,-8.994,-9.0287,-9.0902,-9.121,-9.1556,-9.2056,-9.1825,-9.1748,-9.2287,-9.0556,-8.9225,-8.9138,-8.6632,-8.4871,-8.4779,-8.499,-8.5397,-8.6096,-8.7651,-8.8867,-8.9564,-8.9711,-8.9968,-9.0408,-8.9528,-8.8536,-8.7509,-8.5563,-8.4609,-8.4572,-8.3214,-8.292,-8.3581,-8.2627,-8.3067,-8.4682,-8.604,-8.8647,-9.1987,-9.3345,-9.4997,-9.6685,-9.6685,-9.6027,-9.4916,-9.3324,-9.1043,-8.8453,-5.3518,-5.3518,-5.3518,-5.3518,-5.3518,-5.3518,-5.3518,-5.4025,-5.4702,-5.5446,-5.7508,-5.9249,-6.0149,-6.1678,-6.2998,-6.3833,-6.464,-6.5448,-6.6256,-6.7834,-6.9449,-7.1064,-7.1762,-7.2239,-7.2496,-7.2275,-7.2642,-7.3707,-7.4368,-7.5249,-7.6313,-7.7011,-7.7304,-7.7304,-7.7304,-7.7304,-7.7304,-7.7304,-7.7304,-7.7304,-7.7304,-7.7304,-7.7304,-7.7304,-7.7855,-7.8699,-7.9507,-8.0314,-8.1122,-8.1929,-8.2186,-8.2333,-8.3141,-8.4358,-8.5497,-8.5692,-8.7304,-8.9161,-9.0081,-9.2975,-9.5181,-9.3122,-9.3902,-9.4249,-9.071,-9.0479,-9.0594,-8.9171,-9.0017,-9.0825,-9.021,-9.1325,-9.3249,-9.6057,-9.4711,-9.4326,-9.7211,-9.4326,-9.1413,-9.0169,-8.8929,-8.7711,-8.643,-8.7096,-8.7626,-8.7737,-8.9283,-9.0298,-9.0408,-9.1106,-9.0922,-8.9638,-8.8169,-8.6334,-8.4168,-8.4462,-8.4609,-8.4609,-8.4352,-8.4278,-8.4352,-8.2884,-8.3067,-8.4609,-8.4866,-8.7582,-9.184,-9.2097,-9.3969,-9.6685,-9.6685,-9.6608,-9.6233,-9.4622,-9.2862,-9.0842,-5.3518,-5.3518,-5.3518,-5.3518,-5.3518,-5.3518,-5.3518,-5.4126,-5.4871,-5.5615,-5.7811,-5.9608,-6.0326,-6.186,-6.3172,-6.4016,-6.5228,-6.6476,-6.7724,-6.8898,-7.0257,-7.1872,-7.2312,-7.2496,-7.2496,-7.2496,-7.312,-7.4368,-7.4735,-7.5542,-7.6754,-7.7157,-7.7304,-7.7304,-7.7304,-7.7304,-7.7304,-7.7304,-7.7304,-7.7304,-7.7304,-7.7304,-7.7304,-7.7304,-7.7561,-7.8002,-7.8846,-7.9653,-8.0461,-8.1269,-8.2102,-8.2806,-8.3213,-8.4605,-8.6179,-8.6196,-8.7919,-9.0099,-9.1348,-9.3959,-9.612,-9.4895,-9.483,-9.4441,-9.2402,-9.121,-9.0402,-9.0094,-9.0287,-9.0517,-9.0594,-9.1633,-9.3018,-9.4557,-9.4172,-9.4249,-9.5826,-9.3595,-9.1715,-9.1452,-8.9526,-8.8124,-8.7939,-8.7561,-8.751,-8.796,-8.8704,-8.9175,-8.9247,-8.9247,-8.8649,-8.7472,-8.6738,-8.56,-8.4058,-8.4425,-8.4829,-8.5233,-8.4792,-8.4609,-8.4572,-8.3398,-8.3508,-8.4609,-8.4609,-8.7325,-9.1803,-9.184,-9.3749,-9.6685,-9.6685,-9.6685,-9.6392,-9.3896,-9.2464,-9.1363,-5.3518,-5.3518,-5.3518,-5.3518,-5.3518,-5.3518,-5.3518,-5.4262,-5.5074,-5.5649,-5.795,-5.976,-6.0361,-6.186,-6.3246,-6.4273,-6.5668,-6.7247,-6.9082,-6.9926,-7.1101,-7.2716,-7.2789,-7.2679,-7.2496,-7.2496,-7.3193,-7.4625,-7.4808,-7.5652,-7.7047,-7.7231,-7.7304,-7.7304,-7.7304,-7.7304,-7.7304,-7.7304,-7.7304,-7.7304,-7.7304,-7.7304,-7.7304,-7.7304,-7.7304,-7.7414,-7.8295,-7.9103,-7.9974,-8.0934,-8.2126,-8.3246,-8.3378,-8.5004,-8.6793,-8.6644,-8.8555,-9.1038,-9.255,-9.4458,-9.6112,-9.6251,-9.548,-9.4518,-9.3826,-9.1902,-9.0325,-9.0787,-9.0364,-9.0094,-9.0787,-9.1787,-9.2826,-9.3787,-9.4172,-9.4595,-9.5365,-9.3326,-9.2018,-9.271,-9.0225,-8.8762,-8.9335,-8.8243,-8.7712,-8.8355,-8.8243,-8.8232,-8.833,-8.7593,-8.6845,-8.6145,-8.571,-8.5233,-8.4609,-8.4792,-8.5196,-8.5783,-8.4976,-8.4609,-8.4572,-8.3581,-8.3654,-8.4609,-8.4609,-8.7362,-9.184,-9.184,-9.3786,-9.6685,-9.6685,-9.6685,-9.6318,-9.3051,-9.184,-9.1326,-5.3518,-5.3518,-5.3518,-5.3518,-5.3518,-5.3518,-5.3518,-5.4735,-5.5649,-5.5716,-5.8437,-6.0361,-6.0397,-6.186,-6.3466,-6.5081,-6.5999,-6.7504,-6.9853,-7.077,-7.1945,-7.3523,-7.3597,-7.3266,-7.2532,-7.2496,-7.2936,-7.378,-7.4551,-7.5359,-7.6203,-7.6974,-7.7304,-7.7304,-7.7304,-7.7304,-7.7304,-7.7304,-7.7304,-7.7304,-7.7304,-7.7304,-7.7304,-7.7304,-7.7304,-7.7414,-7.8295,-7.9103,-8.0,-8.1487,-8.2462,-8.3303,-8.3928,-8.5697,-8.7509,-8.6793,-8.8842,-9.1642,-9.3217,-9.4366,-9.5289,-9.6095,-9.5057,-9.3787,-9.371,-9.2364,-9.0902,-9.0171,-8.994,-8.994,-8.9979,-9.1364,-9.3787,-9.7711,-9.7096,-9.7211,-10.0289,-9.6557,-9.3518,-9.3595,-9.2021,-9.0982,-9.1021,-9.0294,-8.9882,-8.9914,-8.9362,-8.8994,-8.9016,-8.8409,-8.7699,-8.6921,-8.549,-8.4646,-8.4609,-8.5343,-8.5747,-8.5783,-8.4976,-8.4609,-8.4535,-8.2994,-8.3141,-8.4609,-8.4609,-8.7362,-9.1877,-9.184,-9.3749,-9.6685,-9.6685,-9.6685,-9.6282,-9.3015,-9.1803,-9.1326,-5.3518,-5.3518,-5.3518,-5.3518,-5.3518,-5.3653,-5.4093,-5.5074,-5.5886,-5.6325,-5.8254,-5.9832,-6.0335,-6.181,-6.3474,-6.5139,-6.6953,-6.8605,-7.0,-7.1321,-7.2312,-7.2936,-7.3413,-7.3303,-7.2532,-7.2496,-7.2899,-7.3707,-7.4001,-7.4588,-7.5359,-7.5689,-7.6093,-7.657,-7.657,-7.6827,-7.7304,-7.7304,-7.7011,-7.657,-7.657,-7.6276,-7.5836,-7.5836,-7.613,-7.6607,-7.6937,-7.8222,-7.9926,-8.0951,-8.2403,-8.3928,-8.456,-8.6042,-8.7656,-8.842,-8.9877,-9.1644,-9.3251,-9.4326,-9.5326,-9.6711,-9.6172,-9.5172,-9.4634,-9.3595,-9.2364,-9.0979,-9.071,-9.071,-9.071,-9.171,-9.3018,-9.4634,-9.4788,-9.5134,-9.6403,-9.448,-9.2941,-9.2941,-9.1902,-9.121,-9.121,-9.0952,-9.0762,-9.0762,-9.0566,-9.0198,-8.9763,-8.9084,-8.8388,-8.7709,-8.7053,-8.6537,-8.6077,-8.6407,-8.6554,-8.6518,-8.5747,-8.5086,-8.4572,-8.3471,-8.3544,-8.4609,-8.4609,-8.7362,-9.184,-9.1803,-9.3749,-9.6685,-9.6685,-9.6685,-9.6318,-9.3051,-9.184,-9.1326,-5.389,-5.3856,-5.3788,-5.3551,-5.3518,-5.3754,-5.4465,-5.5243,-5.5987,-5.6697,-5.8153,-5.9443,-6.0273,-6.183,-6.3437,-6.5176,-6.7504,-6.9229,-7.0036,-7.1615,-7.2496,-7.2496,-7.3266,-7.3303,-7.2532,-7.2496,-7.2789,-7.3303,-7.356,-7.3964,-7.4551,-7.4808,-7.5212,-7.5726,-7.5726,-7.5909,-7.6203,-7.646,-7.6093,-7.5359,-7.5616,-7.5395,-7.4918,-7.4918,-7.5395,-7.6093,-7.6093,-7.7671,-7.9915,-8.0786,-8.2472,-8.4325,-8.5162,-8.6542,-8.8094,-8.9479,-9.0517,-9.1556,-9.3249,-9.4134,-9.5057,-9.7019,-9.6903,-9.6057,-9.5211,-9.4326,-9.321,-9.1556,-9.0979,-9.0902,-9.1171,-9.171,-9.2172,-9.2441,-9.3172,-9.371,-9.371,-9.3018,-9.2479,-9.2479,-9.1748,-9.121,-9.121,-9.121,-9.121,-9.121,-9.121,-9.0876,-9.016,-8.9669,-8.9122,-8.8446,-8.819,-8.7836,-8.7328,-8.7132,-8.6995,-8.6995,-8.593,-8.5123,-8.4572,-8.3765,-8.4132,-8.538,-8.5637,-8.8353,-9.2574,-9.2574,-9.4189,-9.6685,-9.6685,-9.6685,-9.6355,-9.3639,-9.2281,-9.1436,-5.4735,-5.46,-5.4363,-5.3653,-5.3518,-5.3754,-5.4499,-5.5243,-5.5987,-5.6697,-5.8118,-5.9443,-6.0273,-6.183,-6.3474,-6.5176,-6.754,-6.9265,-7.0073,-7.1615,-7.2496,-7.2496,-7.3266,-7.3303,-7.2532,-7.2496,-7.2496,-7.2496,-7.3303,-7.367,-7.3707,-7.4515,-7.4882,-7.4918,-7.4882,-7.4441,-7.3744,-7.4551,-7.4441,-7.3744,-7.4551,-7.4882,-7.4882,-7.4882,-7.5395,-7.6093,-7.6093,-7.7671,-8.0039,-8.1294,-8.2831,-8.442,-8.57,-8.7286,-8.8863,-8.9671,-9.0517,-9.1556,-9.3249,-9.371,-9.4287,-9.6865,-9.6903,-9.6095,-9.5211,-9.4326,-9.321,-9.1556,-9.0517,-9.0171,-9.1056,-9.121,-9.1479,-9.2364,-9.3172,-9.3672,-9.3672,-9.2979,-9.2479,-9.2479,-9.1748,-9.121,-9.121,-9.121,-9.121,-9.121,-9.121,-9.0876,-9.016,-9.0116,-8.9809,-8.9122,-8.8446,-8.8107,-8.8107,-8.7394,-8.6995,-8.6995,-8.538,-8.4609,-8.4572,-8.3801,-8.4756,-8.7068,-8.7876,-9.0519,-9.4299,-9.4299,-9.5254,-9.6685,-9.6685,-9.6685,-9.6502,-9.4887,-9.3272,-9.1657,-5.5446,-5.4972,-5.4532,-5.4296,-5.3856,-5.3923,-5.5175,-5.5581,-5.6156,-5.7408,-5.8001,-5.9013,-6.1015,-6.2133,-6.368,-6.593,-6.8348,-7.033,-7.1688,-7.2239,-7.2496,-7.2496,-7.2716,-7.301,-7.334,-7.2789,-7.2496,-7.2496,-7.2753,-7.2863,-7.2863,-7.312,-7.3523,-7.4037,-7.3487,-7.3413,-7.367,-7.334,-7.3083,-7.2899,-7.312,-7.323,-7.323,-7.323,-7.4074,-7.5285,-7.5285,-7.7518,-8.0599,-8.1445,-8.3112,-8.4995,-8.5811,-8.7286,-8.8748,-8.8979,-9.0056,-9.1441,-9.2556,-9.3249,-9.4172,-9.6172,-9.6903,-9.6788,-9.5326,-9.4326,-9.3403,-9.2326,-9.0941,-9.0171,-9.1056,-9.121,-9.1287,-9.1556,-9.1787,-9.1941,-9.1941,-9.1748,-9.1595,-9.1595,-9.1364,-9.121,-9.121,-9.121,-9.121,-9.121,-9.121,-9.11,-9.0876,-9.0876,-9.0566,-8.9809,-8.9621,-8.9069,-8.8107,-8.7394,-8.6738,-8.6151,-8.5086,-8.4315,-8.3801,-8.4682,-8.5783,-8.7105,-8.905,-9.1546,-9.4299,-9.4299,-9.5254,-9.6685,-9.6685,-9.6685,-9.6502,-9.4887,-9.3235,-9.1583,-5.619,-5.5784,-5.5277,-5.4702,-5.4702,-5.5006,-5.5615,-5.6224,-5.69,-5.778,-5.8152,-5.9145,-6.1369,-6.2584,-6.4122,-6.6333,-6.8715,-7.077,-7.2386,-7.2496,-7.2642,-7.2973,-7.2679,-7.2716,-7.3193,-7.3046,-7.2826,-7.2496,-7.2496,-7.2496,-7.2496,-7.2496,-7.2606,-7.2716,-7.2239,-7.1945,-7.1798,-7.1615,-7.1358,-7.1138,-7.1762,-7.2055,-7.2055,-7.2386,-7.3523,-7.4918,-7.4918,-7.7435,-8.0895,-8.1494,-8.3378,-8.5551,-8.5954,-8.7286,-8.8709,-8.8709,-8.9902,-9.1402,-9.2249,-9.3095,-9.4018,-9.5441,-9.6634,-9.7057,-9.5365,-9.5095,-9.4595,-9.2441,-9.1672,-9.1248,-9.0787,-9.0979,-9.121,-9.121,-9.121,-9.121,-9.121,-9.121,-9.121,-9.121,-9.121,-9.121,-9.121,-9.121,-9.121,-9.121,-9.121,-9.121,-9.121,-9.121,-9.0989,-9.0566,-9.0245,-8.9564,-8.8458,-8.7668,-8.6968,-8.6204,-8.5096,-8.4801,-8.5217,-8.5919,-8.7435,-8.9528,-9.1289,-9.3272,-9.5254,-9.5254,-9.5621,-9.6245,-9.6245,-9.6245,-9.6098,-9.5144,-9.3529,-9.1693,-5.7036,-5.6833,-5.6393,-5.5006,-5.5919,-5.6596,-5.6021,-5.7036,-5.7915,-5.7983,-5.8592,-5.9658,-6.151,-6.3045,-6.4598,-6.6479,-6.8752,-7.077,-7.2386,-7.2496,-7.2826,-7.356,-7.2973,-7.2569,-7.2496,-7.323,-7.3266,-7.2606,-7.2532,-7.2496,-7.2496,-7.2496,-7.2092,-7.1321,-7.1248,-7.0367,-6.8935,-6.9596,-6.9486,-6.9045,-7.0587,-7.1248,-7.1431,-7.2275,-7.3618,-7.5037,-7.5073,-7.7644,-8.111,-8.1839,-8.3902,-8.6094,-8.6094,-8.7286,-8.8709,-8.8709,-8.9902,-9.1364,-9.2172,-9.2979,-9.3787,-9.4672,-9.6095,-9.6903,-9.5441,-9.6172,-9.6095,-9.2441,-9.2556,-9.271,-9.0633,-9.071,-9.1133,-9.121,-9.121,-9.121,-9.121,-9.121,-9.121,-9.121,-9.121,-9.121,-9.121,-9.121,-9.121,-9.121,-9.121,-9.121,-9.121,-9.121,-9.121,-9.121,-9.0451,-8.9702,-8.8934,-8.8122,-8.7389,-8.6676,-8.5201,-8.5663,-8.7836,-8.7512,-8.9454,-9.3161,-9.4079,-9.5327,-9.6685,-9.6612,-9.6171,-9.5511,-9.5437,-9.5401,-9.5401,-9.5474,-9.3932,-9.1767,-5.7679,-5.7205,-5.6697,-5.6393,-5.6596,-5.6934,-5.734,-5.7679,-5.8084,-5.8693,-5.893,-5.9864,-6.2316,-6.3364,-6.4849,-6.7249,-6.9082,-7.077,-7.2386,-7.2496,-7.2569,-7.2753,-7.3193,-7.312,-7.2496,-7.2679,-7.2973,-7.345,-7.2826,-7.2496,-7.2496,-7.2496,-7.2092,-7.1284,-7.066,-6.9816,-6.8862,-6.8421,-6.8458,-6.9009,-6.9963,-7.0734,-7.1468,-7.2899,-7.4366,-7.575,-7.6382,-7.9041,-8.2585,-8.4481,-8.5539,-8.6094,-8.6094,-8.7286,-8.8709,-8.8709,-8.9902,-9.1248,-9.1441,-9.2095,-9.2941,-9.3787,-9.4749,-9.5634,-9.5942,-9.5249,-9.4634,-9.5095,-9.2826,-9.1171,-9.2595,-9.1402,-9.0402,-9.1095,-9.121,-9.121,-9.121,-9.121,-9.121,-9.121,-9.121,-9.121,-9.121,-9.121,-9.121,-9.121,-9.121,-9.121,-9.121,-9.121,-9.121,-9.121,-9.0373,-8.9611,-8.8934,-8.7962,-8.6909,-8.5696,-8.5432,-8.5924,-8.7115,-8.9024,-9.1033,-9.3235,-9.529,-9.6392,-9.6649,-9.6025,-9.5658,-9.5437,-9.4813,-9.4556,-9.463,-9.529,-9.3565,-9.0812,-5.7881,-5.7577,-5.7205,-5.6867,-5.7679,-5.8254,-5.7949,-5.8795,-5.9505,-5.9539,-5.9877,-6.0891,-6.3064,-6.4002,-6.56,-6.8605,-6.9596,-7.077,-7.2386,-7.2496,-7.2496,-7.2496,-7.2899,-7.312,-7.3083,-7.2716,-7.2716,-7.312,-7.3083,-7.2899,-7.2496,-7.2496,-7.2092,-7.1284,-7.0477,-6.9633,-6.8862,-6.8017,-6.7944,-6.8421,-6.9633,-7.0587,-7.1505,-7.3083,-7.4848,-7.6536,-7.6983,-7.9482,-8.3065,-8.5343,-8.6094,-8.6094,-8.6094,-8.7286,-8.8709,-8.8709,-8.9902,-9.121,-9.121,-9.1825,-9.2672,-9.348,-9.4364,-9.5211,-9.6095,-9.5903,-9.5441,-9.5134,-9.4249,-9.321,-9.2095,-9.1479,-9.1018,-9.0633,-9.0594,-9.0748,-9.1133,-9.121,-9.121,-9.121,-9.121,-9.121,-9.121,-9.121,-9.121,-9.121,-9.121,-9.1018,-9.0594,-9.0594,-9.0402,-9.0017,-8.9556,-8.8989,-8.8194,-8.8454,-8.823,-8.7557,-8.7306,-8.7802,-8.9045,-9.1288,-9.3229,-9.4887,-9.5768,-9.6135,-9.6061,-9.5254,-9.4703,-9.4299,-9.3896,-9.3712,-9.3822,-9.463,-9.3345,-9.1106,-5.7881,-5.7881,-5.7746,-5.7273,-5.8795,-5.9742,-5.8626,-6.008,-6.1061,-6.0385,-6.0892,-6.1953,-6.3736,-6.4799,-6.67,-6.9814,-7.011,-7.077,-7.2386,-7.2496,-7.2496,-7.2496,-7.2496,-7.2826,-7.3487,-7.2973,-7.2789,-7.2899,-7.3303,-7.323,-7.2716,-7.2569,-7.2092,-7.1284,-7.0477,-6.9633,-6.8862,-6.8017,-6.7687,-6.7834,-6.9596,-7.0753,-7.1637,-7.357,-7.5605,-7.7404,-7.7554,-7.9872,-8.3219,-8.5343,-8.6094,-8.6094,-8.6094,-8.7286,-8.8709,-8.8709,-8.9902,-9.121,-9.121,-9.1748,-9.2479,-9.3287,-9.4134,-9.5057,-9.6057,-9.6826,-9.6749,-9.4749,-9.5672,-9.5557,-9.1325,-9.1364,-9.1556,-8.994,-8.9825,-9.0171,-9.0902,-9.1133,-9.121,-9.121,-9.121,-9.121,-9.121,-9.121,-9.121,-9.121,-9.121,-9.0825,-8.994,-8.9902,-8.9517,-8.8709,-8.8825,-8.8556,-8.7825,-8.9517,-9.0364,-9.0364,-9.0338,-9.0996,-9.2127,-9.37,-9.5161,-9.6465,-9.5804,-9.5437,-9.5254,-9.4446,-9.3712,-9.3088,-9.2941,-9.2868,-9.2978,-9.3639,-9.2978,-9.1803,-5.7881,-5.7881,-5.8051,-5.8626,-5.9471,-6.0283,-6.0757,-6.1095,-6.1264,-6.1163,-6.1231,-6.1953,-6.3736,-6.5958,-6.8055,-6.9963,-7.011,-7.077,-7.2386,-7.2496,-7.2496,-7.2496,-7.2496,-7.2569,-7.2679,-7.323,-7.3891,-7.4588,-7.3303,-7.2973,-7.3523,-7.2826,-7.2092,-7.1284,-7.0477,-6.9633,-6.8862,-6.8017,-6.7687,-6.7907,-7.022,-7.1488,-7.2447,-7.5485,-7.7485,-7.8787,-7.9432,-8.1346,-8.3759,-8.5483,-8.6094,-8.6094,-8.6094,-8.7286,-8.8709,-8.8709,-8.9902,-9.121,-9.121,-9.1287,-9.1595,-9.2441,-9.3249,-9.4287,-9.5942,-9.6365,-9.6557,-9.6903,-9.5518,-9.398,-9.3326,-9.1595,-8.994,-8.9017,-8.944,-8.994,-9.0056,-9.071,-9.121,-9.121,-9.121,-9.121,-9.121,-9.121,-9.121,-9.121,-9.121,-9.0825,-8.994,-8.9902,-8.9517,-8.8709,-8.9363,-8.9671,-8.9556,-9.1287,-9.2133,-9.2172,-9.4983,-9.5789,-9.4707,-9.5084,-9.542,-9.5658,-9.5547,-9.5107,-9.441,-9.3602,-9.3198,-9.3015,-9.2281,-9.1987,-9.1987,-9.2097,-9.2024,-9.1767,-5.7881,-5.7881,-5.8118,-5.8896,-5.9607,-6.0385,-6.1197,-6.1637,-6.2106,-6.2569,-6.2644,-6.3306,-6.5117,-6.6749,-6.8348,-6.9963,-7.011,-7.077,-7.2386,-7.2496,-7.2496,-7.2496,-7.2496,-7.2496,-7.2496,-7.2863,-7.3413,-7.4221,-7.3523,-7.334,-7.367,-7.334,-7.2973,-7.2606,-7.1798,-7.0991,-7.0183,-6.9376,-6.9045,-6.9192,-7.1174,-7.2576,-7.3814,-7.62,-7.8116,-7.9782,-8.1454,-8.2698,-8.3862,-8.5517,-8.6094,-8.6094,-8.6094,-8.7286,-8.8709,-8.8709,-8.9902,-9.121,-9.121,-9.121,-9.1402,-9.2287,-9.2749,-9.3595,-9.5788,-9.6288,-9.6519,-9.7326,-9.698,-9.598,-9.4057,-9.3172,-9.2018,-8.9748,-8.9671,-8.9748,-8.9286,-8.994,-9.0671,-9.1133,-9.121,-9.121,-9.121,-9.121,-9.1018,-9.0517,-9.0479,-8.9902,-8.8556,-8.8517,-8.8556,-8.8709,-8.9056,-8.9902,-9.1325,-9.3018,-9.4364,-9.5326,-9.7788,-9.7637,-9.5235,-9.6283,-9.6303,-9.5474,-9.4556,-9.3969,-9.3565,-9.2721,-9.2354,-9.2354,-9.195,-9.2354,-9.3198,-9.3198,-9.2611,-9.184]}]]